[[{"header":{"parameterUnit":"m.s-1","parameterCategory":1,"la1":31.0,"la2":29.5877,"lo1":-88.7671,"lo2":-86.6584,"dy":0.0162,"dx":0.0185,"nx":115,"ny":88,"refTime":"2023-10-13T12:00:00:Z","depth":0,"parameterNumber":2,"parameterNumberName":"U-component_of_WINDS"},"data":[0.0,0.0,0.0,0.0,0.0,0.0,0.0,0.0,0.0,0.0,0.0,0.0,0.0,0.0,0.0,0.0,0.0,0.0,0.0,0.0,0.0,0.0,0.0,0.0,0.0,0.0,0.0,0.0,0.0,0.0,0.0,0.0,0.0,0.0,0.0,0.0,0.0,0.0,0.0,0.0,0.0,0.0,0.0,0.0,0.0,0.0,0.0,0.0,0.0,0.0,0.0,0.0,0.0,0.0,0.0,0.0,0.0,0.0,0.0,0.0,0.0,0.0,0.0,0.0,0.0,0.0,0.0,0.0,0.0,0.0,0.0,0.0,0.0,0.0,0.0,0.0,0.0,0.0,0.0,0.0,0.0,0.0,0.0,0.0,0.0,0.0,0.0,0.0,0.0,0.0,0.0,0.0,0.0,0.0,0.0,0.0,0.0,0.0,0.0,0.0,0.0,0.0,0.0,0.0,0.0,0.0,0.0,0.0,0.0,0.0,0.0,0.0,0.0,0.0,0.0,0.0,0.0,0.0,0.0,0.0,0.0,0.0,0.0,0.0,0.0,0.0,0.0,0.0,0.0,0.0,0.0,0.0,0.0,0.0,0.0,0.0,0.0,0.0,0.0,0.0,0.0,0.0,0.0,0.0,0.0,0.0,0.0,0.0,0.0,0.0,0.0,0.0,0.0,0.0,0.0,0.0,0.0,0.0,0.0,0.0,0.0,0.0,0.0,0.0,0.0,0.0,0.0,0.0,0.0,0.0,0.0,0.0,0.0,0.0,0.0,0.0,0.0,0.0,0.0,0.0,0.0,0.0,0.0,0.0,0.0,0.0,0.0,0.0,0.0,0.0,0.0,0.0,0.0,0.0,0.0,0.0,0.0,0.0,0.0,0.0,0.0,0.0,0.0,0.0,0.0,0.0,0.0,0.0,0.0,0.0,0.0,0.0,0.0,0.0,0.0,0.0,0.0,0.0,0.0,0.0,0.0,0.0,0.0,0.0,0.0,0.0,0.0,0.0,0.0,0.0,0.0,0.0,0.0,0.0,0.0,0.0,0.0,0.0,0.0,0.0,0.0,0.0,0.0,0.0,0.0,0.0,0.0,0.0,0.0,0.0,0.0,0.0,0.0,0.0,0.0,0.0,0.0,0.0,0.0,0.0,0.0,0.0,0.0,0.0,0.0,0.0,0.0,0.0,0.0,0.0,0.0,0.0,0.0,0.0,0.0,0.0,0.0,0.0,0.0,0.0,0.0,0.0,0.0,0.0,0.0,0.0,0.0,0.0,0.0,0.0,0.0,0.0,0.0,0.0,0.0,0.0,0.0,0.0,0.0,0.0,0.0,0.0,0.0,0.0,0.0,0.0,0.0,0.0,0.0,0.0,0.0,0.0,0.0,0.0,0.0,0.0,0.0,0.0,0.0,0.0,0.0,0.0,0.0,0.0,0.0,0.0,0.0,0.0,0.0,0.0,0.0,0.0,0.0,0.0,0.0,0.0,0.0,0.0,0.0,0.0,0.0,0.0,0.0,0.0,0.0,0.0,0.0,0.0,0.0,0.0,0.0,0.0,0.0,0.0,0.0,0.0,0.0,0.0,0.0,0.0,0.0,0.0,0.0,0.0,0.0,0.0,0.0,0.0,0.0,0.0,0.0,0.0,0.0,0.0,0.0,0.0,0.0,0.0,0.0,0.0,0.0,0.0,0.0,0.0,0.0,0.0,0.0,0.0,0.0,0.0,0.0,0.0,0.0,0.0,0.0,0.0,0.0,0.0,0.0,0.0,0.0,0.0,0.0,0.0,0.0,0.0,0.0,0.0,0.0,0.0,0.0,0.0,0.0,0.0,0.0,0.0,0.0,0.0,0.0,0.0,0.0,0.0,0.0,0.0,0.0,0.0,0.0,0.0,0.0,0.0,0.0,0.0,0.0,0.0,0.0,0.0,0.0,0.0,0.0,0.0,0.0,0.0,0.0,0.0,0.0,0.0,0.0,0.0,0.0,0.0,0.0,0.0,0.0,0.0,0.0,0.0,0.0,0.0,0.0,0.0,0.0,0.0,0.0,0.0,0.0,0.0,0.0,0.0,0.0,0.0,0.0,0.0,0.0,0.0,0.0,0.0,0.0,0.0,0.0,0.0,0.0,0.0,0.0,0.0,0.0,0.0,0.0,0.0,0.0,0.0,0.0,0.0,0.0,0.0,0.0,0.0,0.0,0.0,0.0,0.0,0.0,0.0,0.0,0.0,0.0,0.0,0.0,0.0,0.0,0.0,0.0,0.0,0.0,0.0,0.0,0.0,0.0,0.0,0.0,0.0,0.0,0.0,0.0,0.0,0.0,0.0,0.0,0.0,0.0,0.0,0.0,0.0,0.0,0.0,0.0,0.0,0.0,0.0,0.0,0.0,0.0,0.0,0.0,0.0,0.0,0.0,0.0,0.0,0.0,0.0,0.0,0.0,0.0,0.0,0.0,0.0,0.0,0.0,0.0,0.0,0.0,0.0,0.0,0.0,0.0,0.0,0.0,0.0,0.0,0.0,0.0,0.0,0.0,0.0,0.0,0.0,0.0,0.0,0.0,0.0,0.0,0.0,0.0,0.0,0.0,0.0,0.0,0.0,0.0,0.0,0.0,0.0,0.0,0.0,0.0,0.0,0.0,0.0,0.0,0.0,0.0,0.0,0.0,0.0,0.0,0.0,0.0,0.0,0.0,0.0,0.0,0.0,0.0,0.0,0.0,0.0,0.0,0.0,0.0,0.0,0.0,0.0,0.0,0.0,0.0,0.0,0.0,0.0,0.0,0.0,0.0,0.0,0.0,0.0,0.0,0.0,0.0,0.0,0.0,0.0,0.0,0.0,0.0,0.0,0.0,0.0,0.0,0.0,0.0,0.0,0.0,0.0,0.0,0.0,0.0,0.0,0.0,0.0,0.0,0.0,0.0,0.0,0.0,0.0,0.0,0.0,0.0,0.0,0.0,0.0,0.0,0.0,0.0,0.0,0.0,0.0,0.0,0.0,0.0,0.0,0.0,0.0,0.0,0.0,0.0,0.0,0.0,0.0,0.0,0.0,0.0,0.0,0.0,0.0,0.0,0.0,0.0,0.0,0.0,0.0,0.0,0.0,0.0,0.0,0.0,0.0,0.0,0.0,0.0,0.0,0.0,0.0,0.0,0.0,0.0,0.0,0.0,0.0,0.0,0.0,0.0,0.0,0.0,0.0,0.0,0.0,0.0,0.0,0.0,0.0,0.0,0.0,0.0,0.0,0.0,0.0,0.0,0.0,0.0,0.0,0.0,0.0,0.0,0.0,0.0,0.0,0.0,0.0,0.0,0.0,0.0,0.0,0.0,0.0,0.0,0.0,0.0,0.0,0.0,0.0,0.0,0.0,0.0,0.0,0.0,0.0,0.0,0.0,0.0,0.0,0.0,0.0,0.0,0.0,0.0,0.0,0.0,0.0,0.0,0.0,0.0,0.0,0.0,0.0,0.0,0.0,0.0,0.0,0.0,0.0,0.0,0.0,0.0,0.0,0.0,0.0,0.0,0.0,0.0,0.0,0.0,0.0,0.0,0.0,0.0,0.0,0.0,0.0,0.0,0.0,0.0,0.0,0.0,0.0,0.0,0.0,0.0,0.0,0.0,0.0,0.0,0.0,0.0,0.0,0.0,0.0,0.0,0.0,0.0,0.0,0.0,0.0,0.0,0.0,0.0,0.0,0.0,0.0,0.0,0.0,0.0,0.0,0.0,0.0,0.0,0.0,0.0,0.0,0.0,0.0,0.0,0.0,0.0,0.0,0.0,0.0,0.0,0.0,0.0,0.0,0.0,0.0,0.0,0.0,0.0,0.0,0.0,0.0,0.0,0.0,0.0,0.0,0.0,0.0,0.0,0.0,0.0,0.0,0.0,0.0,0.0,0.0,0.0,0.0,0.0,0.0,0.0,0.0,0.0,0.0,0.0,0.0,0.0,0.0,0.0,0.0,0.0,0.0,0.0,0.0,0.0,0.0,0.0,0.0,0.0,0.0,0.0,0.0,0.0,0.0,0.0,0.0,0.0,0.0,0.0,0.0,0.0,0.0,0.0,0.0,0.0,0.0,0.0,0.0,0.0,0.0,0.0,0.0,0.0,0.0,0.0,0.0,0.0,0.0,0.0,0.0,0.0,0.0,0.0,0.0,0.0,0.0,0.0,0.0,0.0,0.0,0.0,0.0,0.0,0.0,0.0,0.0,0.0,0.0,0.0,0.0,0.0,0.0,0.0,0.0,0.0,0.0,0.0,0.0,0.0,0.0,3.4677,0.0,0.0,0.0,0.0,0.0,0.0,0.0,0.0,0.0,0.0,0.0,0.0,0.0,0.0,0.0,0.0,0.0,0.0,0.0,0.0,0.0,0.0,0.0,0.0,0.0,0.0,0.0,0.0,0.0,0.0,0.0,0.0,0.0,0.0,0.0,0.0,0.0,0.0,0.0,0.0,0.0,0.0,0.0,0.0,0.0,0.0,0.0,0.0,0.0,0.0,0.0,0.0,0.0,0.0,0.0,0.0,0.0,0.0,0.0,0.0,0.0,0.0,0.0,0.0,0.0,0.0,0.0,0.0,0.0,0.0,0.0,0.0,0.0,0.0,0.0,0.0,0.0,0.0,0.0,0.0,0.0,0.0,0.0,0.0,0.0,0.0,0.0,0.0,0.0,0.0,0.0,0.0,0.0,0.0,0.0,0.0,0.0,0.0,0.0,0.0,0.0,0.0,0.0,0.0,0.0,0.0,0.0,0.0,0.0,0.0,3.7695,3.7747,3.7419,3.6594,3.5308,0.0,0.0,0.0,0.0,0.0,0.0,0.0,0.0,0.0,0.0,0.0,0.0,0.0,0.0,0.0,0.0,0.0,0.0,0.0,0.0,0.0,0.0,0.0,0.0,0.0,0.0,0.0,0.0,0.0,0.0,0.0,0.0,0.0,0.0,0.0,0.0,0.0,0.0,0.0,0.0,0.0,0.0,0.0,0.0,0.0,0.0,0.0,0.0,0.0,0.0,0.0,0.0,0.0,0.0,0.0,0.0,0.0,0.0,0.0,0.0,0.0,0.0,0.0,0.0,0.0,0.0,0.0,0.0,0.0,0.0,0.0,0.0,0.0,0.0,0.0,0.0,0.0,0.0,0.0,0.0,0.0,0.0,0.0,0.0,0.0,0.0,0.0,0.0,0.0,0.0,0.0,0.0,0.0,0.0,0.0,0.0,0.0,0.0,0.0,0.0,0.0,0.0,0.0,0.0,0.0,0.0,0.0,0.0,0.0,0.0,0.0,0.0,3.8339,3.7302,3.546,0.0,0.0,0.0,0.0,0.0,0.0,0.0,0.0,0.0,0.0,0.0,0.0,0.0,0.0,0.0,0.0,0.0,0.0,0.0,0.0,0.0,0.0,0.0,0.0,0.0,0.0,0.0,0.0,0.0,0.0,0.0,0.0,0.0,0.0,0.0,0.0,0.0,0.0,0.0,0.0,0.0,0.0,0.0,0.0,0.0,0.0,0.0,0.0,0.0,0.0,0.0,0.0,0.0,0.0,0.0,0.0,0.0,0.0,0.0,0.0,0.0,0.0,0.0,0.0,0.0,0.0,0.0,0.0,0.0,0.0,0.0,0.0,0.0,0.0,0.0,0.0,0.0,0.0,0.0,0.0,0.0,0.0,0.0,0.0,0.0,0.0,0.0,0.0,0.0,0.0,0.0,0.0,0.0,0.0,0.0,0.0,0.0,0.0,0.0,0.0,0.0,0.0,0.0,0.0,0.0,0.0,0.0,0.0,0.0,0.0,4.0236,4.0252,3.9554,0.0,3.5608,0.0,0.0,0.0,0.0,0.0,0.0,0.0,0.0,0.0,0.0,0.0,0.0,0.0,0.0,0.0,0.0,0.0,0.0,0.0,0.0,0.0,0.0,0.0,0.0,0.0,0.0,0.0,0.0,0.0,0.0,0.0,0.0,0.0,0.0,0.0,0.0,0.0,0.0,0.0,0.0,0.0,0.0,0.0,0.0,0.0,0.0,0.0,0.0,0.0,0.0,0.0,0.0,0.0,0.0,0.0,0.0,0.0,0.0,0.0,0.0,0.0,0.0,0.0,0.0,0.0,0.0,0.0,0.0,0.0,0.0,0.0,0.0,0.0,0.0,0.0,0.0,0.0,0.0,0.0,0.0,0.0,0.0,0.0,0.0,0.0,0.0,0.0,0.0,0.0,0.0,0.0,0.0,0.0,0.0,0.0,0.0,0.0,0.0,0.0,0.0,0.0,0.0,0.0,0.0,0.0,0.0,0.0,0.0,0.0,0.0,4.143,4.1855,4.0586,3.8754,0.0,0.0,0.0,0.0,0.0,0.0,0.0,0.0,0.0,0.0,0.0,0.0,0.0,0.0,0.0,0.0,0.0,0.0,0.0,0.0,0.0,0.0,0.0,0.0,0.0,0.0,0.0,0.0,0.0,0.0,0.0,0.0,0.0,0.0,0.0,0.0,0.0,0.0,0.0,0.0,0.0,0.0,0.0,0.0,0.0,0.0,0.0,0.0,0.0,0.0,0.0,0.0,0.0,0.0,0.0,0.0,0.0,0.0,0.0,0.0,0.0,0.0,0.0,0.0,0.0,0.0,0.0,0.0,0.0,0.0,0.0,0.0,0.0,0.0,0.0,0.0,0.0,0.0,0.0,0.0,0.0,0.0,0.0,0.0,0.0,0.0,0.0,0.0,0.0,0.0,0.0,0.0,0.0,0.0,0.0,0.0,0.0,0.0,0.0,0.0,0.0,0.0,0.0,0.0,0.0,0.0,0.0,0.0,0.0,0.0,4.0784,4.2354,4.3006,4.1109,3.9068,3.7094,0.0,0.0,0.0,0.0,0.0,0.0,0.0,0.0,0.0,0.0,0.0,0.0,0.0,0.0,0.0,0.0,0.0,0.0,0.0,0.0,0.0,0.0,0.0,0.0,0.0,0.0,0.0,0.0,0.0,0.0,0.0,0.0,0.0,0.0,0.0,0.0,0.0,0.0,0.0,0.0,0.0,0.0,0.0,0.0,0.0,0.0,0.0,0.0,0.0,0.0,0.0,0.0,0.0,0.0,0.0,0.0,0.0,0.0,0.0,0.0,0.0,0.0,0.0,0.0,0.0,0.0,0.0,0.0,0.0,0.0,0.0,0.0,0.0,0.0,0.0,0.0,0.0,0.0,0.0,0.0,0.0,0.0,0.0,0.0,0.0,0.0,0.0,0.0,0.0,0.0,0.0,0.0,0.0,0.0,0.0,0.0,0.0,0.0,0.0,0.0,0.0,0.0,0.0,0.0,0.0,0.0,0.0,0.0,4.0043,4.1839,4.3197,4.3962,4.0914,3.8815,0.0,0.0,0.0,0.0,0.0,0.0,0.0,0.0,0.0,0.0,0.0,0.0,0.0,0.0,0.0,0.0,0.0,0.0,0.0,0.0,0.0,0.0,0.0,0.0,0.0,0.0,0.0,0.0,0.0,0.0,0.0,0.0,0.0,0.0,0.0,0.0,0.0,0.0,0.0,0.0,0.0,0.0,0.0,0.0,0.0,0.0,0.0,0.0,0.0,0.0,0.0,0.0,0.0,0.0,0.0,0.0,0.0,0.0,0.0,0.0,0.0,0.0,0.0,0.0,0.0,0.0,0.0,0.0,0.0,0.0,0.0,0.0,0.0,0.0,0.0,0.0,0.0,0.0,0.0,0.0,0.0,0.0,0.0,0.0,0.0,0.0,0.0,0.0,0.0,0.0,0.0,0.0,0.0,0.0,0.0,0.0,0.0,0.0,0.0,0.0,0.0,0.0,0.0,0.0,0.0,0.0,0.0,0.0,0.0,3.9528,4.3094,4.523,4.5481,4.285,4.0539,0.0,0.0,0.0,0.0,0.0,0.0,0.0,0.0,0.0,0.0,0.0,0.0,0.0,0.0,0.0,0.0,0.0,0.0,0.0,0.0,0.0,0.0,0.0,0.0,0.0,0.0,0.0,0.0,0.0,0.0,0.0,0.0,0.0,0.0,0.0,0.0,0.0,0.0,0.0,0.0,0.0,0.0,0.0,0.0,0.0,0.0,0.0,0.0,0.0,0.0,0.0,0.0,0.0,0.0,0.0,0.0,0.0,0.0,0.0,0.0,0.0,0.0,0.0,0.0,0.0,0.0,0.0,0.0,0.0,0.0,0.0,0.0,0.0,0.0,0.0,0.0,0.0,0.0,0.0,0.0,0.0,0.0,0.0,0.0,0.0,0.0,0.0,0.0,0.0,0.0,0.0,0.0,0.0,0.0,0.0,0.0,0.0,0.0,0.0,0.0,0.0,0.0,0.0,0.0,0.0,0.0,0.0,0.0,0.0,4.0997,0.0,4.74,4.7105,4.45,4.1799,0.0,0.0,0.0,0.0,0.0,0.0,0.0,0.0,0.0,0.0,0.0,0.0,0.0,0.0,0.0,0.0,0.0,0.0,0.0,0.0,0.0,0.0,0.0,0.0,0.0,0.0,0.0,0.0,0.0,0.0,0.0,0.0,0.0,0.0,0.0,0.0,0.0,0.0,0.0,0.0,0.0,0.0,0.0,0.0,0.0,0.0,0.0,0.0,0.0,0.0,0.0,0.0,0.0,0.0,0.0,0.0,0.0,0.0,0.0,0.0,0.0,0.0,0.0,0.0,0.0,0.0,0.0,0.0,0.0,0.0,0.0,0.0,0.0,0.0,0.0,0.0,0.0,0.0,0.0,0.0,0.0,0.0,0.0,0.0,0.0,0.0,0.0,0.0,0.0,0.0,0.0,0.0,0.0,0.0,0.0,0.0,0.0,0.0,0.0,0.0,0.0,0.0,0.0,0.0,0.0,0.0,0.0,0.0,4.0117,4.4928,4.8226,4.9504,4.877,4.5681,4.243,0.0,0.0,0.0,0.0,0.0,0.0,0.0,0.0,0.0,0.0,0.0,0.0,0.0,0.0,0.0,0.0,0.0,0.0,0.0,0.0,0.0,0.0,0.0,0.0,0.0,0.0,0.0,0.0,0.0,0.0,0.0,0.0,0.0,0.0,0.0,0.0,0.0,0.0,0.0,0.0,0.0,0.0,0.0,0.0,0.0,0.0,0.0,0.0,0.0,0.0,0.0,0.0,0.0,0.0,0.0,0.0,0.0,0.0,0.0,0.0,0.0,0.0,0.0,0.0,0.0,0.0,0.0,0.0,0.0,0.0,0.0,0.0,0.0,0.0,0.0,0.0,0.0,0.0,0.0,0.0,0.0,0.0,0.0,0.0,0.0,0.0,0.0,0.0,0.0,0.0,0.0,0.0,0.0,0.0,0.0,0.0,0.0,0.0,0.0,0.0,0.0,0.0,0.0,0.0,0.0,0.0,0.0,0.0,0.0,4.5821,4.8529,5.0069,5.0193,4.6619,4.3123,0.0,0.0,0.0,0.0,0.0,0.0,0.0,0.0,0.0,0.0,0.0,0.0,0.0,0.0,0.0,0.0,0.0,0.0,0.0,0.0,0.0,0.0,0.0,0.0,0.0,0.0,0.0,0.0,0.0,0.0,0.0,0.0,0.0,0.0,0.0,0.0,0.0,0.0,0.0,0.0,0.0,0.0,0.0,0.0,0.0,0.0,0.0,0.0,0.0,0.0,0.0,0.0,0.0,0.0,0.0,0.0,0.0,0.0,0.0,0.0,0.0,0.0,0.0,0.0,0.0,0.0,0.0,0.0,0.0,0.0,0.0,0.0,0.0,0.0,0.0,0.0,0.0,0.0,0.0,0.0,0.0,0.0,0.0,0.0,0.0,0.0,0.0,0.0,0.0,0.0,0.0,0.0,0.0,0.0,0.0,0.0,0.0,0.0,0.0,0.0,0.0,0.0,0.0,0.0,0.0,0.0,0.0,0.0,0.0,4.8359,5.0516,5.1735,5.1924,4.859,4.4995,4.1226,0.0,0.0,0.0,0.0,0.0,0.0,0.0,0.0,0.0,0.0,0.0,0.0,0.0,0.0,0.0,0.0,0.0,0.0,0.0,0.0,0.0,0.0,0.0,0.0,0.0,0.0,0.0,0.0,0.0,0.0,0.0,0.0,0.0,0.0,0.0,0.0,0.0,0.0,0.0,0.0,0.0,0.0,0.0,0.0,0.0,0.0,0.0,0.0,0.0,0.0,0.0,0.0,0.0,0.0,0.0,0.0,0.0,0.0,0.0,0.0,0.0,0.0,0.0,0.0,0.0,0.0,0.0,0.0,0.0,0.0,0.0,0.0,0.0,0.0,0.0,0.0,0.0,0.0,0.0,0.0,0.0,0.0,0.0,0.0,0.0,0.0,0.0,0.0,0.0,0.0,0.0,0.0,0.0,0.0,0.0,0.0,0.0,0.0,0.0,0.0,0.0,0.0,0.0,0.0,0.0,0.0,0.0,0.0,5.2234,5.4,5.4446,5.3596,5.114,4.7694,0.0,0.0,0.0,0.0,0.0,0.0,0.0,0.0,0.0,0.0,0.0,0.0,0.0,0.0,0.0,0.0,0.0,0.0,0.0,0.0,0.0,0.0,0.0,0.0,0.0,0.0,0.0,0.0,0.0,0.0,0.0,0.0,0.0,0.0,0.0,0.0,0.0,0.0,0.0,0.0,0.0,0.0,0.0,0.0,0.0,0.0,0.0,0.0,0.0,0.0,0.0,0.0,0.0,0.0,0.0,0.0,0.0,0.0,0.0,0.0,0.0,0.0,0.0,0.0,0.0,0.0,0.0,0.0,0.0,0.0,0.0,0.0,0.0,0.0,0.0,0.0,0.0,0.0,0.0,0.0,0.0,0.0,0.0,0.0,0.0,0.0,0.0,0.0,0.0,0.0,0.0,0.0,0.0,0.0,0.0,0.0,0.0,0.0,0.0,0.0,0.0,0.0,0.0,0.0,0.0,0.0,0.0,0.0,0.0,5.4618,5.692,5.7178,5.5309,5.1764,4.8175,0.0,0.0,0.0,0.0,0.0,0.0,0.0,0.0,0.0,0.0,0.0,0.0,0.0,0.0,0.0,0.0,0.0,0.0,0.0,0.0,0.0,0.0,0.0,0.0,0.0,0.0,0.0,0.0,0.0,0.0,0.0,0.0,0.0,0.0,0.0,0.0,0.0,0.0,0.0,0.0,0.0,0.0,0.0,0.0,0.0,0.0,0.0,0.0,0.0,0.0,0.0,0.0,0.0,0.0,0.0,0.0,0.0,0.0,0.0,0.0,0.0,0.0,0.0,0.0,0.0,0.0,0.0,0.0,0.0,0.0,0.0,0.0,0.0,0.0,0.0,0.0,0.0,0.0,0.0,0.0,0.0,0.0,0.0,0.0,0.0,0.0,0.0,0.0,0.0,0.0,0.0,0.0,0.0,0.0,0.0,0.0,0.0,0.0,0.0,0.0,0.0,0.0,0.0,0.0,0.0,0.0,0.0,0.0,5.2151,5.6584,5.88,5.9286,5.8031,5.442,5.0502,0.0,0.0,0.0,0.0,0.0,0.0,0.0,0.0,0.0,0.0,0.0,0.0,0.0,0.0,0.0,0.0,0.0,0.0,0.0,0.0,0.0,0.0,0.0,0.0,0.0,0.0,0.0,0.0,0.0,0.0,0.0,0.0,0.0,0.0,0.0,0.0,0.0,0.0,0.0,0.0,0.0,0.0,0.0,0.0,0.0,0.0,0.0,0.0,0.0,0.0,0.0,0.0,0.0,0.0,0.0,0.0,0.0,0.0,0.0,0.0,0.0,0.0,0.0,0.0,0.0,0.0,0.0,0.0,0.0,0.0,0.0,0.0,0.0,0.0,0.0,0.0,0.0,0.0,0.0,0.0,0.0,0.0,0.0,0.0,0.0,0.0,0.0,0.0,0.0,0.0,0.0,0.0,0.0,0.0,0.0,0.0,0.0,0.0,0.0,0.0,0.0,0.0,0.0,0.0,0.0,0.0,0.0,0.0,5.329,5.8276,6.0077,6.1053,6.1085,5.7894,5.3604,0.0,0.0,0.0,0.0,0.0,0.0,0.0,0.0,0.0,0.0,0.0,0.0,0.0,0.0,0.0,0.0,0.0,0.0,0.0,0.0,0.0,0.0,0.0,0.0,0.0,0.0,0.0,0.0,0.0,0.0,0.0,0.0,0.0,0.0,0.0,0.0,0.0,0.0,0.0,0.0,0.0,0.0,0.0,0.0,0.0,0.0,0.0,0.0,0.0,0.0,0.0,0.0,0.0,0.0,0.0,0.0,0.0,0.0,0.0,0.0,0.0,0.0,0.0,0.0,0.0,0.0,0.0,0.0,0.0,0.0,0.0,0.0,0.0,0.0,0.0,0.0,0.0,0.0,0.0,0.0,0.0,0.0,0.0,0.0,0.0,0.0,0.0,0.0,0.0,0.0,0.0,0.0,0.0,0.0,0.0,0.0,0.0,0.0,0.0,0.0,0.0,0.0,0.0,0.0,0.0,0.0,0.0,0.0,5.4975,6.0002,6.1808,6.2786,6.3,5.859,5.4458,0.0,0.0,0.0,0.0,0.0,0.0,0.0,0.0,0.0,0.0,0.0,0.0,0.0,0.0,0.0,0.0,0.0,0.0,0.0,0.0,0.0,0.0,0.0,0.0,0.0,0.0,0.0,0.0,0.0,0.0,0.0,0.0,0.0,0.0,0.0,0.0,0.0,0.0,0.0,0.0,0.0,0.0,0.0,0.0,0.0,0.0,0.0,0.0,4.2999,0.0,0.0,0.0,0.0,0.0,0.0,0.0,0.0,0.0,0.0,0.0,0.0,0.0,0.0,0.0,0.0,0.0,0.0,0.0,0.0,0.0,0.0,0.0,0.0,0.0,0.0,0.0,0.0,0.0,0.0,0.0,0.0,0.0,0.0,0.0,0.0,0.0,0.0,0.0,0.0,0.0,0.0,0.0,0.0,0.0,0.0,0.0,0.0,0.0,0.0,0.0,0.0,0.0,0.0,0.0,0.0,0.0,0.0,0.0,5.6286,6.0566,6.2445,6.3459,6.3486,6.0045,5.6273,0.0,0.0,0.0,0.0,0.0,0.0,0.0,0.0,0.0,0.0,0.0,0.0,0.0,0.0,0.0,0.0,0.0,0.0,0.0,0.0,0.0,0.0,0.0,0.0,0.0,0.0,0.0,0.0,0.0,0.0,0.0,0.0,0.0,0.0,0.0,0.0,0.0,0.0,0.0,0.0,0.0,0.0,0.0,0.0,0.0,0.0,0.0,0.0,0.0,0.0,0.0,0.0,0.0,0.0,0.0,0.0,0.0,0.0,0.0,0.0,0.0,0.0,0.0,0.0,0.0,0.0,0.0,0.0,0.0,0.0,0.0,0.0,0.0,0.0,0.0,0.0,0.0,0.0,0.0,0.0,0.0,0.0,0.0,0.0,0.0,0.0,0.0,0.0,0.0,0.0,0.0,0.0,0.0,0.0,0.0,0.0,0.0,0.0,0.0,0.0,0.0,0.0,0.0,0.0,0.0,0.0,0.0,5.2694,5.7298,6.0827,6.2813,6.3824,6.382,6.1545,5.8099,5.3427,0.0,0.0,0.0,0.0,0.0,0.0,0.0,0.0,0.0,0.0,0.0,0.0,0.0,0.0,0.0,0.0,0.0,0.0,0.0,0.0,0.0,0.0,0.0,0.0,0.0,0.0,0.0,0.0,0.0,0.0,0.0,0.0,0.0,0.0,0.0,0.0,0.0,0.0,3.8749,4.1815,0.0,0.0,0.0,0.0,0.0,0.0,0.0,0.0,4.6194,0.0,0.0,0.0,0.0,0.0,0.0,0.0,0.0,0.0,0.0,0.0,0.0,0.0,0.0,0.0,0.0,0.0,0.0,0.0,0.0,0.0,0.0,0.0,0.0,0.0,0.0,0.0,0.0,0.0,0.0,0.0,0.0,0.0,0.0,0.0,0.0,0.0,0.0,0.0,0.0,0.0,0.0,0.0,0.0,0.0,0.0,0.0,0.0,0.0,0.0,0.0,0.0,0.0,0.0,0.0,0.0,4.8902,5.3395,5.7774,6.2015,6.3792,6.4803,6.4959,6.1963,5.8639,5.503,0.0,0.0,0.0,0.0,0.0,0.0,0.0,0.0,0.0,0.0,0.0,0.0,0.0,0.0,0.0,0.0,0.0,0.0,0.0,0.0,0.0,0.0,0.0,0.0,0.0,0.0,0.0,0.0,0.0,0.0,0.0,0.0,0.0,0.0,0.0,0.0,0.0,0.0,0.0,4.5245,4.6852,0.0,0.0,0.0,0.0,0.0,0.0,0.0,0.0,4.7943,0.0,0.0,0.0,0.0,0.0,0.0,0.0,0.0,0.0,0.0,0.0,0.0,0.0,0.0,0.0,0.0,0.0,0.0,0.0,0.0,0.0,0.0,0.0,0.0,0.0,0.0,0.0,0.0,0.0,0.0,0.0,0.0,0.0,0.0,0.0,0.0,0.0,0.0,0.0,0.0,0.0,0.0,0.0,0.0,0.0,0.0,0.0,0.0,0.0,0.0,0.0,0.0,0.0,0.0,0.0,4.9384,5.4886,5.9235,6.2311,6.4153,6.5194,6.5276,6.2128,5.8872,0.0,0.0,0.0,0.0,0.0,0.0,0.0,0.0,0.0,0.0,0.0,0.0,0.0,0.0,0.0,0.0,0.0,0.0,0.0,0.0,0.0,0.0,0.0,0.0,0.0,0.0,0.0,0.0,0.0,0.0,0.0,0.0,0.0,0.0,0.0,0.0,0.0,0.0,0.0,0.0,4.6841,4.8434,4.9645,0.0,0.0,0.0,0.0,0.0,0.0,4.9456,4.8957,0.0,0.0,0.0,0.0,0.0,0.0,0.0,0.0,0.0,0.0,0.0,0.0,0.0,0.0,0.0,0.0,0.0,0.0,0.0,0.0,0.0,0.0,0.0,0.0,0.0,0.0,0.0,0.0,0.0,0.0,0.0,0.0,0.0,0.0,0.0,0.0,0.0,0.0,0.0,0.0,0.0,0.0,0.0,0.0,0.0,0.0,0.0,0.0,0.0,0.0,0.0,0.0,0.0,0.0,0.0,4.9452,5.5998,6.0392,6.2416,6.4318,6.5276,6.5138,6.2136,5.8911,0.0,0.0,0.0,0.0,0.0,0.0,0.0,0.0,0.0,0.0,0.0,0.0,0.0,0.0,0.0,0.0,0.0,0.0,0.0,0.0,0.0,0.0,0.0,0.0,0.0,0.0,0.0,0.0,0.0,0.0,0.0,0.0,0.0,0.0,0.0,0.0,0.0,0.0,0.0,0.0,0.0,4.9944,5.1196,5.1201,0.0,0.0,0.0,0.0,5.1885,5.1375,0.0,0.0,0.0,0.0,0.0,0.0,0.0,0.0,0.0,0.0,0.0,0.0,0.0,0.0,0.0,0.0,0.0,0.0,0.0,0.0,0.0,0.0,0.0,0.0,0.0,0.0,0.0,0.0,0.0,0.0,0.0,0.0,0.0,0.0,0.0,0.0,0.0,0.0,0.0,0.0,0.0,0.0,0.0,0.0,0.0,0.0,0.0,0.0,0.0,0.0,0.0,0.0,0.0,0.0,0.0,0.0,4.9544,5.5529,5.9923,6.2579,6.4444,6.51,6.4432,6.1965,5.8741,0.0,0.0,0.0,0.0,0.0,0.0,0.0,0.0,0.0,0.0,0.0,0.0,0.0,0.0,0.0,0.0,0.0,0.0,0.0,0.0,0.0,0.0,0.0,0.0,0.0,0.0,0.0,0.0,0.0,0.0,0.0,0.0,0.0,0.0,0.0,0.0,0.0,0.0,0.0,0.0,0.0,5.2151,5.2395,5.3584,5.423,0.0,0.0,5.4468,5.4553,5.4419,0.0,0.0,0.0,0.0,0.0,0.0,0.0,0.0,0.0,0.0,0.0,0.0,0.0,0.0,0.0,0.0,0.0,0.0,0.0,0.0,0.0,0.0,0.0,0.0,0.0,0.0,0.0,0.0,0.0,0.0,0.0,0.0,0.0,0.0,0.0,0.0,0.0,0.0,0.0,0.0,0.0,0.0,0.0,0.0,0.0,0.0,0.0,0.0,0.0,0.0,0.0,0.0,0.0,0.0,0.0,4.5754,5.0221,5.6198,6.0405,6.2649,6.4505,6.5341,6.5015,6.2247,5.8957,0.0,0.0,0.0,0.0,0.0,0.0,0.0,0.0,0.0,0.0,0.0,0.0,0.0,0.0,0.0,0.0,0.0,0.0,0.0,0.0,0.0,0.0,0.0,0.0,0.0,0.0,0.0,0.0,0.0,0.0,0.0,0.0,0.0,0.0,0.0,0.0,0.0,0.0,0.0,0.0,0.0,0.0,5.5028,5.5949,0.0,0.0,0.0,5.7066,5.7135,0.0,0.0,0.0,0.0,0.0,0.0,0.0,0.0,0.0,0.0,0.0,0.0,0.0,0.0,0.0,0.0,0.0,0.0,0.0,0.0,0.0,0.0,0.0,0.0,0.0,0.0,0.0,0.0,0.0,0.0,0.0,0.0,0.0,0.0,0.0,0.0,0.0,0.0,0.0,0.0,0.0,0.0,0.0,0.0,0.0,0.0,0.0,0.0,0.0,0.0,0.0,0.0,0.0,0.0,0.0,0.0,0.0,5.1011,5.691,6.0893,6.2953,6.4641,6.5437,6.5263,6.2542,0.0,0.0,0.0,0.0,0.0,0.0,0.0,0.0,0.0,0.0,0.0,0.0,0.0,0.0,0.0,0.0,0.0,0.0,0.0,0.0,0.0,0.0,0.0,0.0,0.0,0.0,0.0,0.0,0.0,0.0,0.0,0.0,0.0,0.0,0.0,0.0,0.0,0.0,0.0,0.0,0.0,0.0,5.3584,5.7248,5.828,5.9121,0.0,0.0,5.9582,5.9716,5.878,5.7301,0.0,0.0,0.0,0.0,0.0,0.0,0.0,0.0,0.0,0.0,0.0,0.0,0.0,0.0,0.0,0.0,0.0,0.0,0.0,0.0,0.0,0.0,0.0,0.0,0.0,0.0,0.0,0.0,0.0,0.0,0.0,0.0,0.0,0.0,0.0,0.0,0.0,0.0,0.0,0.0,0.0,0.0,0.0,0.0,0.0,0.0,0.0,0.0,0.0,0.0,0.0,0.0,0.0,0.0,0.0,5.1876,5.7213,6.1191,6.3715,6.4976,6.5263,6.4496,6.2861,6.0012,0.0,0.0,0.0,0.0,0.0,0.0,0.0,0.0,0.0,0.0,0.0,0.0,0.0,0.0,0.0,0.0,0.0,0.0,0.0,0.0,0.0,0.0,0.0,0.0,0.0,0.0,0.0,0.0,0.0,0.0,0.0,0.0,0.0,0.0,0.0,0.0,0.0,0.0,0.0,0.0,0.0,5.5662,5.818,6.0463,6.1908,0.0,0.0,6.2159,6.2159,6.0795,5.9191,5.7566,0.0,0.0,0.0,0.0,0.0,0.0,0.0,0.0,0.0,0.0,0.0,0.0,0.0,0.0,0.0,0.0,0.0,0.0,0.0,0.0,0.0,0.0,0.0,0.0,0.0,0.0,0.0,0.0,0.0,0.0,0.0,0.0,0.0,0.0,0.0,0.0,0.0,0.0,0.0,0.0,0.0,0.0,0.0,0.0,0.0,0.0,0.0,0.0,0.0,0.0,0.0,0.0,0.0,4.7473,5.2704,5.797,6.169,6.3861,6.5015,6.5454,6.5148,6.3169,6.0589,0.0,0.0,0.0,0.0,0.0,0.0,0.0,0.0,0.0,0.0,0.0,0.0,0.0,0.0,0.0,0.0,0.0,0.0,0.0,0.0,0.0,0.0,0.0,0.0,0.0,0.0,0.0,0.0,4.1244,4.2103,4.2546,0.0,0.0,0.0,0.0,0.0,0.0,0.0,0.0,0.0,0.0,5.7655,6.1073,6.2778,0.0,0.0,6.5349,6.5044,6.4092,6.2921,6.1406,5.9406,5.7156,0.0,0.0,0.0,0.0,0.0,0.0,0.0,0.0,0.0,0.0,0.0,0.0,0.0,0.0,0.0,0.0,0.0,0.0,0.0,0.0,0.0,0.0,0.0,0.0,0.0,0.0,0.0,0.0,0.0,0.0,0.0,0.0,0.0,0.0,0.0,0.0,0.0,0.0,0.0,0.0,0.0,0.0,0.0,0.0,0.0,0.0,0.0,0.0,0.0,0.0,0.0,0.0,4.8482,5.3908,5.8689,6.2292,6.4622,6.5312,6.5723,6.5942,6.3962,6.1627,0.0,0.0,0.0,0.0,0.0,0.0,0.0,0.0,0.0,0.0,0.0,0.0,0.0,0.0,0.0,0.0,0.0,0.0,0.0,0.0,0.0,0.0,0.0,0.0,0.0,0.0,0.0,0.0,4.4522,4.487,4.4556,0.0,0.0,0.0,0.0,0.0,0.0,0.0,0.0,0.0,0.0,5.9908,6.3237,6.4671,6.5842,6.7014,6.7203,6.6899,6.5836,6.4666,6.33,6.1424,0.0,0.0,0.0,0.0,0.0,0.0,0.0,0.0,0.0,0.0,0.0,0.0,0.0,0.0,0.0,0.0,0.0,0.0,0.0,0.0,0.0,0.0,0.0,0.0,0.0,0.0,0.0,0.0,0.0,0.0,3.2704,0.0,0.0,0.0,0.0,0.0,0.0,0.0,0.0,0.0,0.0,0.0,0.0,0.0,0.0,0.0,0.0,0.0,0.0,0.0,0.0,0.0,0.0,4.9566,5.5563,5.9261,6.2857,6.6243,6.5915,6.6057,6.6869,6.5385,6.3358,6.0704,0.0,0.0,0.0,0.0,0.0,0.0,0.0,0.0,0.0,0.0,0.0,0.0,0.0,0.0,0.0,0.0,0.0,0.0,0.0,0.0,0.0,0.0,0.0,0.0,0.0,0.0,4.6296,4.721,4.7057,0.0,0.0,0.0,0.0,0.0,0.0,0.0,0.0,0.0,0.0,5.9949,6.2523,6.4179,6.5914,6.7086,6.7162,6.7354,6.7428,6.739,6.5988,6.462,0.0,0.0,0.0,0.0,0.0,0.0,0.0,0.0,0.0,0.0,0.0,0.0,0.0,0.0,0.0,0.0,0.0,0.0,0.0,0.0,0.0,0.0,0.0,0.0,0.0,0.0,0.0,4.1276,3.9895,0.0,0.0,0.0,0.0,0.0,0.0,0.0,0.0,0.0,0.0,0.0,4.7647,4.8675,0.0,0.0,0.0,0.0,0.0,0.0,0.0,0.0,0.0,0.0,0.0,0.0,5.0949,5.6428,6.0623,6.3959,6.6434,6.7025,6.7208,6.6984,6.6026,6.3474,5.9242,0.0,0.0,0.0,0.0,0.0,0.0,0.0,0.0,0.0,0.0,0.0,0.0,0.0,0.0,0.0,0.0,0.0,0.0,0.0,0.0,0.0,0.0,0.0,0.0,0.0,4.6789,0.0,0.0,0.0,0.0,0.0,0.0,0.0,0.0,0.0,0.0,0.0,5.7635,6.0207,6.2824,6.5045,6.6701,6.795,6.8975,0.0,0.0,0.0,0.0,0.0,0.0,0.0,0.0,0.0,0.0,0.0,0.0,0.0,0.0,5.8079,5.3677,5.2531,5.2177,5.1964,0.0,0.0,0.0,0.0,0.0,0.0,0.0,0.0,0.0,0.0,0.0,0.0,0.0,0.0,0.0,0.0,4.3599,0.0,0.0,0.0,0.0,0.0,0.0,0.0,0.0,5.0005,5.1378,5.225,5.3272,5.3597,0.0,5.2454,4.9591,0.0,0.0,0.0,0.0,0.0,0.0,0.0,0.0,5.3147,5.7777,6.194,6.5052,6.6949,6.7782,6.8119,6.7895,6.6602,6.4051,6.0165,5.7319,5.478,0.0,0.0,0.0,0.0,0.0,0.0,0.0,0.0,0.0,0.0,0.0,0.0,0.0,0.0,0.0,0.0,0.0,0.0,0.0,0.0,0.0,0.0,0.0,4.993,0.0,0.0,0.0,0.0,0.0,0.0,0.0,0.0,0.0,5.6224,5.857,6.1258,6.3613,6.5649,6.7451,6.8847,0.0,0.0,0.0,0.0,0.0,0.0,0.0,6.9133,6.8146,6.6818,6.5942,6.5977,6.5834,6.5726,6.5689,0.0,0.0,5.8985,5.7636,5.7341,5.7155,5.7489,5.7782,5.7542,5.8127,5.8745,0.0,0.0,0.0,0.0,0.0,0.0,0.0,0.0,5.2781,5.2285,0.0,4.9037,0.0,0.0,0.0,0.0,0.0,4.873,0.0,0.0,5.4428,5.5862,5.7044,5.7074,5.7471,5.7997,5.7189,5.6014,5.4179,4.8967,0.0,0.0,0.0,0.0,0.0,0.0,5.6061,5.9723,6.3217,6.6026,6.7982,6.8195,6.8733,6.959,6.7244,6.5128,6.3358,6.0204,5.7627,5.5818,5.1048,0.0,0.0,0.0,0.0,0.0,0.0,0.0,0.0,0.0,0.0,0.0,0.0,0.0,0.0,0.0,0.0,0.0,0.0,0.0,0.0,5.3112,0.0,0.0,0.0,0.0,0.0,0.0,0.0,0.0,0.0,0.0,6.0463,6.2239,6.4444,6.686,0.0,0.0,0.0,0.0,7.2109,7.2233,7.2351,7.2469,7.2393,7.1711,7.1142,7.1104,0.0,0.0,6.9929,6.9853,6.9659,6.9655,6.9457,6.847,6.5195,6.38,6.3156,6.3038,6.2997,6.2949,6.273,6.3089,6.3594,6.1798,0.0,0.0,0.0,0.0,5.589,5.5966,5.5966,5.6004,5.5511,5.4638,5.3376,0.0,0.0,0.0,0.0,0.0,0.0,5.4894,5.6482,5.797,5.9107,5.9849,5.976,5.9825,6.0001,5.978,5.9071,5.7913,5.6418,5.3322,4.8862,0.0,0.0,0.0,0.0,5.8014,6.2142,6.4696,6.6902,6.8863,6.9604,6.9913,6.9706,6.7782,6.6244,6.5166,6.3051,6.0781,5.8473,5.528,0.0,0.0,0.0,0.0,0.0,0.0,0.0,0.0,0.0,0.0,0.0,0.0,0.0,0.0,0.0,0.0,0.0,0.0,0.0,5.3913,5.5037,5.5427,0.0,0.0,0.0,0.0,0.0,0.0,0.0,0.0,0.0,6.5766,6.6522,6.7577,0.0,0.0,7.1256,7.153,7.2369,7.2977,7.3103,7.3714,0.0,0.0,7.3037,7.2696,7.2128,7.1824,7.1673,7.1673,7.1594,7.1476,7.1474,7.1392,7.0969,7.0101,6.8542,6.7471,6.7348,6.7304,6.7261,6.7083,6.7179,6.7151,6.783,6.4294,6.1385,5.9983,5.9719,6.0059,6.0172,6.021,6.0513,5.9983,5.885,5.8051,5.6829,5.5329,5.4533,0.0,0.0,0.0,5.8313,5.9362,6.0252,6.0938,6.1456,6.1411,6.1505,6.1754,6.1422,6.1015,6.0444,6.0157,5.8356,5.4995,0.0,0.0,5.6588,5.8314,6.0717,6.3913,6.6208,6.7964,6.9306,7.0277,7.0431,6.9706,6.8359,6.7244,6.6397,6.4705,6.3128,6.155,5.8781,5.6203,0.0,0.0,0.0,0.0,0.0,0.0,0.0,0.0,0.0,0.0,0.0,4.6357,0.0,0.0,0.0,0.0,5.3044,5.5222,5.6911,5.7802,0.0,0.0,0.0,0.0,0.0,0.0,0.0,6.2429,6.4934,6.7276,6.8967,6.9796,7.055,7.1567,7.2046,7.2498,7.2886,0.0,7.3759,7.3888,7.4388,7.4582,7.4131,7.4017,7.3869,7.3492,7.3378,7.3378,7.3378,7.3298,7.3216,7.3216,7.3133,7.3048,7.3048,7.2052,7.1019,7.0367,7.0217,7.0128,6.9993,6.9855,6.9771,7.2695,7.1494,6.7193,6.4709,6.3729,6.4558,6.4822,6.4822,6.5539,6.5011,6.354,6.2784,6.1536,5.9911,5.9118,0.0,5.9845,6.0528,6.1129,6.1599,6.1674,6.1917,6.2316,6.2353,6.2632,6.3194,6.2466,6.217,6.2207,6.1505,6.1217,6.1345,5.9906,5.9218,5.9465,6.1916,6.3842,6.5192,6.7607,6.9098,6.9519,7.0392,7.0552,6.9821,6.8975,6.809,6.7205,6.5667,6.4743,6.4512,6.155,5.905,5.7319,0.0,0.0,0.0,0.0,0.0,0.0,0.0,0.0,0.0,0.0,0.0,0.0,0.0,0.0,0.0,5.69,0.0,6.0145,6.1012,0.0,0.0,0.0,6.1983,6.2758,6.4168,6.5046,6.5086,0.0,0.0,7.0729,7.2115,7.3138,7.3213,7.3086,7.3342,7.4305,7.4342,7.4425,7.4438,7.4557,7.4676,7.4804,7.4922,7.5077,7.5084,7.5046,7.4932,7.4973,7.4778,7.4695,7.4619,7.4649,7.4487,7.4525,7.4417,7.4029,7.2434,7.2127,7.204,7.1779,7.1724,7.164,7.4948,7.3521,7.2402,6.996,6.6921,6.7109,6.6845,6.6319,6.6469,6.6357,6.5905,6.5041,6.3839,6.2335,6.1506,6.128,6.1468,6.2183,6.2555,6.2582,6.3098,6.3382,6.3394,6.3305,6.3371,6.3474,6.3325,6.3502,6.3928,6.3873,6.4132,6.4726,6.4493,6.3854,6.2907,6.4284,6.5954,6.7693,6.8481,6.9365,7.0363,7.0738,7.0821,7.0629,6.9821,6.8975,6.8129,6.709,6.5897,6.4628,6.3205,6.1666,5.9973,5.6665,0.0,0.0,0.0,0.0,0.0,0.0,0.0,0.0,0.0,5.2466,5.2235,0.0,5.5681,0.0,5.9798,6.2015,6.2791,6.3524,0.0,0.0,6.4367,6.4443,6.5842,6.69,6.7652,6.8251,7.0051,7.1589,7.2252,7.2703,7.3191,7.383,7.3989,7.4109,7.438,7.438,7.438,7.45,7.5085,7.5556,7.5674,7.6289,7.6752,7.6875,7.6382,7.6004,7.6045,7.5513,7.5094,7.5056,7.5056,7.5055,7.5093,7.5017,7.4899,7.432,7.4039,7.3866,7.3733,7.3642,7.3504,7.6675,7.5774,7.5061,7.3183,7.0705,6.9954,6.9391,6.8978,6.8565,6.8227,6.7776,6.6612,6.5602,6.4778,6.4326,6.4138,6.4138,6.455,6.4694,6.457,6.4898,6.5036,6.4949,6.4815,6.477,6.477,6.4716,6.4893,6.5255,6.5338,6.5608,6.6054,6.6574,6.6635,6.6282,6.6616,6.7616,6.9133,7.0255,7.1134,7.1781,7.1583,7.1475,7.1437,7.0321,6.9475,6.8975,6.7782,6.6667,6.5743,6.4551,6.3281,6.1935,5.9396,5.7434,0.0,0.0,0.0,0.0,0.0,0.0,0.0,0.0,0.0,0.0,0.0,5.891,5.997,6.2635,6.4448,6.4772,6.5387,6.6296,6.7429,6.7086,6.7424,6.9042,6.9645,7.0056,7.0379,7.1545,7.2522,7.2845,7.3258,7.3784,7.461,7.4769,7.4816,7.4816,7.4899,7.5058,7.5434,7.5991,7.6425,7.6554,7.7055,7.7483,7.7526,7.7224,7.6959,7.696,7.6617,7.6313,7.6313,7.6313,7.6313,7.6313,7.6313,7.6274,7.6156,7.5956,7.5636,7.5155,7.5253,7.5426,7.799,7.7764,7.63,7.5249,7.4423,7.2845,7.2019,7.1644,7.0968,7.0179,6.9278,6.7664,6.695,6.6913,6.68,6.68,6.68,6.68,6.6721,6.6636,6.6593,6.655,6.6418,6.6292,6.6201,6.6201,6.6184,6.6212,6.6277,6.6286,6.6444,6.6686,6.7531,6.8451,6.9372,6.8913,6.9202,7.027,7.2176,7.32,7.32,7.2621,7.2283,7.2129,7.0783,6.9937,6.9667,6.8244,6.7398,6.7205,6.5667,6.4436,6.3628,6.1935,5.9973,0.0,5.6742,0.0,0.0,0.0,0.0,0.0,0.0,0.0,0.0,6.0393,6.1868,6.2991,6.5313,6.6622,6.6522,6.7203,6.8222,6.9652,6.98,7.0361,7.1664,7.1927,7.1958,7.1869,7.2583,7.3108,7.3296,7.3897,7.4648,7.5399,7.5549,7.5671,7.5746,7.5764,7.5999,7.6714,7.704,7.7376,7.7699,7.7862,7.8022,7.8064,7.7989,7.7874,7.7913,7.7799,7.7722,7.7761,7.7684,7.7684,7.7761,7.7722,7.7684,7.7608,7.7606,7.7252,7.6393,7.6451,7.6972,7.8478,7.7839,7.7577,7.6976,7.615,7.5136,7.3559,7.1719,7.1531,7.1006,7.0142,6.849,6.7739,6.7701,6.7063,6.68,6.68,6.68,6.6762,6.6758,6.6636,6.6593,6.655,6.6462,6.6336,6.6374,6.6374,6.6657,6.7235,6.729,6.797,6.9144,6.9602,7.0226,7.1012,0.0,0.0,0.0,7.2681,7.3035,7.32,7.3138,7.2803,7.2245,7.1898,0.0,6.9783,6.9398,6.8898,6.8167,6.6551,0.0,0.0,0.0,0.0,0.0,0.0,0.0,0.0,0.0,0.0,0.0,6.4589,6.4372,6.249,6.4315,6.5635,6.5727,6.7368,6.8631,6.9133,6.9735,7.0482,7.1388,7.1369,7.1426,7.1764,7.2327,7.2695,7.2695,7.3446,7.4235,7.4798,7.5061,7.5511,7.63,7.6413,7.6723,7.7457,7.6977,7.6676,7.6827,7.7703,7.8609,7.9381,7.9543,7.9588,7.9781,7.9286,7.8979,7.9014,7.855,7.8237,7.8275,7.8091,7.8094,7.8094,7.7984,7.8026,7.7798,7.8332,7.8444,7.7362,7.7117,7.7143,7.9266,0.0,7.8065,7.7652,0.0,7.6375,7.5061,7.3484,7.2658,7.1869,7.1006,6.9766,6.9241,6.9203,6.834,6.7964,6.8002,6.8002,6.8002,6.7964,6.7959,6.7878,6.7878,6.7747,6.7703,6.7703,6.7659,6.8016,6.8754,6.88,6.9481,7.0677,7.0817,7.1358,7.2191,7.2823,7.3128,7.3155,7.3832,7.4236,7.4298,7.4075,7.3774,7.3418,0.0,0.0,0.0,0.0,0.0,0.0,0.0,0.0,0.0,0.0,0.0,6.4551,6.3358,6.3205,6.4436,6.4551,6.5128,6.6397,6.8013,6.8037,6.5843,6.7122,6.8119,6.8345,6.9459,7.0418,7.1067,7.1363,7.1769,7.252,7.246,7.256,7.2973,7.3342,7.3672,7.4085,7.4498,7.5098,7.5887,7.6,7.6375,7.7126,7.7324,7.7683,7.8408,7.8003,7.7681,7.8239,7.8831,7.9457,8.004,8.0275,8.0392,8.043,8.0197,8.004,8.0072,7.9761,7.9527,7.9527,7.9493,7.942,7.942,7.9424,7.9354,7.9243,7.9514,7.9629,7.8975,7.8736,7.8528,7.998,7.9266,7.844,7.8102,7.8027,7.7201,7.6375,7.5511,0.0,0.0,0.0,7.1081,7.0705,7.0668,6.9954,6.9654,6.9654,6.9654,6.9654,6.9654,6.9654,6.9654,6.9654,6.9522,6.9439,6.9477,6.9424,6.9714,7.035,7.035,7.0845,7.1649,7.1724,7.2304,7.3334,7.4184,7.4476,7.4244,7.5171,7.5771,7.5921,7.5469,7.5127,7.4858,7.4264,7.3476,7.2437,7.1745,7.1052,7.0398,6.9552,6.9052,6.9052,6.8244,6.7782,6.7744,6.7167,6.7128,6.7936,6.8013,6.8359,6.9244,7.0591,7.0651,6.8973,6.9536,7.0178,7.0701,7.1284,7.1937,7.2546,7.2503,7.2762,7.3468,7.3414,7.3709,7.45,7.4515,7.4732,7.5483,7.5587,7.5924,7.6713,7.6826,7.7164,7.7926,7.8247,7.8568,7.9143,7.8942,7.8851,7.9642,7.9878,8.0116,8.0392,8.0468,8.058,8.0614,8.072,8.0826,8.0826,8.0826,8.0826,8.0745,8.0826,8.075,8.0788,8.0677,8.0796,8.0841,8.0808,8.0773,8.085,8.0654,8.0414,8.0318,8.013,7.9304,7.8928,7.8853,7.8065,7.7201,7.6262,7.3934,7.2845,7.2658,7.1907,7.1531,7.1531,7.1419,7.1381,7.1343,7.1343,7.1343,7.1381,7.1343,7.1343,7.1381,7.1299,7.1299,7.1299,7.1299,7.1329,7.1312,7.1441,7.1854,7.2557,7.2679,7.3521,7.4911,7.5313,7.5788,7.6488,7.63,7.6656,7.764,7.7735,7.7138,7.5818,7.5678,7.4899,7.3399,7.3206,7.3091,7.2976,7.2129,7.1668,7.1629,7.0821,7.036,7.036,7.0244,7.0591,7.136,7.1475,7.186,7.2706,7.3014,7.265,7.1513,7.2165,7.2576,7.2456,7.2536,7.2886,7.3497,7.3494,7.3677,7.4388,7.4374,7.4627,7.5456,7.5479,7.5689,7.6479,7.6498,7.6751,7.7587,7.7738,7.8038,7.8849,7.9133,7.934,7.9721,7.9665,7.967,7.9954,8.0195,8.0354,8.0468,8.0542,8.0614,8.0758,8.086,8.0855,8.0893,8.0959,8.1029,8.1061,8.0959,8.0926,8.0932,8.0826,8.1172,8.1674,8.1796,8.1879,8.2491,8.2454,8.2101,8.1181,8.0393,7.9942,7.9529,7.9041,7.8215,7.7689,7.7164,7.5624,7.4648,7.4122,7.2921,7.2357,7.232,7.1907,7.1681,7.1681,7.1681,7.1681,7.1681,7.1681,7.1681,7.1681,7.1681,7.1681,7.1681,7.1681,7.1862,7.2229,7.2312,7.2987,7.4141,7.4638,7.5286,7.6,7.6122,7.6676,7.7651,7.7164,7.7146,7.7837,7.8058,7.785,7.7214,7.7278,7.6763,7.5592,7.5553,7.513,7.4207,7.3783,7.336,7.2899,7.2514,7.2322,7.2322,7.2322,7.2476,7.286,7.2899,7.3091,7.3476,7.3899,7.3957,7.3445,7.3269,7.3329,7.3624,7.3559,7.3796,7.4523,7.4486,7.471,7.5504,7.5414,7.5626,7.6381,7.6444,7.6693,7.7447,7.7551,7.7852,7.8634,7.8746,7.8869,7.9369,7.9802,8.0522,8.116,8.1364,8.1144,8.0464,8.0353,8.0431,8.0543,8.0614,8.0758,8.086,8.0926,8.0991,8.0991,8.1061,8.1093,8.1093,8.1061,8.1183,8.1529,8.1612,8.1963,8.2621,8.2817,8.2978,8.3177,8.3372,8.3173,8.2184,8.1019,8.0605,7.9966,7.9139,7.8538,7.8274,7.8162,7.7324,7.6573,7.5822,7.4197,7.3446,7.3371,7.2658,7.2282,7.2282,7.2282,7.2282,7.2282,7.2282,7.2282,7.2282,7.2282,7.2282,7.232,7.2432,7.2883,7.3409,7.3634,7.4385,7.5662,7.6338,7.6713,7.6901,7.6901,7.7457,7.8444,7.8057,7.7931,7.8254,7.8446,7.8553,7.8535,7.8634,7.8346,7.76,7.7592,7.6938,7.5668,7.5553,7.5284,7.4668,7.463,7.463,7.463,7.463,7.463,7.463,7.463,7.463,7.4668,7.5207,7.5524,7.5426,7.4827,7.4427,7.4604,7.4507,7.4781,7.5434,7.5437,7.5703,7.65,7.6414,7.663,7.7387,7.7408,7.7621,7.8414,7.8602,7.8821,7.9349,7.9651,7.9924,8.0272,8.0908,8.1729,8.2471,8.279,8.226,8.1499,8.1041,8.1041,8.0958,8.1065,8.109,8.1036,8.0991,8.1061,8.1093,8.1093,8.1246,8.1323,8.14,8.1747,8.2401,8.2593,8.2945,8.3572,8.3769,8.3777,8.3905,8.4136,8.405,8.3073,8.2696,8.1339,8.0208,7.9491,7.934,7.9303,7.9189,7.838,7.7918,7.7617,7.5934,7.5136,7.5061,7.431,7.3934,7.3934,7.3972,7.3934,7.3897,7.3972,7.3972,7.3934,7.3934,7.3972,7.4047,7.4648,7.4948,7.5136,7.5849,7.6338,7.6563,7.6675,7.7089,7.7689,7.7764,7.836,7.9349,7.9358,7.9545,7.9967,8.0163,7.9931,7.9312,7.9484,7.916,7.8391,7.8369,7.8323,7.8169,7.8092,7.8092,7.7977,7.7977,7.7977,7.7938,7.7938,7.8054,7.7977,7.8015,7.79,7.8015,7.7938,7.8015,7.8015,7.7885,7.7176,7.5978,7.5523,7.5841,7.6386,7.6426,7.6732,7.7455,7.745,7.7673,7.8432,7.8452,7.8624,7.9494,7.9441,7.9425,7.966,8.0188,8.0998,8.1824,8.2147,8.2585,8.3018,8.3138,8.3218,8.2989,8.295,8.2604,8.2099,8.1973,8.1848,8.133,8.117,8.1285,8.14,8.1362,8.1285,8.2093,8.2208,8.2516,8.3131,8.3478,8.3785,8.4484,8.4724,8.4736,8.5245,8.5322,8.4897,8.365,8.316,8.2481,8.1387,8.0255,7.9726,7.95,7.9462,7.9114,7.8963,7.8766,7.758,7.6695,7.6075,7.5286,7.4911,7.4873,7.4423,7.4197,7.4197,7.4197,7.446,7.4873,7.4911,7.5136,7.5624,7.6,7.615,7.6262,7.6938,7.7389,7.7464,7.7877,7.829,7.8628,7.9116,7.9677,8.0217,8.0707,8.1158,8.1402,8.073,8.0201,8.0084,8.0152,8.0136,7.9928,7.9921,7.9722,7.9323,7.9285,7.9054,7.8515,7.8477,7.8477,7.8477,7.8477,7.8477,7.8477,7.8477,7.8477,7.8477,7.8477,7.8477,7.8477,7.8485,7.8077,7.7412,7.716,7.7211,7.7447,7.7377,7.7646,7.8332,7.8406,7.8631,7.9505,7.9457,7.9524,7.9903,8.0189,8.0447,8.056,8.1211,8.2178,8.3069,8.3388,8.3628,8.4205,8.4478,8.4595,8.4671,8.4782,8.4241,8.3201,8.289,8.2803,8.2638,8.2593,8.2593,8.2477,8.2554,8.2708,8.3016,8.3054,8.3401,8.4209,8.4401,8.4632,8.5253,8.5527,8.5539,8.5741,8.5667,8.536,8.4249,8.3682,8.3503,8.2603,8.1203,8.0364,7.9978,7.994,7.9706,7.9546,7.9471,7.8766,7.8069,7.7297,7.6235,7.5737,7.5662,7.5136,7.4873,7.4873,7.4873,7.5173,7.5699,7.5737,7.6037,7.6563,7.6901,7.7126,7.7314,7.7877,7.8328,7.8628,7.9154,7.9567,7.983,8.0468,8.0793,8.0989,8.1688,8.2132,8.2216,8.1364,8.0961,8.1156,8.1268,8.1374,8.1512,8.1546,8.1343,8.083,8.083,8.0554,7.9939,7.99,7.9785,7.9554,7.9323,7.9208,7.9208,7.9208,7.9208,7.9208,7.9208,7.9208,7.9208,7.9208,7.9177,7.9114,7.8947,7.8807,7.8467,7.8326,7.8635,7.9362,7.9362,7.9588,8.0159,8.0307,8.0376,8.0452,8.1051,8.1653,8.1962,8.2499,8.3269,8.4158,8.4431,8.4666,8.5278,8.5552,8.5666,8.578,8.5887,8.5382,8.4114,8.3841,8.3835,8.3599,8.3478,8.3439,8.3593,8.3555,8.3824,8.3747,8.3901,8.4247,8.4978,8.5247,8.5286,8.5824,8.6065,8.5996,8.5887,8.5779,8.582,8.4924,8.4816,8.422,8.3426,8.2513,8.163,8.1165,8.1051,8.0151,7.9721,7.9683,7.9471,7.9387,7.9114,7.742,7.66,7.6638,7.645,7.6338,7.6375,7.6375,7.6488,7.6563,7.66,7.6638,7.6949,7.755,7.8264,7.8891,7.9079,7.9454,8.0205,8.0318,8.0693,8.1294,8.1482,8.1608,8.1758,8.2055,8.2151,8.2301,8.2412,8.2551,8.2794,8.2913,8.2949,8.3024,8.3166,8.3192,8.3192,8.3215,8.3285,8.3247,8.3208,8.2785,8.2093,8.1362,8.0977,8.0977,8.0977,8.0977,8.0977,8.0977,8.0977,8.0977,8.0977,8.0977,8.0977,8.0844,8.0471,7.9791,7.9424,7.966,8.0387,8.043,8.0392,8.0468,8.1073,8.1299,8.1451,8.2098,8.2855,8.3654,8.3887,8.431,8.4965,8.5273,8.5393,8.5552,8.5705,8.5817,8.5926,8.5919,8.5689,8.4844,8.4758,8.4445,8.4247,8.4132,8.3785,8.3632,8.367,8.417,8.4516,8.4709,8.5132,8.5747,8.6017,8.594,8.6132,8.6286,8.6219,8.623,8.5967,8.6125,8.5094,8.5018,8.4344,8.3811,8.343,8.2589,8.1904,8.133,8.0984,8.0444,7.9941,7.9734,7.9683,7.9554,7.885,7.8107,7.757,7.7006,7.6695,7.66,7.6695,7.7043,7.7532,7.7702,7.8003,7.8455,7.8756,7.9321,8.0112,8.064,8.1043,8.1219,8.1294,8.1433,8.1632,8.212,8.2434,8.2624,8.3125,8.3564,8.3767,8.3869,8.405,8.4187,8.3404,8.3104,8.3179,8.3323,8.3355,8.3423,8.3522,8.3593,8.3593,8.3593,8.3478,8.317,8.2862,8.2708,8.2708,8.2708,8.2708,8.2708,8.2708,8.2631,8.2708,8.267,8.2708,8.267,8.2638,8.2413,8.1996,8.1057,8.0608,8.1265,8.1383,8.1538,8.1996,8.2262,8.2373,8.2487,8.3015,8.3891,8.4584,8.4889,8.5044,8.5473,8.5589,8.5667,8.5742,8.5815,8.5926,8.5996,8.6026,8.5983,8.5714,8.5637,8.5555,8.5401,8.5247,8.5209,8.5132,8.5016,8.5363,8.5324,8.5517,8.5593,8.6055,8.6209,8.6247,8.6286,8.6401,8.6868,8.6799,8.6847,8.7234,8.5304,8.519,8.4695,8.4507,8.4393,8.3552,8.2828,8.2215,8.1949,8.1296,8.0566,8.033,8.013,7.9854,7.9728,7.929,7.8586,7.7974,7.7617,7.757,7.7617,7.7965,7.8502,7.8624,7.9085,7.984,8.0179,8.0594,8.1122,8.1688,8.2055,8.2221,8.2172,8.231,8.2509,8.2946,8.3298,8.3514,8.4016,8.4381,8.4568,8.4722,8.4825,8.481,8.4077,8.3712,8.3869,8.402,8.409,8.4161,8.4302,8.4368,8.4401,8.4132,8.4016,8.4016,8.3747,8.3593,8.3593,8.3593,8.3555,8.3593,8.3593,8.3593,8.3593,8.3593,8.3593,8.3593,8.3593,8.3593,8.3401,8.2419,8.1935,8.2329,8.237,8.2564,8.3027,8.3295,8.3601,8.3868,8.4248,8.4859,8.5357,8.5511,8.559,8.5743,8.5704,8.5742,8.5852,8.5923,8.6031,8.6031,8.6099,8.6094,8.5978,8.594,8.594,8.5824,8.5786,8.5978,8.6094,8.6094,8.6094,8.6094,8.6094,8.6094,8.617,8.6363,8.6478,8.6555,8.7171,8.7752,8.7837,8.7996,8.8307,8.5469,8.5511,8.5511,8.5435,8.5282,8.4515,8.4131,8.3786,8.3094,8.2253,8.1451,8.1375,8.0798,8.0182,8.0026,7.9827,7.9614,7.9328,7.9236,7.9189,7.9311,7.9349,7.95,7.9546,8.0008,8.0839,8.1585,8.2,8.2038,8.2227,8.2642,8.3085,8.3137,8.3339,8.4205,8.3975,8.4035,8.4087,8.4177,8.4317,8.4331,8.453,8.4722,8.4825,8.4899,8.5071,8.5235,8.5475,8.5512,8.5624,8.5769,8.5954,8.5786,8.5286,8.4901,8.4786,8.417,8.3708,8.3708,8.3785,8.3862,8.3862,8.3747,8.3862,8.3939,8.3862,8.3862,8.3901,8.3862,8.3785,8.3824,8.367,8.3528,8.3461,8.3393,8.3361,8.3592,8.409,8.4857,8.5396,8.5551,8.5666,8.5741,8.5779,8.5779,8.5815,8.5815,8.5852,8.5923,8.6031,8.5992,8.606,8.6094,8.6094,8.6094,8.6094,8.6094,8.6055,8.6017,8.6094,8.6094,8.6094,8.6094,8.6094,8.6094,8.6132,8.6555,8.6786,8.7171,8.7401,8.8094,8.8632,8.8756,8.8913,8.9186,8.5628,8.5666,8.5666,8.5704,8.5666,8.5398,8.494,8.4328,8.3983,8.3293,8.2411,8.1801,8.1301,8.0877,8.0421,8.0113,8.003,7.9988,7.9816,7.963,7.963,7.9978,8.0439,8.0687,8.1192,8.2076,8.2861,8.3233,8.3309,8.371,8.4155,8.4211,8.4066,8.4117,8.428,8.4163,8.411,8.411,8.4163,8.4215,8.4317,8.4469,8.4627,8.4722,8.4954,8.5094,8.5262,8.5511,8.5743,8.5815,8.5923,8.6031,8.6022,8.5863,8.5747,8.5709,8.5478,8.5324,8.5324,8.5286,8.5247,8.5286,8.5286,8.5324,8.5324,8.5286,8.5247,8.5286,8.5324,8.5324,8.5324,8.5324,8.4983,8.4383,8.4272,8.4468,8.4816,8.5202,8.5509,8.57,8.5779,8.5779,8.5815,8.5815,8.5928,8.6,8.6,8.6073,8.6103,8.6291,8.606,8.6094,8.6094,8.6209,8.6286,8.6247,8.6094,8.6094,8.6094,8.6094,8.6094,8.6094,8.6094,8.6132,8.6132,8.6401,8.6824,8.7363,8.7825,8.8363,8.8979,8.9325,8.9556,8.9755,9.0029,8.5742,8.5777,8.5777,8.5777,8.5777,8.5777,8.5472,8.4939,8.49,8.4366,8.3486,8.2913,8.2376,8.1913,8.1418,8.1187,8.1109,8.1147,8.0984,8.0649,8.039,8.0813,8.1572,8.2119,8.2547,8.324,8.3954,8.4334,8.4328,8.4734,8.4909,8.4816,8.4627,8.4481,8.4368,8.4229,8.4163,8.411,8.411,8.4163,8.4266,8.4368,8.4632,8.5043,8.5318,8.5652,8.6056,8.6386,8.6432,8.6355,8.6655,8.6953,8.7055,8.7094,8.694,8.6632,8.6555,8.644,8.617,8.6017,8.6094,8.6094,8.6094,8.6094,8.6094,8.6094,8.6094,8.6094,8.6055,8.6094,8.6055,8.6094,8.5791,8.5296,8.5224,8.5416,8.5846,8.5887,8.5887,8.5923,8.5887,8.5887,8.5923,8.6268,8.6419,8.6492,8.6795,8.7026,8.7094,8.7132,8.7017,8.6901,8.6824,8.6824,8.6632,8.6401,8.6132,8.6094,8.6094,8.6094,8.6094,8.6094,8.6094,8.6286,8.6363,8.6786,8.7248,8.8171,8.8825,8.9325,8.9787,9.0171,9.0441,9.0598,9.0757,8.5742,8.5815,8.5815,8.5852,8.5813,8.5852,8.5813,8.5777,8.5739,8.5281,8.4557,8.425,8.3792,8.3103,8.2759,8.2604,8.2713,8.252,8.2558,8.2444,8.2101,8.2101,8.2783,8.3544,8.3967,8.4196,8.4762,8.5181,8.5295,8.5203,8.512,8.5303,8.5148,8.4854,8.4896,8.4557,8.4515,8.4486,8.4373,8.4411,8.4426,8.4492,8.4896,8.5776,8.6047,8.6548,8.7268,8.7671,8.761,8.7198,8.7846,8.8298,8.8594,8.8671,8.8132,8.7517,8.7478,8.7094,8.6517,8.6555,8.6478,8.6517,8.6517,8.6247,8.6517,8.6594,8.6594,8.6555,8.6478,8.6401,8.644,8.644,8.6401,8.6286,8.6099,8.6022,8.617,8.618,8.63,8.6372,8.6219,8.6223,8.6483,8.706,8.7363,8.7594,8.8017,8.8248,8.8363,8.8248,8.8517,8.8248,8.7709,8.7594,8.7478,8.7325,8.7055,8.7055,8.6863,8.6594,8.6401,8.6324,8.6401,8.6555,8.694,8.7325,8.7902,8.8863,8.9594,9.0017,9.0517,9.1018,9.1171,9.1136,9.1136,8.5996,8.6026,8.6026,8.6026,8.6026,8.6026,8.5992,8.5923,8.5961,8.5737,8.5357,8.4782,8.4439,8.4096,8.3448,8.3104,8.3181,8.3027,8.3332,8.379,8.3715,8.3599,8.39,8.4584,8.5044,8.5123,8.5311,8.5651,8.6185,8.6089,8.6222,8.6829,8.6483,8.6403,8.6292,8.6077,8.6034,8.5875,8.5837,8.58,8.58,8.5906,8.6214,8.6518,8.6744,8.7099,8.7597,8.839,8.8527,8.8079,8.8267,8.8528,8.8786,8.8786,8.8671,8.844,8.8325,8.8248,8.8055,8.794,8.7979,8.8017,8.7825,8.8017,8.8017,8.7979,8.8017,8.8017,8.8017,8.794,8.7979,8.794,8.794,8.7863,8.6978,8.6478,8.6901,8.7022,8.7252,8.7863,8.7906,8.7863,8.7902,8.8094,8.8325,8.8402,8.8632,8.8863,8.9017,8.8979,8.9094,8.8786,8.8402,8.8402,8.8325,8.8209,8.8132,8.8209,8.794,8.744,8.7094,8.6786,8.6978,8.7171,8.7863,8.8325,8.8902,8.9671,9.0171,9.0633,9.0864,9.121,9.121,9.1171,9.1171,8.5992,8.6094,8.6094,8.6094,8.6094,8.6094,8.606,8.6065,8.6065,8.5996,8.5772,8.5427,8.5161,8.5049,8.4516,8.4324,8.4286,8.4174,8.4481,8.4863,8.4939,8.4901,8.4978,8.5398,8.5704,8.6048,8.6046,8.6503,8.7069,8.7052,8.723,8.7407,8.7421,8.7182,8.682,8.6844,8.6727,8.653,8.6476,8.6476,8.6476,8.6567,8.69,8.7208,8.7512,8.7787,8.8585,8.9305,8.952,8.9419,8.9458,8.9532,8.964,8.9748,8.9594,8.9286,8.921,8.9094,8.8748,8.8671,8.8671,8.8671,8.8671,8.8671,8.8632,8.8671,8.8671,8.8632,8.8671,8.8671,8.8671,8.8671,8.8671,8.8517,8.7786,8.7401,8.7902,8.794,8.8171,8.8517,8.8671,8.8671,8.8709,8.8979,8.9171,8.9286,8.9633,8.9787,8.9863,8.971,8.9633,8.9517,8.9286,8.921,8.9056,8.8863,8.8748,8.8863,8.8863,8.8363,8.8094,8.7632,8.7709,8.8094,8.8786,8.9325,8.9787,9.021,9.0633,9.0979,9.1171,9.121,9.121,9.121,9.121,8.5923,8.6094,8.6094,8.6094,8.6094,8.6094,8.6094,8.6094,8.6094,8.6065,8.5992,8.5992,8.5808,8.5852,8.5583,8.57,8.57,8.5472,8.5624,8.57,8.57,8.5739,8.5969,8.6009,8.6317,8.6738,8.693,8.7502,8.7995,8.8061,8.8009,8.8188,8.8015,8.763,8.7563,8.7348,8.7042,8.7072,8.7039,8.7077,8.7077,8.7077,8.7485,8.8059,8.8291,8.8896,8.9687,9.0219,9.0355,9.0641,9.0837,9.0762,9.0912,9.1062,9.0825,9.021,9.0017,8.9787,8.921,8.921,8.9056,8.9171,8.9133,8.894,8.9171,8.9248,8.9248,8.9286,8.8979,8.9171,8.9171,8.9056,8.9171,8.921,8.9017,8.8979,8.894,8.8863,8.8825,8.894,8.8979,8.894,8.9133,8.9517,9.0017,9.0056,9.0402,9.0517,9.0594,9.0556,9.0594,9.071,9.0402,9.0056,8.9787,8.9517,8.9402,8.9363,8.9479,8.9325,8.9248,8.894,8.8825,8.9056,8.9633,8.994,9.0171,9.0633,9.1018,9.1133,9.1171,9.121,9.121,9.121,9.121,8.5992,8.6094,8.6094,8.6094,8.6094,8.6094,8.6094,8.6094,8.6094,8.606,8.606,8.606,8.606,8.6026,8.5996,8.5961,8.5961,8.5887,8.5852,8.5961,8.5961,8.6453,8.6838,8.6885,8.6927,8.7274,8.7696,8.8384,8.8917,8.9023,8.912,8.952,8.9315,8.927,8.8986,8.8683,8.8753,8.8592,8.8446,8.8316,8.8278,8.8316,8.8446,8.8872,8.9084,8.9464,8.9944,9.0167,9.034,9.047,9.0758,9.103,9.0991,9.11,9.1056,9.0941,9.0864,9.0787,9.0671,9.0517,9.0633,9.0479,9.0441,9.0671,9.0671,9.0556,9.0594,9.0633,9.0671,9.0479,9.0441,9.0594,9.0517,9.0441,9.0479,9.0517,9.0517,9.0056,8.994,9.0364,9.0517,9.0633,9.0594,9.0594,9.0864,9.0941,9.1018,9.1171,9.121,9.121,9.121,9.121,9.1018,9.0594,9.0517,9.0287,9.0171,9.0056,9.0094,9.0171,9.0094,8.9979,8.9748,8.994,9.0402,9.0633,9.0671,9.0825,9.1171,9.1171,9.121,9.121,9.121,9.121,9.121,8.5996,8.6065,8.606,8.6094,8.6094,8.6094,8.6094,8.6094,8.6094,8.6094,8.6094,8.6094,8.6094,8.6094,8.6099,8.6065,8.6065,8.5992,8.5958,8.6065,8.6065,8.656,8.7368,8.776,8.7958,8.8344,8.8767,8.9382,8.9839,8.9909,9.0012,9.0257,9.0121,8.9821,8.9729,8.9489,8.9295,8.9136,8.9102,8.8992,8.8992,8.8992,8.9047,8.9173,8.9386,8.9642,8.9925,9.0532,9.0822,9.1037,9.125,9.1222,9.103,9.1064,9.11,9.121,9.121,9.121,9.1171,9.121,9.1133,9.121,9.121,9.121,9.121,9.121,9.121,9.121,9.1171,9.1171,9.121,9.1171,9.121,9.121,9.121,9.121,9.1095,9.0787,9.0633,9.1095,9.1095,9.1095,9.1171,9.121,9.1171,9.1056,9.1056,9.121,9.121,9.121,9.121,9.121,9.121,9.1095,9.1095,9.1018,9.0941,9.0825,9.0787,9.0825,9.0787,9.0671,9.0556,9.0748,9.0864,9.0979,9.1018,9.1171,9.121,9.121,9.121,9.121,9.121,9.121,9.121,8.5887,8.5996,8.606,8.6094,8.6094,8.6094,8.6094,8.6094,8.6094,8.6094,8.6094,8.6094,8.6094,8.6094,8.6094,8.6094,8.6094,8.6094,8.606,8.606,8.6363,8.694,8.7709,8.8444,8.9217,8.995,8.9952,9.0302,9.0569,9.0681,9.044,9.0383,9.025,9.0029,8.979,8.9541,8.9333,8.9227,8.9102,8.8992,8.8992,8.8992,8.9085,8.9512,8.9673,8.998,9.0461,9.1121,9.1735,9.1871,9.2045,9.1791,9.1413,9.0992,9.1064,9.1136,9.1136,9.121,9.121,9.121,9.121,9.121,9.121,9.121,9.121,9.121,9.121,9.121,9.121,9.121,9.121,9.121,9.121,9.121,9.121,9.121,9.121,9.121,9.1171,9.1171,9.121,9.121,9.121,9.121,9.121,9.121,9.121,9.121,9.121,9.121,9.121,9.121,9.121,9.121,9.121,9.121,9.121,9.121,9.121,9.121,9.121,9.1056,9.0902,9.1018,9.1133,9.121,9.121,9.121,9.121,9.121,9.121,9.121,9.121,9.121,9.121,8.5887,8.5996,8.606,8.6094,8.6094,8.6094,8.6094,8.6094,8.6094,8.6094,8.6094,8.6094,8.6094,8.6094,8.6094,8.6094,8.6094,8.6094,8.6132,8.6324,8.6786,8.7555,8.8479,8.9171,9.0094,9.0752,9.0795,9.0761,9.0762,9.0759,9.0638,9.0427,9.025,9.0113,8.9887,8.9591,8.9386,8.928,8.9157,8.8992,8.8992,8.9104,8.9536,9.0152,9.0373,9.0797,9.1534,9.205,9.2395,9.2573,9.2672,9.2771,9.2518,9.1721,9.1221,9.1141,9.1175,9.121,9.121,9.121,9.121,9.121,9.121,9.121,9.121,9.121,9.121,9.121,9.121,9.121,9.121,9.121,9.121,9.121,9.121,9.121,9.121,9.121,9.121,9.121,9.121,9.121,9.121,9.121,9.121,9.121,9.121,9.121,9.121,9.121,9.121,9.121,9.121,9.121,9.121,9.121,9.121,9.121,9.121,9.121,9.121,9.121,9.121,9.121,9.121,9.121,9.121,9.121,9.121,9.121,9.121,9.121,9.121,9.121,9.1325,8.5815,8.5887,8.5992,8.606,8.6094,8.6094,8.6094,8.6094,8.6094,8.6094,8.6094,8.6094,8.6094,8.6094,8.6094,8.6094,8.6094,8.6094,8.6363,8.6786,8.7248,8.8132,8.9171,8.9748,9.0402,9.0944,9.11,9.1028,9.0915,9.0838,9.0679,9.047,9.0295,9.0159,9.002,8.9642,8.9475,8.9371,8.9194,8.9029,8.9104,8.9367,9.0137,9.0756,9.1186,9.1483,9.1945,9.2772,9.3086,9.3269,9.3495,9.3594,9.3382,9.2827,9.1989,9.1757,9.1408,9.121,9.121,9.121,9.121,9.121,9.121,9.121,9.121,9.121,9.121,9.121,9.121,9.121,9.121,9.121,9.121,9.121,9.121,9.121,9.121,9.121,9.121,9.121,9.121,9.121,9.121,9.121,9.121,9.121,9.121,9.121,9.121,9.121,9.121,9.121,9.121,9.121,9.121,9.121,9.121,9.121,9.121,9.121,9.121,9.121,9.121,9.121,9.121,9.121,9.121,9.121,9.121,9.121,9.121,9.121,9.121,9.1248,9.1364,8.5704,8.5779,8.5961,8.6031,8.606,8.6094,8.6094,8.6094,8.6094,8.6094,8.6094,8.6094,8.6094,8.6094,8.6094,8.6094,8.6094,8.6094,8.6555,8.7248,8.7671,8.8517,8.9556,9.0171,9.0556,9.1095,9.121,9.1103,9.0954,9.0915,9.0798,9.0593,9.034,9.0205,9.0113,8.9906,8.9664,8.9619,8.9608,8.948,8.9667,9.0118,9.0869,9.162,9.1847,9.2089,9.2684,9.335,9.3858,9.4008,9.424,9.438,9.4319,9.3808,9.3251,9.2757,9.1946,9.1521,9.1441,9.121,9.121,9.121,9.121,9.121,9.121,9.121,9.121,9.121,9.121,9.121,9.121,9.121,9.121,9.121,9.121,9.121,9.121,9.121,9.121,9.121,9.121,9.121,9.121,9.121,9.121,9.121,9.121,9.121,9.121,9.121,9.121,9.121,9.121,9.121,9.121,9.121,9.121,9.121,9.121,9.121,9.121,9.121,9.121,9.121,9.121,9.121,9.121,9.121,9.121,9.121,9.121,9.121,9.121,9.1325,9.1479,8.5667,8.5704,8.5926,8.5996,8.5992,8.606,8.6094,8.6094,8.6094,8.6094,8.6094,8.6094,8.6094,8.6094,8.6094,8.6094,8.6094,8.6247,8.6709,8.7555,8.8248,8.9056,8.9979,9.0748,9.0902,9.121,9.121,9.1103,9.0954,9.0915,9.0798,9.0593,9.034,9.0243,9.0388,9.0323,9.0518,9.0615,9.0925,9.1132,9.1169,9.1282,9.177,9.2391,9.2711,9.3106,9.367,9.419,9.4424,9.4718,9.4953,9.5087,9.5112,9.4687,9.4474,9.3983,9.3179,9.2254,9.2136,9.171,9.1248,9.1248,9.121,9.121,9.1175,9.1175,9.1175,9.121,9.121,9.1175,9.1175,9.121,9.121,9.121,9.121,9.121,9.121,9.121,9.121,9.121,9.121,9.121,9.121,9.121,9.121,9.121,9.121,9.121,9.121,9.121,9.121,9.121,9.121,9.121,9.121,9.121,9.121,9.121,9.121,9.121,9.121,9.121,9.121,9.121,9.121,9.121,9.121,9.121,9.121,9.121,9.121,9.121,9.121,9.1364,9.1518,8.5551,8.5667,8.5817,8.589,8.5996,8.5992,8.6099,8.6094,8.6094,8.6094,8.6094,8.6094,8.6094,8.6094,8.6094,8.6094,8.6209,8.6594,8.7286,8.8132,8.8979,8.9787,9.0556,9.1018,9.1171,9.121,9.1175,9.1103,9.0992,9.0877,9.0798,9.0593,9.0378,9.051,9.073,9.0739,9.1023,9.1256,9.1489,9.1695,9.2033,9.2258,9.2596,9.3347,9.3443,9.3784,9.418,9.4404,9.4567,9.4793,9.5034,9.5191,9.5248,9.5165,9.5194,9.5163,9.4209,9.3294,9.2597,9.2172,9.1787,9.129,9.1139,9.1064,9.1028,9.1066,9.1066,9.1029,9.0991,9.1029,9.1066,9.1064,9.1064,9.11,9.1139,9.1175,9.121,9.121,9.121,9.121,9.121,9.121,9.121,9.121,9.121,9.121,9.121,9.121,9.121,9.121,9.121,9.121,9.121,9.121,9.121,9.121,9.121,9.121,9.121,9.121,9.121,9.121,9.121,9.121,9.121,9.121,9.121,9.121,9.121,9.121,9.121,9.121,9.121,9.1325,9.1748,8.5429,8.5628,8.5667,8.5817,8.5926,8.5958,8.6031,8.606,8.6094,8.6094,8.6094,8.6094,8.6094,8.6094,8.6132,8.6247,8.6478,8.7094,8.8017,8.8902,8.9633,9.0325,9.0902,9.121,9.121,9.121,9.121,9.1103,9.0954,9.0877,9.0798,9.0631,9.034,9.0707,9.1169,9.132,9.1483,9.2428,9.2373,9.2559,9.2934,9.3047,9.3385,9.376,9.4044,9.4044,9.4217,9.4349,9.4459,9.4674,9.4984,9.5143,9.5239,9.5341,9.5528,9.5538,9.4972,9.4288,9.3486,9.287,9.2407,9.1948,9.1642,9.1797,9.1683,9.1414,9.1222,9.1337,9.0954,9.0954,9.0915,9.0953,9.0991,9.0991,9.1028,9.1139,9.1175,9.1139,9.1175,9.121,9.121,9.121,9.121,9.121,9.121,9.121,9.121,9.121,9.121,9.121,9.121,9.121,9.121,9.121,9.121,9.121,9.121,9.121,9.121,9.121,9.121,9.121,9.121,9.121,9.121,9.121,9.121,9.121,9.121,9.121,9.121,9.121,9.1248,9.1402,9.2172,8.5181,8.5429,8.5628,8.5705,8.5743,8.5887,8.5996,8.5992,8.606,8.6094,8.6094,8.6094,8.6094,8.6094,8.617,8.6517,8.7286,8.7363,8.8363,8.9325,8.9979,9.0517,9.0979,9.121,9.121,9.121,9.121,9.1103,9.0954,9.0915,9.0798,9.0593,9.034,9.0822,9.1473,9.2001,9.2559,9.3332,9.3481,9.3535,9.3723,9.376,9.3873,9.3911,9.3986,9.4044,9.418,9.4293,9.4459,9.4567,9.4844,9.5094,9.5191,9.5371,9.5554,9.561,9.5615,9.501,9.4443,9.3754,9.3332,9.3216,9.3063,9.2871,9.2676,9.2256,9.2104,9.195,9.1604,9.126,9.1107,9.0954,9.1299,9.1376,9.149,9.1298,9.1258,9.1066,9.1103,9.1175,9.121,9.1136,9.121,9.121,9.121,9.121,9.121,9.121,9.121,9.121,9.121,9.121,9.121,9.121,9.121,9.121,9.121,9.121,9.121,9.121,9.121,9.121,9.121,9.121,9.121,9.121,9.121,9.121,9.121,9.121,9.121,9.1287,9.1787,9.2249,9.3172,8.5006,8.5181,8.5429,8.5589,8.5705,8.578,8.5815,8.5887,8.5958,8.606,8.6094,8.6094,8.6094,8.6094,8.6132,8.6594,8.7401,8.8017,8.8902,8.9787,9.0441,9.0864,9.1171,9.121,9.121,9.121,9.121,9.1103,9.0915,9.0915,9.0758,9.0593,9.034,9.1202,9.1919,9.2744,9.3539,9.3764,9.3986,9.3986,9.3986,9.3986,9.3986,9.3986,9.3986,9.4044,9.4065,9.418,9.4349,9.4513,9.4741,9.4946,9.5143,9.5286,9.5463,9.5643,9.5724,9.5495,9.5236,9.4554,9.3943,9.3366,9.3249,9.3325,9.3395,9.2898,9.2745,9.2592,9.2362,9.2018,9.2209,9.2289,9.2368,9.2217,9.1988,9.1721,9.1529,9.1337,9.1183,9.1333,9.1216,9.11,9.1136,9.121,9.121,9.121,9.121,9.121,9.121,9.121,9.121,9.121,9.121,9.121,9.121,9.121,9.121,9.121,9.121,9.121,9.121,9.121,9.121,9.121,9.121,9.121,9.121,9.121,9.121,9.121,9.1325,9.1479,9.2133,9.2941,9.3941,8.4825,8.4961,8.5219,8.5391,8.5628,8.5705,8.5704,8.5779,8.5887,8.5958,8.606,8.606,8.606,8.6094,8.6132,8.6824,8.7709,8.844,8.9325,9.0171,9.0864,9.1171,9.121,9.121,9.121,9.121,9.1175,9.1066,9.0915,9.0877,9.0717,9.0513,9.0416,9.1081,9.2119,9.3388,9.3973,9.4027,9.3986,9.3986,9.3986,9.3986,9.3986,9.3986,9.3986,9.3986,9.4044,9.4122,9.4293,9.4459,9.4674,9.4844,9.5094,9.5239,9.5417,9.5509,9.5598,9.5598,9.5451,9.5194,9.4624,9.4195,9.3999,9.3955,9.3715,9.3562,9.3371,9.3333,9.318,9.3028,9.3066,9.2886,9.2814,9.2584,9.2554,9.2368,9.214,9.195,9.1644,9.1452,9.1259,9.1064,9.11,9.1136,9.121,9.121,9.121,9.121,9.121,9.121,9.121,9.121,9.121,9.121,9.121,9.121,9.121,9.121,9.121,9.121,9.121,9.121,9.121,9.121,9.121,9.121,9.121,9.121,9.121,9.121,9.1364,9.1518,9.2595,9.3441,9.4249,8.4722,8.4825,8.4961,8.5138,8.5429,8.5628,8.5705,8.5705,8.5779,8.5887,8.5958,8.5996,8.6065,8.606,8.606,8.6978,8.8209,8.8671,8.9479,9.0748,9.1056,9.1171,9.121,9.121,9.121,9.1175,9.11,9.0991,9.0915,9.0799,9.0638,9.0427,9.0288,9.0684,9.1605,9.2669,9.3445,9.3932,9.3948,9.3986,9.3986,9.3986,9.3986,9.3986,9.3986,9.3986,9.4044,9.4102,9.4274,9.4404,9.4513,9.4779,9.4996,9.5143,9.5277,9.5417,9.5509,9.5554,9.556,9.556,9.5325,9.5044,9.4777,9.4884,9.4858,9.4515,9.402,9.4029,9.3525,9.3068,9.2962,9.3008,9.3167,9.3212,9.3224,9.3043,9.2856,9.2439,9.2097,9.172,9.1337,9.1028,9.1064,9.11,9.1136,9.121,9.121,9.121,9.121,9.121,9.121,9.121,9.121,9.121,9.121,9.121,9.121,9.121,9.121,9.121,9.121,9.121,9.121,9.121,9.121,9.121,9.121,9.121,9.121,9.121,9.1364,9.1748,9.2903,9.3941,9.4711,8.453,8.4722,8.4825,8.4961,8.5138,8.5391,8.551,8.555,8.5667,8.5779,8.5852,8.5852,8.5961,8.6031,8.6219,8.6949,8.8402,8.8748,8.9594,9.1018,9.1171,9.121,9.121,9.121,9.121,9.1175,9.1064,9.0953,9.0877,9.0759,9.0597,9.0383,9.0189,9.0673,9.1685,9.2706,9.3445,9.3894,9.3986,9.3986,9.3986,9.3986,9.3986,9.3986,9.3986,9.3986,9.3986,9.4102,9.418,9.4349,9.4459,9.4674,9.4895,9.5045,9.5143,9.5239,9.5333,9.5371,9.5371,9.5333,9.5286,9.5239,9.5239,9.5239,9.5115,9.5001,9.4811,9.4686,9.4296,9.4116,9.4439,9.4439,9.4477,9.4363,9.4266,9.3892,9.3556,9.2989,9.2542,9.2056,9.1681,9.1299,9.1106,9.1064,9.1136,9.121,9.121,9.121,9.121,9.121,9.121,9.121,9.121,9.121,9.121,9.121,9.121,9.121,9.121,9.121,9.121,9.121,9.121,9.121,9.121,9.121,9.121,9.121,9.121,9.1248,9.1672,9.221,9.321,9.421,9.5095,8.4419,8.4568,8.4675,8.4779,8.4916,8.5219,8.5346,8.5429,8.555,8.5628,8.5742,8.5779,8.5815,8.5926,8.6111,8.6646,8.8137,8.8632,8.9248,9.071,9.1095,9.1171,9.121,9.121,9.1136,9.11,9.1028,9.0915,9.0799,9.0679,9.047,9.0167,8.9925,9.0398,9.1325,9.2199,9.2862,9.3368,9.3648,9.3986,9.3986,9.3986,9.3986,9.3986,9.3986,9.3986,9.3986,9.4044,9.4102,9.4293,9.4404,9.4567,9.4793,9.4946,9.4996,9.5094,9.5191,9.5143,9.5143,9.5143,9.5094,9.4946,9.5045,9.5045,9.4996,9.4908,9.4857,9.4857,9.4946,9.4946,9.4958,9.4996,9.5056,9.4817,9.4763,9.4439,9.4257,9.3694,9.3289,9.2771,9.1983,9.1605,9.1183,9.1105,9.11,9.1136,9.121,9.121,9.121,9.121,9.121,9.121,9.121,9.121,9.121,9.121,9.121,9.121,9.121,9.121,9.121,9.121,9.121,9.121,9.121,9.121,9.121,9.121,9.1325,9.1787,9.2441,9.3018,9.3633,9.4441,9.5365,8.4317,8.428,8.4431,8.4579,8.4722,8.5044,8.5262,8.5388,8.5388,8.551,8.5667,8.5705,8.5704,8.5815,8.5926,8.6496,8.7302,8.8175,8.9098,8.9979,9.0671,9.0941,9.1136,9.1136,9.11,9.0991,9.0915,9.0838,9.0719,9.0513,9.0295,9.0029,8.9741,9.0107,9.0706,9.1299,9.2091,9.2879,9.361,9.3911,9.3986,9.3986,9.3986,9.3986,9.3986,9.3986,9.3986,9.4044,9.4102,9.418,9.4349,9.4459,9.4636,9.4844,9.4946,9.5045,9.5094,9.5045,9.4996,9.4946,9.4844,9.4741,9.4844,9.4793,9.4689,9.4674,9.4674,9.4621,9.4621,9.4621,9.4621,9.4689,9.4844,9.4908,9.5007,9.4904,9.4925,9.4592,9.4189,9.3524,9.2512,9.187,9.1376,9.1183,9.1141,9.11,9.1136,9.121,9.121,9.121,9.121,9.121,9.121,9.121,9.121,9.121,9.121,9.121,9.121,9.121,9.121,9.121,9.121,9.121,9.121,9.121,9.121,9.1364,9.1556,9.2172,9.2864,9.3557,9.4057,9.4749,9.5557,8.4215,8.4317,8.4368,8.4431,8.4579,8.477,8.4999,8.5262,8.5262,8.5346,8.5469,8.5469,8.5589,8.5704,8.578,8.6391,8.6962,8.7648,8.8644,8.9486,9.0139,9.0601,9.0908,9.1064,9.0991,9.0915,9.0838,9.0719,9.0638,9.0427,9.0205,9.002,8.9642,8.9702,8.9921,9.0361,9.1414,9.2484,9.3422,9.3835,9.3948,9.3986,9.3986,9.3986,9.3986,9.3986,9.3986,9.3986,9.4102,9.4217,9.4236,9.4349,9.4621,9.4727,9.4779,9.4844,9.4895,9.4844,9.4779,9.4727,9.4674,9.4513,9.453,9.4567,9.4459,9.4459,9.4404,9.4349,9.4349,9.4404,9.4459,9.4513,9.4674,9.4741,9.4844,9.4857,9.487,9.4866,9.4506,9.3975,9.2924,9.2248,9.172,9.1299,9.1221,9.1141,9.11,9.1136,9.121,9.121,9.121,9.121,9.121,9.121,9.121,9.121,9.121,9.121,9.121,9.121,9.121,9.121,9.121,9.121,9.121,9.121,9.121,9.1441,9.1787,9.2402,9.3056,9.3826,9.4518,9.5249,9.5749,8.4125,8.4215,8.4215,8.428,8.4431,8.453,8.477,8.4916,8.5051,8.5219,8.5304,8.5346,8.5429,8.5589,8.5628,8.5973,8.6507,8.7079,8.796,8.8917,8.9607,9.03,9.0722,9.0953,9.0915,9.0799,9.0719,9.0679,9.0555,9.0295,9.0067,8.9828,8.9527,8.9423,8.9528,9.0004,9.0907,9.1996,9.2934,9.3573,9.3873,9.3986,9.3986,9.3986,9.3986,9.3986,9.3986,9.3986,9.4044,9.416,9.416,9.4236,9.4459,9.4513,9.4567,9.4636,9.4636,9.4583,9.4567,9.4567,9.4459,9.4349,9.4293,9.4293,9.4293,9.4293,9.4236,9.4236,9.4236,9.4236,9.4293,9.4349,9.4404,9.4476,9.453,9.4583,9.4741,9.4895,9.4562,9.4151,9.3448,9.2737,9.2136,9.1681,9.126,9.1105,9.1064,9.11,9.1136,9.121,9.121,9.121,9.121,9.121,9.121,9.121,9.121,9.121,9.121,9.121,9.121,9.121,9.121,9.121,9.121,9.121,9.121,9.1672,9.2133,9.2749,9.3518,9.4403,9.5134,9.5711,9.6095,8.411,8.411,8.411,8.4215,8.428,8.4431,8.4481,8.453,8.4825,8.5051,8.5138,8.5176,8.5262,8.5388,8.551,8.5589,8.6049,8.6546,8.7426,8.8385,8.9074,8.988,9.0647,9.0877,9.0759,9.0719,9.0638,9.0555,9.034,9.0113,8.9839,8.9629,8.9475,8.9318,8.9324,8.9666,9.0494,9.162,9.2371,9.2972,9.376,9.3986,9.3986,9.3986,9.3986,9.3986,9.3986,9.3986,9.3986,9.4044,9.4102,9.418,9.4236,9.4349,9.4404,9.4459,9.4459,9.4459,9.4404,9.4404,9.4293,9.4274,9.418,9.416,9.416,9.416,9.4122,9.4065,9.4102,9.416,9.416,9.4217,9.4236,9.4349,9.4404,9.4513,9.4583,9.4741,9.473,9.4316,9.4006,9.3339,9.2814,9.2327,9.1643,9.1299,9.1028,9.1064,9.11,9.1175,9.121,9.121,9.121,9.121,9.121,9.121,9.121,9.121,9.121,9.121,9.121,9.121,9.121,9.121,9.121,9.121,9.1287,9.1672,9.2249,9.3249,9.4057,9.5057,9.5749,9.6172,9.6288,8.411,8.411,8.411,8.411,8.4125,8.4317,8.4368,8.4368,8.453,8.4732,8.4871,8.5006,8.5094,8.5262,8.5346,8.5429,8.5624,8.5972,8.693,8.7849,8.8615,8.9534,9.053,9.0719,9.0638,9.0513,9.0427,9.034,9.0159,8.9935,8.9741,8.9591,8.9423,8.9265,8.9211,8.946,9.0043,9.1395,9.177,9.2709,9.3798,9.3986,9.3986,9.3986,9.3986,9.3986,9.3986,9.3986,9.3986,9.4044,9.4044,9.4102,9.418,9.4349,9.4404,9.4404,9.4349,9.4293,9.4236,9.4236,9.418,9.4102,9.4044,9.4044,9.4044,9.4044,9.4044,9.4044,9.3986,9.4044,9.4044,9.4102,9.4102,9.4217,9.4236,9.4349,9.4459,9.4599,9.4731,9.4589,9.4401,9.4006,9.3448,9.2852,9.2136,9.1605,9.1145,9.1028,9.1064,9.11,9.121,9.121,9.121,9.121,9.121,9.121,9.121,9.121,9.121,9.121,9.121,9.121,9.121,9.121,9.121,9.121,9.121,9.1287,9.2056,9.3287,9.421,9.5018,9.5749,9.6249,9.6288,8.411,8.411,8.411,8.411,8.411,8.4215,8.4177,8.4266,8.4331,8.4481,8.4627,8.4779,8.4916,8.5132,8.5181,8.5304,8.5346,8.5429,8.6538,8.7572,8.8265,8.9138,8.9863,9.0474,9.0427,9.034,9.025,9.0075,8.9925,8.9779,8.9591,8.9438,8.9265,8.9211,8.9157,8.916,8.9818,9.1395,9.147,9.2409,9.3798,9.3986,9.3986,9.3986,9.3986,9.3986,9.3986,9.3986,9.3986,9.3986,9.3986,9.4044,9.4102,9.416,9.418,9.418,9.418,9.418,9.4122,9.4065,9.4065,9.4044,9.3986,9.3986,9.3986,9.4044,9.4044,9.3986,9.3986,9.4044,9.4044,9.4044,9.4044,9.4102,9.416,9.4217,9.4349,9.453,9.4703,9.4744,9.46,9.4439,9.3846,9.3142,9.247,9.1793,9.1375,9.1029,9.1066,9.11,9.1136,9.121,9.121,9.121,9.121,9.121,9.121,9.121,9.121,9.1248,9.1248,9.121,9.121,9.1402,9.1402,9.121,9.121,9.1556,9.221,9.3403,9.4172,9.4826,9.5557,9.6134,9.6057,8.411,8.411,8.411,8.411,8.411,8.411,8.411,8.4163,8.4215,8.4317,8.4368,8.4568,8.477,8.4916,8.5006,8.5051,8.5138,8.5224,8.629,8.7318,8.7737,8.8885,8.9724,9.025,9.0205,9.0075,8.9982,8.9887,8.9692,8.9591,8.9386,8.9265,8.9157,8.9157,8.9047,8.9179,8.9818,9.1057,9.1733,9.2484,9.331,9.3986,9.3986,9.3986,9.3986,9.3986,9.3986,9.3986,9.3986,9.3986,9.3986,9.3986,9.4044,9.4044,9.4044,9.4044,9.4102,9.4044,9.4044,9.4044,9.4044,9.3986,9.3986,9.3986,9.3986,9.3986,9.3986,9.3986,9.3986,9.3986,9.3986,9.3986,9.3986,9.3986,9.4044,9.4044,9.4236,9.4404,9.4567,9.4741,9.4706,9.4676,9.4202,9.3503,9.2837,9.2168,9.1642,9.126,9.1029,9.1103,9.11,9.1136,9.121,9.121,9.121,9.121,9.121,9.121,9.121,9.1248,9.1364,9.1595,9.1748,9.1864,9.1787,9.1864,9.2018,9.2326,9.3056,9.3749,9.3941,9.448,9.5134,9.5634,9.5672,8.411,8.411,8.411,8.411,8.411,8.411,8.411,8.411,8.4163,8.4177,8.428,8.4368,8.4481,8.477,8.4825,8.4916,8.5006,8.5132,8.6247,8.7465,8.7649,8.8797,8.9703,9.0113,9.0067,8.9887,8.9741,8.9591,8.9489,8.9386,8.9227,8.9173,8.9102,8.9047,8.8992,8.9254,8.9743,9.0944,9.1695,9.2296,9.3498,9.3986,9.3986,9.3986,9.3986,9.3986,9.3986,9.3986,9.3986,9.3986,9.3986,9.3986,9.3986,9.3986,9.3986,9.3986,9.3986,9.3986,9.3986,9.3986,9.3986,9.3986,9.3986,9.3986,9.3986,9.3986,9.3986,9.3986,9.3986,9.3986,9.3986,9.3986,9.3986,9.3986,9.4044,9.4102,9.418,9.4293,9.4404,9.453,9.4703,9.4744,9.4779,9.4087,9.3465,9.2804,9.2095,9.164,9.1145,9.1144,9.1139,9.1175,9.1175,9.121,9.121,9.121,9.121,9.121,9.1325,9.1595,9.1864,9.221,9.2364,9.2556,9.2864,9.3095,9.321,9.2979,9.3672,9.4172,9.3864,9.4095,9.4788,9.5095,9.5095]},{"header":{"parameterUnit":"m.s-1","parameterCategory":1,"la1":31.0,"la2":29.5877,"lo1":-88.7671,"lo2":-86.6584,"dy":0.0162,"dx":0.0185,"nx":115,"ny":88,"refTime":"2023-10-13T12:00:00:Z","depth":0,"parameterNumber":3,"parameterNumberName":"V-component_of_WINDS"},"data":[0.0,0.0,0.0,0.0,0.0,0.0,0.0,0.0,0.0,0.0,0.0,0.0,0.0,0.0,0.0,0.0,0.0,0.0,0.0,0.0,0.0,0.0,0.0,0.0,0.0,0.0,0.0,0.0,0.0,0.0,0.0,0.0,0.0,0.0,0.0,0.0,0.0,0.0,0.0,0.0,0.0,0.0,0.0,0.0,0.0,0.0,0.0,0.0,0.0,0.0,0.0,0.0,0.0,0.0,0.0,0.0,0.0,0.0,0.0,0.0,0.0,0.0,0.0,0.0,0.0,0.0,0.0,0.0,0.0,0.0,0.0,0.0,0.0,0.0,0.0,0.0,0.0,0.0,0.0,0.0,0.0,0.0,0.0,0.0,0.0,0.0,0.0,0.0,0.0,0.0,0.0,0.0,0.0,0.0,0.0,0.0,0.0,0.0,0.0,0.0,0.0,0.0,0.0,0.0,0.0,0.0,0.0,0.0,0.0,0.0,0.0,0.0,0.0,0.0,0.0,0.0,0.0,0.0,0.0,0.0,0.0,0.0,0.0,0.0,0.0,0.0,0.0,0.0,0.0,0.0,0.0,0.0,0.0,0.0,0.0,0.0,0.0,0.0,0.0,0.0,0.0,0.0,0.0,0.0,0.0,0.0,0.0,0.0,0.0,0.0,0.0,0.0,0.0,0.0,0.0,0.0,0.0,0.0,0.0,0.0,0.0,0.0,0.0,0.0,0.0,0.0,0.0,0.0,0.0,0.0,0.0,0.0,0.0,0.0,0.0,0.0,0.0,0.0,0.0,0.0,0.0,0.0,0.0,0.0,0.0,0.0,0.0,0.0,0.0,0.0,0.0,0.0,0.0,0.0,0.0,0.0,0.0,0.0,0.0,0.0,0.0,0.0,0.0,0.0,0.0,0.0,0.0,0.0,0.0,0.0,0.0,0.0,0.0,0.0,0.0,0.0,0.0,0.0,0.0,0.0,0.0,0.0,0.0,0.0,0.0,0.0,0.0,0.0,0.0,0.0,0.0,0.0,0.0,0.0,0.0,0.0,0.0,0.0,0.0,0.0,0.0,0.0,0.0,0.0,0.0,0.0,0.0,0.0,0.0,0.0,0.0,0.0,0.0,0.0,0.0,0.0,0.0,0.0,0.0,0.0,0.0,0.0,0.0,0.0,0.0,0.0,0.0,0.0,0.0,0.0,0.0,0.0,0.0,0.0,0.0,0.0,0.0,0.0,0.0,0.0,0.0,0.0,0.0,0.0,0.0,0.0,0.0,0.0,0.0,0.0,0.0,0.0,0.0,0.0,0.0,0.0,0.0,0.0,0.0,0.0,0.0,0.0,0.0,0.0,0.0,0.0,0.0,0.0,0.0,0.0,0.0,0.0,0.0,0.0,0.0,0.0,0.0,0.0,0.0,0.0,0.0,0.0,0.0,0.0,0.0,0.0,0.0,0.0,0.0,0.0,0.0,0.0,0.0,0.0,0.0,0.0,0.0,0.0,0.0,0.0,0.0,0.0,0.0,0.0,0.0,0.0,0.0,0.0,0.0,0.0,0.0,0.0,0.0,0.0,0.0,0.0,0.0,0.0,0.0,0.0,0.0,0.0,0.0,0.0,0.0,0.0,0.0,0.0,0.0,0.0,0.0,0.0,0.0,0.0,0.0,0.0,0.0,0.0,0.0,0.0,0.0,0.0,0.0,0.0,0.0,0.0,0.0,0.0,0.0,0.0,0.0,0.0,0.0,0.0,0.0,0.0,0.0,0.0,0.0,0.0,0.0,0.0,0.0,0.0,0.0,0.0,0.0,0.0,0.0,0.0,0.0,0.0,0.0,0.0,0.0,0.0,0.0,0.0,0.0,0.0,0.0,0.0,0.0,0.0,0.0,0.0,0.0,0.0,0.0,0.0,0.0,0.0,0.0,0.0,0.0,0.0,0.0,0.0,0.0,0.0,0.0,0.0,0.0,0.0,0.0,0.0,0.0,0.0,0.0,0.0,0.0,0.0,0.0,0.0,0.0,0.0,0.0,0.0,0.0,0.0,0.0,0.0,0.0,0.0,0.0,0.0,0.0,0.0,0.0,0.0,0.0,0.0,0.0,0.0,0.0,0.0,0.0,0.0,0.0,0.0,0.0,0.0,0.0,0.0,0.0,0.0,0.0,0.0,0.0,0.0,0.0,0.0,0.0,0.0,0.0,0.0,0.0,0.0,0.0,0.0,0.0,0.0,0.0,0.0,0.0,0.0,0.0,0.0,0.0,0.0,0.0,0.0,0.0,0.0,0.0,0.0,0.0,0.0,0.0,0.0,0.0,0.0,0.0,0.0,0.0,0.0,0.0,0.0,0.0,0.0,0.0,0.0,0.0,0.0,0.0,0.0,0.0,0.0,0.0,0.0,0.0,0.0,0.0,0.0,0.0,0.0,0.0,0.0,0.0,0.0,0.0,0.0,0.0,0.0,0.0,0.0,0.0,0.0,0.0,0.0,0.0,0.0,0.0,0.0,0.0,0.0,0.0,0.0,0.0,0.0,0.0,0.0,0.0,0.0,0.0,0.0,0.0,0.0,0.0,0.0,0.0,0.0,0.0,0.0,0.0,0.0,0.0,0.0,0.0,0.0,0.0,0.0,0.0,0.0,0.0,0.0,0.0,0.0,0.0,0.0,0.0,0.0,0.0,0.0,0.0,0.0,0.0,0.0,0.0,0.0,0.0,0.0,0.0,0.0,0.0,0.0,0.0,0.0,0.0,0.0,0.0,0.0,0.0,0.0,0.0,0.0,0.0,0.0,0.0,0.0,0.0,0.0,0.0,0.0,0.0,0.0,0.0,0.0,0.0,0.0,0.0,0.0,0.0,0.0,0.0,0.0,0.0,0.0,0.0,0.0,0.0,0.0,0.0,0.0,0.0,0.0,0.0,0.0,0.0,0.0,0.0,0.0,0.0,0.0,0.0,0.0,0.0,0.0,0.0,0.0,0.0,0.0,0.0,0.0,0.0,0.0,0.0,0.0,0.0,0.0,0.0,0.0,0.0,0.0,0.0,0.0,0.0,0.0,0.0,0.0,0.0,0.0,0.0,0.0,0.0,0.0,0.0,0.0,0.0,0.0,0.0,0.0,0.0,0.0,0.0,0.0,0.0,0.0,0.0,0.0,0.0,0.0,0.0,0.0,0.0,0.0,0.0,0.0,0.0,0.0,0.0,0.0,0.0,0.0,0.0,0.0,0.0,0.0,0.0,0.0,0.0,0.0,0.0,0.0,0.0,0.0,0.0,0.0,0.0,0.0,0.0,0.0,0.0,0.0,0.0,0.0,0.0,0.0,0.0,0.0,0.0,0.0,0.0,0.0,0.0,0.0,0.0,0.0,0.0,0.0,0.0,0.0,0.0,0.0,0.0,0.0,0.0,0.0,0.0,0.0,0.0,0.0,0.0,0.0,0.0,0.0,0.0,0.0,0.0,0.0,0.0,0.0,0.0,0.0,0.0,0.0,0.0,0.0,0.0,0.0,0.0,0.0,0.0,0.0,0.0,0.0,0.0,0.0,0.0,0.0,0.0,0.0,0.0,0.0,0.0,0.0,0.0,0.0,0.0,0.0,0.0,0.0,0.0,0.0,0.0,0.0,0.0,0.0,0.0,0.0,0.0,0.0,0.0,0.0,0.0,0.0,0.0,0.0,0.0,0.0,0.0,0.0,0.0,0.0,0.0,0.0,0.0,0.0,0.0,0.0,0.0,0.0,0.0,0.0,0.0,0.0,0.0,0.0,0.0,0.0,0.0,0.0,0.0,0.0,0.0,0.0,0.0,0.0,0.0,0.0,0.0,0.0,0.0,0.0,0.0,0.0,0.0,0.0,0.0,0.0,0.0,0.0,0.0,0.0,0.0,0.0,0.0,0.0,0.0,0.0,0.0,0.0,0.0,0.0,0.0,0.0,0.0,0.0,0.0,0.0,0.0,0.0,0.0,0.0,0.0,0.0,0.0,0.0,0.0,0.0,0.0,0.0,0.0,0.0,0.0,0.0,0.0,0.0,0.0,0.0,0.0,0.0,0.0,0.0,0.0,0.0,0.0,0.0,0.0,0.0,0.0,0.0,0.0,0.0,0.0,0.0,0.0,0.0,0.0,0.0,0.0,0.0,0.0,0.0,0.0,0.0,0.0,0.0,0.0,0.0,0.0,0.0,0.0,0.0,0.0,0.0,0.0,0.0,0.0,0.0,0.0,0.0,0.0,0.0,0.0,0.0,0.0,0.0,0.0,0.0,0.0,0.0,0.0,0.0,0.0,0.0,-0.745,0.0,0.0,0.0,0.0,0.0,0.0,0.0,0.0,0.0,0.0,0.0,0.0,0.0,0.0,0.0,0.0,0.0,0.0,0.0,0.0,0.0,0.0,0.0,0.0,0.0,0.0,0.0,0.0,0.0,0.0,0.0,0.0,0.0,0.0,0.0,0.0,0.0,0.0,0.0,0.0,0.0,0.0,0.0,0.0,0.0,0.0,0.0,0.0,0.0,0.0,0.0,0.0,0.0,0.0,0.0,0.0,0.0,0.0,0.0,0.0,0.0,0.0,0.0,0.0,0.0,0.0,0.0,0.0,0.0,0.0,0.0,0.0,0.0,0.0,0.0,0.0,0.0,0.0,0.0,0.0,0.0,0.0,0.0,0.0,0.0,0.0,0.0,0.0,0.0,0.0,0.0,0.0,0.0,0.0,0.0,0.0,0.0,0.0,0.0,0.0,0.0,0.0,0.0,0.0,0.0,0.0,0.0,0.0,0.0,0.0,-0.8098,-0.7851,-0.7698,-0.7445,-0.7103,0.0,0.0,0.0,0.0,0.0,0.0,0.0,0.0,0.0,0.0,0.0,0.0,0.0,0.0,0.0,0.0,0.0,0.0,0.0,0.0,0.0,0.0,0.0,0.0,0.0,0.0,0.0,0.0,0.0,0.0,0.0,0.0,0.0,0.0,0.0,0.0,0.0,0.0,0.0,0.0,0.0,0.0,0.0,0.0,0.0,0.0,0.0,0.0,0.0,0.0,0.0,0.0,0.0,0.0,0.0,0.0,0.0,0.0,0.0,0.0,0.0,0.0,0.0,0.0,0.0,0.0,0.0,0.0,0.0,0.0,0.0,0.0,0.0,0.0,0.0,0.0,0.0,0.0,0.0,0.0,0.0,0.0,0.0,0.0,0.0,0.0,0.0,0.0,0.0,0.0,0.0,0.0,0.0,0.0,0.0,0.0,0.0,0.0,0.0,0.0,0.0,0.0,0.0,0.0,0.0,0.0,0.0,0.0,0.0,0.0,0.0,0.0,-0.7279,-0.7082,-0.6732,0.0,0.0,0.0,0.0,0.0,0.0,0.0,0.0,0.0,0.0,0.0,0.0,0.0,0.0,0.0,0.0,0.0,0.0,0.0,0.0,0.0,0.0,0.0,0.0,0.0,0.0,0.0,0.0,0.0,0.0,0.0,0.0,0.0,0.0,0.0,0.0,0.0,0.0,0.0,0.0,0.0,0.0,0.0,0.0,0.0,0.0,0.0,0.0,0.0,0.0,0.0,0.0,0.0,0.0,0.0,0.0,0.0,0.0,0.0,0.0,0.0,0.0,0.0,0.0,0.0,0.0,0.0,0.0,0.0,0.0,0.0,0.0,0.0,0.0,0.0,0.0,0.0,0.0,0.0,0.0,0.0,0.0,0.0,0.0,0.0,0.0,0.0,0.0,0.0,0.0,0.0,0.0,0.0,0.0,0.0,0.0,0.0,0.0,0.0,0.0,0.0,0.0,0.0,0.0,0.0,0.0,0.0,0.0,0.0,0.0,-0.7548,-0.746,-0.7152,0.0,-0.6359,0.0,0.0,0.0,0.0,0.0,0.0,0.0,0.0,0.0,0.0,0.0,0.0,0.0,0.0,0.0,0.0,0.0,0.0,0.0,0.0,0.0,0.0,0.0,0.0,0.0,0.0,0.0,0.0,0.0,0.0,0.0,0.0,0.0,0.0,0.0,0.0,0.0,0.0,0.0,0.0,0.0,0.0,0.0,0.0,0.0,0.0,0.0,0.0,0.0,0.0,0.0,0.0,0.0,0.0,0.0,0.0,0.0,0.0,0.0,0.0,0.0,0.0,0.0,0.0,0.0,0.0,0.0,0.0,0.0,0.0,0.0,0.0,0.0,0.0,0.0,0.0,0.0,0.0,0.0,0.0,0.0,0.0,0.0,0.0,0.0,0.0,0.0,0.0,0.0,0.0,0.0,0.0,0.0,0.0,0.0,0.0,0.0,0.0,0.0,0.0,0.0,0.0,0.0,0.0,0.0,0.0,0.0,0.0,0.0,0.0,-0.7959,-0.8231,-0.7797,-0.7183,0.0,0.0,0.0,0.0,0.0,0.0,0.0,0.0,0.0,0.0,0.0,0.0,0.0,0.0,0.0,0.0,0.0,0.0,0.0,0.0,0.0,0.0,0.0,0.0,0.0,0.0,0.0,0.0,0.0,0.0,0.0,0.0,0.0,0.0,0.0,0.0,0.0,0.0,0.0,0.0,0.0,0.0,0.0,0.0,0.0,0.0,0.0,0.0,0.0,0.0,0.0,0.0,0.0,0.0,0.0,0.0,0.0,0.0,0.0,0.0,0.0,0.0,0.0,0.0,0.0,0.0,0.0,0.0,0.0,0.0,0.0,0.0,0.0,0.0,0.0,0.0,0.0,0.0,0.0,0.0,0.0,0.0,0.0,0.0,0.0,0.0,0.0,0.0,0.0,0.0,0.0,0.0,0.0,0.0,0.0,0.0,0.0,0.0,0.0,0.0,0.0,0.0,0.0,0.0,0.0,0.0,0.0,0.0,0.0,0.0,-0.8205,-0.8521,-0.8847,-0.8177,-0.7417,-0.6708,0.0,0.0,0.0,0.0,0.0,0.0,0.0,0.0,0.0,0.0,0.0,0.0,0.0,0.0,0.0,0.0,0.0,0.0,0.0,0.0,0.0,0.0,0.0,0.0,0.0,0.0,0.0,0.0,0.0,0.0,0.0,0.0,0.0,0.0,0.0,0.0,0.0,0.0,0.0,0.0,0.0,0.0,0.0,0.0,0.0,0.0,0.0,0.0,0.0,0.0,0.0,0.0,0.0,0.0,0.0,0.0,0.0,0.0,0.0,0.0,0.0,0.0,0.0,0.0,0.0,0.0,0.0,0.0,0.0,0.0,0.0,0.0,0.0,0.0,0.0,0.0,0.0,0.0,0.0,0.0,0.0,0.0,0.0,0.0,0.0,0.0,0.0,0.0,0.0,0.0,0.0,0.0,0.0,0.0,0.0,0.0,0.0,0.0,0.0,0.0,0.0,0.0,0.0,0.0,0.0,0.0,0.0,0.0,-0.8511,-0.8702,-0.8887,-0.9044,-0.7953,-0.7282,0.0,0.0,0.0,0.0,0.0,0.0,0.0,0.0,0.0,0.0,0.0,0.0,0.0,0.0,0.0,0.0,0.0,0.0,0.0,0.0,0.0,0.0,0.0,0.0,0.0,0.0,0.0,0.0,0.0,0.0,0.0,0.0,0.0,0.0,0.0,0.0,0.0,0.0,0.0,0.0,0.0,0.0,0.0,0.0,0.0,0.0,0.0,0.0,0.0,0.0,0.0,0.0,0.0,0.0,0.0,0.0,0.0,0.0,0.0,0.0,0.0,0.0,0.0,0.0,0.0,0.0,0.0,0.0,0.0,0.0,0.0,0.0,0.0,0.0,0.0,0.0,0.0,0.0,0.0,0.0,0.0,0.0,0.0,0.0,0.0,0.0,0.0,0.0,0.0,0.0,0.0,0.0,0.0,0.0,0.0,0.0,0.0,0.0,0.0,0.0,0.0,0.0,0.0,0.0,0.0,0.0,0.0,0.0,0.0,-0.8492,-0.9554,-1.0027,-0.9979,-0.9206,-0.8432,0.0,0.0,0.0,0.0,0.0,0.0,0.0,0.0,0.0,0.0,0.0,0.0,0.0,0.0,0.0,0.0,0.0,0.0,0.0,0.0,0.0,0.0,0.0,0.0,0.0,0.0,0.0,0.0,0.0,0.0,0.0,0.0,0.0,0.0,0.0,0.0,0.0,0.0,0.0,0.0,0.0,0.0,0.0,0.0,0.0,0.0,0.0,0.0,0.0,0.0,0.0,0.0,0.0,0.0,0.0,0.0,0.0,0.0,0.0,0.0,0.0,0.0,0.0,0.0,0.0,0.0,0.0,0.0,0.0,0.0,0.0,0.0,0.0,0.0,0.0,0.0,0.0,0.0,0.0,0.0,0.0,0.0,0.0,0.0,0.0,0.0,0.0,0.0,0.0,0.0,0.0,0.0,0.0,0.0,0.0,0.0,0.0,0.0,0.0,0.0,0.0,0.0,0.0,0.0,0.0,0.0,0.0,0.0,0.0,-0.9089,0.0,-1.1052,-1.0767,-1.0069,-0.9076,0.0,0.0,0.0,0.0,0.0,0.0,0.0,0.0,0.0,0.0,0.0,0.0,0.0,0.0,0.0,0.0,0.0,0.0,0.0,0.0,0.0,0.0,0.0,0.0,0.0,0.0,0.0,0.0,0.0,0.0,0.0,0.0,0.0,0.0,0.0,0.0,0.0,0.0,0.0,0.0,0.0,0.0,0.0,0.0,0.0,0.0,0.0,0.0,0.0,0.0,0.0,0.0,0.0,0.0,0.0,0.0,0.0,0.0,0.0,0.0,0.0,0.0,0.0,0.0,0.0,0.0,0.0,0.0,0.0,0.0,0.0,0.0,0.0,0.0,0.0,0.0,0.0,0.0,0.0,0.0,0.0,0.0,0.0,0.0,0.0,0.0,0.0,0.0,0.0,0.0,0.0,0.0,0.0,0.0,0.0,0.0,0.0,0.0,0.0,0.0,0.0,0.0,0.0,0.0,0.0,0.0,0.0,0.0,-0.9262,-1.0476,-1.1467,-1.1999,-1.1709,-1.0337,-0.9116,0.0,0.0,0.0,0.0,0.0,0.0,0.0,0.0,0.0,0.0,0.0,0.0,0.0,0.0,0.0,0.0,0.0,0.0,0.0,0.0,0.0,0.0,0.0,0.0,0.0,0.0,0.0,0.0,0.0,0.0,0.0,0.0,0.0,0.0,0.0,0.0,0.0,0.0,0.0,0.0,0.0,0.0,0.0,0.0,0.0,0.0,0.0,0.0,0.0,0.0,0.0,0.0,0.0,0.0,0.0,0.0,0.0,0.0,0.0,0.0,0.0,0.0,0.0,0.0,0.0,0.0,0.0,0.0,0.0,0.0,0.0,0.0,0.0,0.0,0.0,0.0,0.0,0.0,0.0,0.0,0.0,0.0,0.0,0.0,0.0,0.0,0.0,0.0,0.0,0.0,0.0,0.0,0.0,0.0,0.0,0.0,0.0,0.0,0.0,0.0,0.0,0.0,0.0,0.0,0.0,0.0,0.0,0.0,0.0,-1.1107,-1.1875,-1.2484,-1.2631,-1.13,-0.9956,0.0,0.0,0.0,0.0,0.0,0.0,0.0,0.0,0.0,0.0,0.0,0.0,0.0,0.0,0.0,0.0,0.0,0.0,0.0,0.0,0.0,0.0,0.0,0.0,0.0,0.0,0.0,0.0,0.0,0.0,0.0,0.0,0.0,0.0,0.0,0.0,0.0,0.0,0.0,0.0,0.0,0.0,0.0,0.0,0.0,0.0,0.0,0.0,0.0,0.0,0.0,0.0,0.0,0.0,0.0,0.0,0.0,0.0,0.0,0.0,0.0,0.0,0.0,0.0,0.0,0.0,0.0,0.0,0.0,0.0,0.0,0.0,0.0,0.0,0.0,0.0,0.0,0.0,0.0,0.0,0.0,0.0,0.0,0.0,0.0,0.0,0.0,0.0,0.0,0.0,0.0,0.0,0.0,0.0,0.0,0.0,0.0,0.0,0.0,0.0,0.0,0.0,0.0,0.0,0.0,0.0,0.0,0.0,0.0,-1.2394,-1.2947,-1.338,-1.3429,-1.2115,-1.0699,-0.9139,0.0,0.0,0.0,0.0,0.0,0.0,0.0,0.0,0.0,0.0,0.0,0.0,0.0,0.0,0.0,0.0,0.0,0.0,0.0,0.0,0.0,0.0,0.0,0.0,0.0,0.0,0.0,0.0,0.0,0.0,0.0,0.0,0.0,0.0,0.0,0.0,0.0,0.0,0.0,0.0,0.0,0.0,0.0,0.0,0.0,0.0,0.0,0.0,0.0,0.0,0.0,0.0,0.0,0.0,0.0,0.0,0.0,0.0,0.0,0.0,0.0,0.0,0.0,0.0,0.0,0.0,0.0,0.0,0.0,0.0,0.0,0.0,0.0,0.0,0.0,0.0,0.0,0.0,0.0,0.0,0.0,0.0,0.0,0.0,0.0,0.0,0.0,0.0,0.0,0.0,0.0,0.0,0.0,0.0,0.0,0.0,0.0,0.0,0.0,0.0,0.0,0.0,0.0,0.0,0.0,0.0,0.0,0.0,-1.4241,-1.4595,-1.4589,-1.3986,-1.2869,-1.134,0.0,0.0,0.0,0.0,0.0,0.0,0.0,0.0,0.0,0.0,0.0,0.0,0.0,0.0,0.0,0.0,0.0,0.0,0.0,0.0,0.0,0.0,0.0,0.0,0.0,0.0,0.0,0.0,0.0,0.0,0.0,0.0,0.0,0.0,0.0,0.0,0.0,0.0,0.0,0.0,0.0,0.0,0.0,0.0,0.0,0.0,0.0,0.0,0.0,0.0,0.0,0.0,0.0,0.0,0.0,0.0,0.0,0.0,0.0,0.0,0.0,0.0,0.0,0.0,0.0,0.0,0.0,0.0,0.0,0.0,0.0,0.0,0.0,0.0,0.0,0.0,0.0,0.0,0.0,0.0,0.0,0.0,0.0,0.0,0.0,0.0,0.0,0.0,0.0,0.0,0.0,0.0,0.0,0.0,0.0,0.0,0.0,0.0,0.0,0.0,0.0,0.0,0.0,0.0,0.0,0.0,0.0,0.0,0.0,-1.5147,-1.6053,-1.5857,-1.4691,-1.3267,-1.1677,0.0,0.0,0.0,0.0,0.0,0.0,0.0,0.0,0.0,0.0,0.0,0.0,0.0,0.0,0.0,0.0,0.0,0.0,0.0,0.0,0.0,0.0,0.0,0.0,0.0,0.0,0.0,0.0,0.0,0.0,0.0,0.0,0.0,0.0,0.0,0.0,0.0,0.0,0.0,0.0,0.0,0.0,0.0,0.0,0.0,0.0,0.0,0.0,0.0,0.0,0.0,0.0,0.0,0.0,0.0,0.0,0.0,0.0,0.0,0.0,0.0,0.0,0.0,0.0,0.0,0.0,0.0,0.0,0.0,0.0,0.0,0.0,0.0,0.0,0.0,0.0,0.0,0.0,0.0,0.0,0.0,0.0,0.0,0.0,0.0,0.0,0.0,0.0,0.0,0.0,0.0,0.0,0.0,0.0,0.0,0.0,0.0,0.0,0.0,0.0,0.0,0.0,0.0,0.0,0.0,0.0,0.0,0.0,-1.4831,-1.6092,-1.6583,-1.6441,-1.5549,-1.4074,-1.2358,0.0,0.0,0.0,0.0,0.0,0.0,0.0,0.0,0.0,0.0,0.0,0.0,0.0,0.0,0.0,0.0,0.0,0.0,0.0,0.0,0.0,0.0,0.0,0.0,0.0,0.0,0.0,0.0,0.0,0.0,0.0,0.0,0.0,0.0,0.0,0.0,0.0,0.0,0.0,0.0,0.0,0.0,0.0,0.0,0.0,0.0,0.0,0.0,0.0,0.0,0.0,0.0,0.0,0.0,0.0,0.0,0.0,0.0,0.0,0.0,0.0,0.0,0.0,0.0,0.0,0.0,0.0,0.0,0.0,0.0,0.0,0.0,0.0,0.0,0.0,0.0,0.0,0.0,0.0,0.0,0.0,0.0,0.0,0.0,0.0,0.0,0.0,0.0,0.0,0.0,0.0,0.0,0.0,0.0,0.0,0.0,0.0,0.0,0.0,0.0,0.0,0.0,0.0,0.0,0.0,0.0,0.0,0.0,-1.5533,-1.671,-1.6802,-1.6645,-1.6225,-1.4838,-1.2993,0.0,0.0,0.0,0.0,0.0,0.0,0.0,0.0,0.0,0.0,0.0,0.0,0.0,0.0,0.0,0.0,0.0,0.0,0.0,0.0,0.0,0.0,0.0,0.0,0.0,0.0,0.0,0.0,0.0,0.0,0.0,0.0,0.0,0.0,0.0,0.0,0.0,0.0,0.0,0.0,0.0,0.0,0.0,0.0,0.0,0.0,0.0,0.0,0.0,0.0,0.0,0.0,0.0,0.0,0.0,0.0,0.0,0.0,0.0,0.0,0.0,0.0,0.0,0.0,0.0,0.0,0.0,0.0,0.0,0.0,0.0,0.0,0.0,0.0,0.0,0.0,0.0,0.0,0.0,0.0,0.0,0.0,0.0,0.0,0.0,0.0,0.0,0.0,0.0,0.0,0.0,0.0,0.0,0.0,0.0,0.0,0.0,0.0,0.0,0.0,0.0,0.0,0.0,0.0,0.0,0.0,0.0,0.0,-1.5894,-1.6781,-1.7141,-1.697,-1.6,-1.4473,-1.2949,0.0,0.0,0.0,0.0,0.0,0.0,0.0,0.0,0.0,0.0,0.0,0.0,0.0,0.0,0.0,0.0,0.0,0.0,0.0,0.0,0.0,0.0,0.0,0.0,0.0,0.0,0.0,0.0,0.0,0.0,0.0,0.0,0.0,0.0,0.0,0.0,0.0,0.0,0.0,0.0,0.0,0.0,0.0,0.0,0.0,0.0,0.0,0.0,-1.3661,0.0,0.0,0.0,0.0,0.0,0.0,0.0,0.0,0.0,0.0,0.0,0.0,0.0,0.0,0.0,0.0,0.0,0.0,0.0,0.0,0.0,0.0,0.0,0.0,0.0,0.0,0.0,0.0,0.0,0.0,0.0,0.0,0.0,0.0,0.0,0.0,0.0,0.0,0.0,0.0,0.0,0.0,0.0,0.0,0.0,0.0,0.0,0.0,0.0,0.0,0.0,0.0,0.0,0.0,0.0,0.0,0.0,0.0,0.0,-1.614,-1.6796,-1.6732,-1.6412,-1.5829,-1.4277,-1.2733,0.0,0.0,0.0,0.0,0.0,0.0,0.0,0.0,0.0,0.0,0.0,0.0,0.0,0.0,0.0,0.0,0.0,0.0,0.0,0.0,0.0,0.0,0.0,0.0,0.0,0.0,0.0,0.0,0.0,0.0,0.0,0.0,0.0,0.0,0.0,0.0,0.0,0.0,0.0,0.0,0.0,0.0,0.0,0.0,0.0,0.0,0.0,0.0,0.0,0.0,0.0,0.0,0.0,0.0,0.0,0.0,0.0,0.0,0.0,0.0,0.0,0.0,0.0,0.0,0.0,0.0,0.0,0.0,0.0,0.0,0.0,0.0,0.0,0.0,0.0,0.0,0.0,0.0,0.0,0.0,0.0,0.0,0.0,0.0,0.0,0.0,0.0,0.0,0.0,0.0,0.0,0.0,0.0,0.0,0.0,0.0,0.0,0.0,0.0,0.0,0.0,0.0,0.0,0.0,0.0,0.0,0.0,-1.5484,-1.6295,-1.6583,-1.6099,-1.5765,-1.5617,-1.4209,-1.2615,-1.1113,0.0,0.0,0.0,0.0,0.0,0.0,0.0,0.0,0.0,0.0,0.0,0.0,0.0,0.0,0.0,0.0,0.0,0.0,0.0,0.0,0.0,0.0,0.0,0.0,0.0,0.0,0.0,0.0,0.0,0.0,0.0,0.0,0.0,0.0,0.0,0.0,0.0,0.0,-1.1939,-1.2188,0.0,0.0,0.0,0.0,0.0,0.0,0.0,0.0,-1.3355,0.0,0.0,0.0,0.0,0.0,0.0,0.0,0.0,0.0,0.0,0.0,0.0,0.0,0.0,0.0,0.0,0.0,0.0,0.0,0.0,0.0,0.0,0.0,0.0,0.0,0.0,0.0,0.0,0.0,0.0,0.0,0.0,0.0,0.0,0.0,0.0,0.0,0.0,0.0,0.0,0.0,0.0,0.0,0.0,0.0,0.0,0.0,0.0,0.0,0.0,0.0,0.0,0.0,0.0,0.0,0.0,-1.4254,-1.5311,-1.5751,-1.575,-1.6053,-1.5707,-1.4699,-1.3595,-1.2331,-1.1071,0.0,0.0,0.0,0.0,0.0,0.0,0.0,0.0,0.0,0.0,0.0,0.0,0.0,0.0,0.0,0.0,0.0,0.0,0.0,0.0,0.0,0.0,0.0,0.0,0.0,0.0,0.0,0.0,0.0,0.0,0.0,0.0,0.0,0.0,0.0,0.0,0.0,0.0,0.0,-1.2548,-1.2444,0.0,0.0,0.0,0.0,0.0,0.0,0.0,0.0,-1.3634,0.0,0.0,0.0,0.0,0.0,0.0,0.0,0.0,0.0,0.0,0.0,0.0,0.0,0.0,0.0,0.0,0.0,0.0,0.0,0.0,0.0,0.0,0.0,0.0,0.0,0.0,0.0,0.0,0.0,0.0,0.0,0.0,0.0,0.0,0.0,0.0,0.0,0.0,0.0,0.0,0.0,0.0,0.0,0.0,0.0,0.0,0.0,0.0,0.0,0.0,0.0,0.0,0.0,0.0,0.0,-1.4277,-1.535,-1.5734,-1.5536,-1.5402,-1.4901,-1.4173,-1.3206,-1.1978,0.0,0.0,0.0,0.0,0.0,0.0,0.0,0.0,0.0,0.0,0.0,0.0,0.0,0.0,0.0,0.0,0.0,0.0,0.0,0.0,0.0,0.0,0.0,0.0,0.0,0.0,0.0,0.0,0.0,0.0,0.0,0.0,0.0,0.0,0.0,0.0,0.0,0.0,0.0,0.0,-1.2332,-1.2413,-1.2724,0.0,0.0,0.0,0.0,0.0,0.0,-1.2675,-1.2889,0.0,0.0,0.0,0.0,0.0,0.0,0.0,0.0,0.0,0.0,0.0,0.0,0.0,0.0,0.0,0.0,0.0,0.0,0.0,0.0,0.0,0.0,0.0,0.0,0.0,0.0,0.0,0.0,0.0,0.0,0.0,0.0,0.0,0.0,0.0,0.0,0.0,0.0,0.0,0.0,0.0,0.0,0.0,0.0,0.0,0.0,0.0,0.0,0.0,0.0,0.0,0.0,0.0,0.0,0.0,-1.418,-1.5136,-1.5478,-1.5273,-1.4701,-1.4173,-1.3697,-1.2783,-1.1585,0.0,0.0,0.0,0.0,0.0,0.0,0.0,0.0,0.0,0.0,0.0,0.0,0.0,0.0,0.0,0.0,0.0,0.0,0.0,0.0,0.0,0.0,0.0,0.0,0.0,0.0,0.0,0.0,0.0,0.0,0.0,0.0,0.0,0.0,0.0,0.0,0.0,0.0,0.0,0.0,0.0,-1.2337,-1.2646,-1.2292,0.0,0.0,0.0,0.0,-1.2456,-1.2571,0.0,0.0,0.0,0.0,0.0,0.0,0.0,0.0,0.0,0.0,0.0,0.0,0.0,0.0,0.0,0.0,0.0,0.0,0.0,0.0,0.0,0.0,0.0,0.0,0.0,0.0,0.0,0.0,0.0,0.0,0.0,0.0,0.0,0.0,0.0,0.0,0.0,0.0,0.0,0.0,0.0,0.0,0.0,0.0,0.0,0.0,0.0,0.0,0.0,0.0,0.0,0.0,0.0,0.0,0.0,0.0,-1.3856,-1.462,-1.4941,-1.4591,-1.4139,-1.3689,-1.3255,-1.2045,-1.102,0.0,0.0,0.0,0.0,0.0,0.0,0.0,0.0,0.0,0.0,0.0,0.0,0.0,0.0,0.0,0.0,0.0,0.0,0.0,0.0,0.0,0.0,0.0,0.0,0.0,0.0,0.0,0.0,0.0,0.0,0.0,0.0,0.0,0.0,0.0,0.0,0.0,0.0,0.0,0.0,0.0,-1.252,-1.2337,-1.2741,-1.2894,0.0,0.0,-1.3077,-1.3223,-1.3442,0.0,0.0,0.0,0.0,0.0,0.0,0.0,0.0,0.0,0.0,0.0,0.0,0.0,0.0,0.0,0.0,0.0,0.0,0.0,0.0,0.0,0.0,0.0,0.0,0.0,0.0,0.0,0.0,0.0,0.0,0.0,0.0,0.0,0.0,0.0,0.0,0.0,0.0,0.0,0.0,0.0,0.0,0.0,0.0,0.0,0.0,0.0,0.0,0.0,0.0,0.0,0.0,0.0,0.0,0.0,-1.3879,-1.4046,-1.4534,-1.4781,-1.4464,-1.3858,-1.3294,-1.2932,-1.1818,-1.0927,0.0,0.0,0.0,0.0,0.0,0.0,0.0,0.0,0.0,0.0,0.0,0.0,0.0,0.0,0.0,0.0,0.0,0.0,0.0,0.0,0.0,0.0,0.0,0.0,0.0,0.0,0.0,0.0,0.0,0.0,0.0,0.0,0.0,0.0,0.0,0.0,0.0,0.0,0.0,0.0,0.0,0.0,-1.3084,-1.3432,0.0,0.0,0.0,-1.3964,-1.3849,0.0,0.0,0.0,0.0,0.0,0.0,0.0,0.0,0.0,0.0,0.0,0.0,0.0,0.0,0.0,0.0,0.0,0.0,0.0,0.0,0.0,0.0,0.0,0.0,0.0,0.0,0.0,0.0,0.0,0.0,0.0,0.0,0.0,0.0,0.0,0.0,0.0,0.0,0.0,0.0,0.0,0.0,0.0,0.0,0.0,0.0,0.0,0.0,0.0,0.0,0.0,0.0,0.0,0.0,0.0,0.0,0.0,-1.4267,-1.4586,-1.476,-1.4534,-1.3593,-1.3016,-1.2686,-1.1733,0.0,0.0,0.0,0.0,0.0,0.0,0.0,0.0,0.0,0.0,0.0,0.0,0.0,0.0,0.0,0.0,0.0,0.0,0.0,0.0,0.0,0.0,0.0,0.0,0.0,0.0,0.0,0.0,0.0,0.0,0.0,0.0,0.0,0.0,0.0,0.0,0.0,0.0,0.0,0.0,0.0,0.0,-1.2741,-1.3876,-1.4261,-1.4604,0.0,0.0,-1.4855,-1.4474,-1.4519,-1.4154,0.0,0.0,0.0,0.0,0.0,0.0,0.0,0.0,0.0,0.0,0.0,0.0,0.0,0.0,0.0,0.0,0.0,0.0,0.0,0.0,0.0,0.0,0.0,0.0,0.0,0.0,0.0,0.0,0.0,0.0,0.0,0.0,0.0,0.0,0.0,0.0,0.0,0.0,0.0,0.0,0.0,0.0,0.0,0.0,0.0,0.0,0.0,0.0,0.0,0.0,0.0,0.0,0.0,0.0,0.0,-1.4509,-1.4663,-1.4691,-1.471,-1.3515,-1.2686,-1.2537,-1.1509,-1.0582,0.0,0.0,0.0,0.0,0.0,0.0,0.0,0.0,0.0,0.0,0.0,0.0,0.0,0.0,0.0,0.0,0.0,0.0,0.0,0.0,0.0,0.0,0.0,0.0,0.0,0.0,0.0,0.0,0.0,0.0,0.0,0.0,0.0,0.0,0.0,0.0,0.0,0.0,0.0,0.0,0.0,-1.362,-1.4506,-1.5356,-1.6011,0.0,0.0,-1.5498,-1.5498,-1.5158,-1.4484,-1.3555,0.0,0.0,0.0,0.0,0.0,0.0,0.0,0.0,0.0,0.0,0.0,0.0,0.0,0.0,0.0,0.0,0.0,0.0,0.0,0.0,0.0,0.0,0.0,0.0,0.0,0.0,0.0,0.0,0.0,0.0,0.0,0.0,0.0,0.0,0.0,0.0,0.0,0.0,0.0,0.0,0.0,0.0,0.0,0.0,0.0,0.0,0.0,0.0,0.0,0.0,0.0,0.0,0.0,-1.4401,-1.474,-1.4857,-1.4953,-1.4597,-1.3523,-1.2723,-1.2663,-1.1565,-1.0683,0.0,0.0,0.0,0.0,0.0,0.0,0.0,0.0,0.0,0.0,0.0,0.0,0.0,0.0,0.0,0.0,0.0,0.0,0.0,0.0,0.0,0.0,0.0,0.0,0.0,0.0,0.0,0.0,-0.9238,-0.9334,-0.8946,0.0,0.0,0.0,0.0,0.0,0.0,0.0,0.0,0.0,0.0,-1.4509,-1.5652,-1.6236,0.0,0.0,-1.6748,-1.6519,-1.598,-1.5834,-1.5453,-1.4262,-1.359,0.0,0.0,0.0,0.0,0.0,0.0,0.0,0.0,0.0,0.0,0.0,0.0,0.0,0.0,0.0,0.0,0.0,0.0,0.0,0.0,0.0,0.0,0.0,0.0,0.0,0.0,0.0,0.0,0.0,0.0,0.0,0.0,0.0,0.0,0.0,0.0,0.0,0.0,0.0,0.0,0.0,0.0,0.0,0.0,0.0,0.0,0.0,0.0,0.0,0.0,0.0,0.0,-1.4707,-1.5077,-1.5041,-1.4955,-1.4771,-1.3436,-1.2775,-1.2669,-1.1566,-1.0867,0.0,0.0,0.0,0.0,0.0,0.0,0.0,0.0,0.0,0.0,0.0,0.0,0.0,0.0,0.0,0.0,0.0,0.0,0.0,0.0,0.0,0.0,0.0,0.0,0.0,0.0,0.0,0.0,-0.9972,-0.9845,-0.9065,0.0,0.0,0.0,0.0,0.0,0.0,0.0,0.0,0.0,0.0,-1.5633,-1.6796,-1.7026,-1.7181,-1.7487,-1.738,-1.699,-1.6415,-1.6423,-1.5929,-1.4888,0.0,0.0,0.0,0.0,0.0,0.0,0.0,0.0,0.0,0.0,0.0,0.0,0.0,0.0,0.0,0.0,0.0,0.0,0.0,0.0,0.0,0.0,0.0,0.0,0.0,0.0,0.0,0.0,0.0,0.0,-0.6579,0.0,0.0,0.0,0.0,0.0,0.0,0.0,0.0,0.0,0.0,0.0,0.0,0.0,0.0,0.0,0.0,0.0,0.0,0.0,0.0,0.0,0.0,-1.5036,-1.554,-1.5326,-1.4946,-1.4686,-1.3411,-1.2691,-1.2393,-1.1823,-1.1172,-1.0704,0.0,0.0,0.0,0.0,0.0,0.0,0.0,0.0,0.0,0.0,0.0,0.0,0.0,0.0,0.0,0.0,0.0,0.0,0.0,0.0,0.0,0.0,0.0,0.0,0.0,0.0,-0.9524,-0.9927,-0.9895,0.0,0.0,0.0,0.0,0.0,0.0,0.0,0.0,0.0,0.0,-1.5783,-1.7046,-1.7798,-1.797,-1.7976,-1.7996,-1.7262,-1.6812,-1.6802,-1.6453,-1.5962,0.0,0.0,0.0,0.0,0.0,0.0,0.0,0.0,0.0,0.0,0.0,0.0,0.0,0.0,0.0,0.0,0.0,0.0,0.0,0.0,0.0,0.0,0.0,0.0,0.0,0.0,0.0,-0.793,-0.7665,0.0,0.0,0.0,0.0,0.0,0.0,0.0,0.0,0.0,0.0,0.0,-1.699,-1.7596,0.0,0.0,0.0,0.0,0.0,0.0,0.0,0.0,0.0,0.0,0.0,0.0,-1.5455,-1.5782,-1.5678,-1.5208,-1.4728,-1.3636,-1.2912,-1.2415,-1.1791,-1.1192,-1.0446,0.0,0.0,0.0,0.0,0.0,0.0,0.0,0.0,0.0,0.0,0.0,0.0,0.0,0.0,0.0,0.0,0.0,0.0,0.0,0.0,0.0,0.0,0.0,0.0,0.0,-0.9839,0.0,0.0,0.0,0.0,0.0,0.0,0.0,0.0,0.0,0.0,0.0,-1.4103,-1.557,-1.6981,-1.8039,-1.8498,-1.8525,-1.8321,0.0,0.0,0.0,0.0,0.0,0.0,0.0,0.0,0.0,0.0,0.0,0.0,0.0,0.0,-1.597,-1.4886,-1.5063,-1.5579,-1.6011,0.0,0.0,0.0,0.0,0.0,0.0,0.0,0.0,0.0,0.0,0.0,0.0,0.0,0.0,0.0,0.0,-0.887,0.0,0.0,0.0,0.0,0.0,0.0,0.0,0.0,-1.6247,-1.7441,-1.8503,-1.9127,-1.9376,0.0,-1.9092,-1.805,0.0,0.0,0.0,0.0,0.0,0.0,0.0,0.0,-1.5743,-1.5887,-1.5731,-1.5168,-1.4383,-1.3637,-1.2933,-1.243,-1.1894,-1.1294,-1.0609,-1.0107,-0.9659,0.0,0.0,0.0,0.0,0.0,0.0,0.0,0.0,0.0,0.0,0.0,0.0,0.0,0.0,0.0,0.0,0.0,0.0,0.0,0.0,0.0,0.0,0.0,-1.0841,0.0,0.0,0.0,0.0,0.0,0.0,0.0,0.0,0.0,-1.2593,-1.4061,-1.5558,-1.6748,-1.8052,-1.8864,-1.9093,0.0,0.0,0.0,0.0,0.0,0.0,0.0,-1.7077,-1.6675,-1.635,-1.5983,-1.584,-1.6262,-1.6692,-1.6836,0.0,0.0,-1.6358,-1.6391,-1.6849,-1.7202,-1.7713,-1.8218,-1.8836,-1.9308,-1.9799,0.0,0.0,0.0,0.0,0.0,0.0,0.0,0.0,-1.1701,-1.1591,0.0,-1.0535,0.0,0.0,0.0,0.0,0.0,-1.283,0.0,0.0,-1.7422,-1.8691,-2.006,-2.0211,-2.0493,-2.1109,-2.0815,-2.0388,-1.972,-1.7822,0.0,0.0,0.0,0.0,0.0,0.0,-1.6075,-1.5724,-1.5615,-1.494,-1.3831,-1.3565,-1.3049,-1.2271,-1.1857,-1.1484,-1.1172,-1.0616,-1.0161,-0.9842,-0.9001,0.0,0.0,0.0,0.0,0.0,0.0,0.0,0.0,0.0,0.0,0.0,0.0,0.0,0.0,0.0,0.0,0.0,0.0,0.0,0.0,-1.1653,0.0,0.0,0.0,0.0,0.0,0.0,0.0,0.0,0.0,0.0,-1.4376,-1.5662,-1.6967,-1.7915,0.0,0.0,0.0,0.0,-1.9153,-1.8681,-1.8375,-1.8068,-1.805,-1.7879,-1.7738,-1.7728,0.0,0.0,-1.7435,-1.774,-1.8177,-1.8501,-1.8936,-1.8988,-1.808,-1.7993,-1.8259,-1.8523,-1.8661,-1.9095,-1.9929,-2.0347,-2.0816,-1.6126,0.0,0.0,0.0,0.0,-1.3676,-1.3695,-1.3695,-1.3704,-1.3583,-1.337,-1.2938,0.0,0.0,0.0,0.0,0.0,0.0,-1.5611,-1.7134,-1.8139,-1.9205,-2.0316,-2.0577,-2.0746,-2.0953,-2.0876,-2.0773,-2.065,-1.984,-1.8752,-1.7423,0.0,0.0,0.0,0.0,-1.6635,-1.6506,-1.5981,-1.5138,-1.401,-1.3687,-1.3115,-1.2291,-1.1952,-1.1681,-1.1491,-1.1118,-1.0717,-1.031,-0.9747,0.0,0.0,0.0,0.0,0.0,0.0,0.0,0.0,0.0,0.0,0.0,0.0,0.0,0.0,0.0,0.0,0.0,0.0,0.0,-1.1829,-1.2706,-1.2924,0.0,0.0,0.0,0.0,0.0,0.0,0.0,0.0,0.0,-1.7008,-1.7514,-1.8107,0.0,0.0,-1.9761,-1.9501,-1.9391,-1.9384,-1.8906,-1.8721,0.0,0.0,-1.821,-1.8125,-1.7983,-1.7908,-1.787,-1.787,-1.8183,-1.8485,-1.8651,-1.8962,-1.9182,-1.8948,-1.9169,-1.9506,-1.979,-1.9937,-2.0083,-2.0669,-2.102,-2.1495,-1.8811,-1.7228,-1.6161,-1.5652,-1.5583,-1.5672,-1.5702,-1.5712,-1.5791,-1.5652,-1.5357,-1.5013,-1.4433,-1.3667,-1.347,0.0,0.0,0.0,-1.6583,-1.7866,-1.8565,-1.9507,-2.0563,-2.0697,-2.1028,-2.1264,-2.1149,-2.1009,-2.1108,-2.0861,-2.0094,-1.8936,0.0,0.0,-1.7978,-1.7551,-1.7124,-1.6529,-1.6048,-1.5223,-1.3786,-1.3501,-1.2895,-1.2291,-1.2054,-1.1857,-1.1708,-1.1409,-1.1131,-1.0853,-1.0365,-0.991,0.0,0.0,0.0,0.0,0.0,0.0,0.0,0.0,0.0,0.0,0.0,-0.8383,0.0,0.0,0.0,0.0,-1.1033,-1.2242,-1.327,-1.3744,0.0,0.0,0.0,0.0,0.0,0.0,0.0,-1.571,-1.6793,-1.7869,-1.8803,-1.9029,-1.9234,-1.9512,-1.998,-2.0105,-1.9871,0.0,-1.9936,-1.9453,-1.9238,-1.9115,-1.8827,-1.8798,-1.8589,-1.8324,-1.8295,-1.8295,-1.8295,-1.8615,-1.8935,-1.8935,-1.9254,-1.9573,-1.9573,-1.9813,-2.0029,-2.0177,-2.0134,-2.0441,-2.0899,-2.1357,-2.1498,-2.0845,-2.05,-1.8477,-1.749,-1.7374,-1.7449,-1.7521,-1.7521,-1.7714,-1.7572,-1.7174,-1.6676,-1.6201,-1.5773,-1.5564,0.0,-1.6175,-1.6786,-1.7673,-1.8833,-1.8856,-1.9522,-2.07,-2.0712,-2.1109,-2.176,-2.1356,-2.1255,-2.1268,-2.1028,-2.0781,-2.0526,-1.9899,-1.9241,-1.8464,-1.8047,-1.7405,-1.6254,-1.6075,-1.5161,-1.3513,-1.2888,-1.244,-1.2311,-1.2162,-1.2006,-1.185,-1.1579,-1.1416,-1.1375,-1.0853,-1.0412,-1.0107,0.0,0.0,0.0,0.0,0.0,0.0,0.0,0.0,0.0,0.0,0.0,0.0,0.0,0.0,0.0,-1.2614,0.0,-1.4857,-1.493,0.0,0.0,0.0,-1.4738,-1.5357,-1.5999,-1.6671,-1.6984,0.0,0.0,-1.9615,-2.0169,-2.0283,-2.0304,-2.0612,-2.0857,-2.0607,-2.0617,-2.0465,-2.012,-1.9978,-1.9835,-1.9346,-1.9202,-1.9067,-1.8721,-1.8711,-1.8683,-1.8519,-1.8818,-1.9144,-1.9124,-1.9479,-1.9785,-1.9795,-1.9592,-1.9836,-1.9748,-1.9833,-2.0148,-2.0922,-2.1246,-2.1391,-2.1491,-2.1082,-2.059,-1.9896,-1.8874,-1.8927,-1.8852,-1.8704,-1.8746,-1.8715,-1.8587,-1.8343,-1.7854,-1.7141,-1.6913,-1.6851,-1.6902,-1.7538,-1.8085,-1.8686,-1.9141,-1.9681,-2.0292,-2.0569,-2.0743,-2.0931,-2.0882,-2.1094,-2.1545,-2.1217,-2.1303,-2.15,-2.0955,-2.0133,-1.9233,-1.8433,-1.7672,-1.6878,-1.6283,-1.5219,-1.3677,-1.2951,-1.2488,-1.2454,-1.2311,-1.2162,-1.2013,-1.183,-1.1619,-1.1396,-1.1145,-1.0873,-1.0575,-0.9992,0.0,0.0,0.0,0.0,0.0,0.0,0.0,0.0,0.0,-0.9724,-0.9681,0.0,-1.1202,0.0,-1.3257,-1.4603,-1.522,-1.5838,0.0,0.0,-1.6646,-1.6816,-1.7335,-1.7613,-1.8127,-1.8607,-1.9427,-2.0022,-2.0547,-2.0676,-2.0815,-2.0996,-2.0867,-2.0727,-2.0627,-2.0627,-2.0627,-2.0486,-2.0119,-1.9716,-1.9571,-1.9375,-1.9136,-1.8634,-1.8514,-1.8247,-1.7906,-1.7781,-1.7855,-1.7846,-1.7846,-1.8019,-1.8028,-1.801,-1.8328,-1.8875,-1.9493,-2.0138,-2.0621,-2.0943,-2.1424,-2.1986,-2.1728,-2.1523,-2.0985,-2.0274,-2.0059,-1.9898,-1.9779,-1.9661,-1.9564,-1.9435,-1.9101,-1.8656,-1.8269,-1.8142,-1.8089,-1.8089,-1.8357,-1.8704,-1.9127,-1.9532,-1.9884,-2.0167,-2.0592,-2.0733,-2.0733,-2.1028,-2.1242,-2.1518,-2.1387,-2.1317,-2.1462,-2.0991,-2.0531,-1.9949,-1.8945,-1.796,-1.7237,-1.5897,-1.4796,-1.3953,-1.3106,-1.2603,-1.2596,-1.24,-1.225,-1.2162,-1.1952,-1.1755,-1.1592,-1.1382,-1.1158,-1.0921,-1.0473,-1.0127,0.0,0.0,0.0,0.0,0.0,0.0,0.0,0.0,0.0,0.0,0.0,-1.1985,-1.3021,-1.4173,-1.5176,-1.5999,-1.6758,-1.73,-1.7752,-1.7976,-1.8224,-1.8823,-1.8988,-1.9264,-1.9849,-2.0178,-2.0453,-2.0888,-2.1007,-2.1157,-2.1394,-2.1263,-2.11,-2.11,-2.0947,-2.0815,-2.092,-2.0362,-1.9943,-1.9442,-1.9212,-1.8781,-1.8434,-1.8184,-1.7944,-1.7768,-1.7688,-1.7618,-1.7618,-1.7618,-1.7618,-1.7618,-1.7618,-1.7785,-1.8283,-1.8938,-1.9561,-2.0313,-2.0693,-2.1095,-2.2363,-2.2299,-2.1879,-2.1577,-2.134,-2.0888,-2.0651,-2.0544,-2.035,-2.0124,-1.9865,-1.9402,-1.9198,-1.9187,-1.9155,-1.9155,-1.9155,-1.9155,-1.9289,-1.958,-1.9726,-1.9871,-2.0306,-2.0584,-2.0873,-2.0873,-2.1186,-2.1354,-2.1535,-2.1378,-2.1269,-2.1026,-2.0808,-2.0601,-2.0384,-1.9436,-1.8381,-1.7195,-1.5342,-1.4229,-1.4229,-1.3296,-1.2745,-1.2718,-1.2481,-1.2332,-1.2284,-1.2033,-1.1884,-1.185,-1.1579,-1.1362,-1.1219,-1.0921,-1.0575,0.0,-1.0005,0.0,0.0,0.0,0.0,0.0,0.0,0.0,0.0,-1.1739,-1.2728,-1.4543,-1.5079,-1.5995,-1.7049,-1.738,-1.7961,-1.8663,-1.8866,-1.9183,-2.0043,-2.0116,-2.0294,-2.0608,-2.0813,-2.0963,-2.1017,-2.119,-2.1405,-2.162,-2.1663,-2.152,-2.1541,-2.1189,-2.1076,-2.1275,-2.0823,-2.0011,-1.9373,-1.8873,-1.8372,-1.8022,-1.7826,-1.78,-1.763,-1.7604,-1.7587,-1.7417,-1.74,-1.7578,-1.7595,-1.7587,-1.7756,-1.7739,-1.8095,-1.8903,-1.9757,-2.0306,-2.0625,-2.2503,-2.232,-2.2245,-2.2072,-2.1836,-2.1545,-2.1093,-2.0565,-2.0511,-2.0361,-2.0113,-1.9639,-1.9424,-1.9413,-1.923,-1.9155,-1.9155,-1.9155,-1.9144,-1.93,-1.958,-1.9726,-1.9871,-2.0161,-2.0439,-2.0451,-2.0451,-2.0857,-2.1361,-2.1055,-2.1105,-2.1801,-2.1114,-2.0802,-2.1035,0.0,0.0,0.0,-1.5781,-1.4859,-1.4229,-1.372,-1.3165,-1.2739,-1.2678,0.0,-1.2305,-1.2237,-1.2149,-1.202,-1.1735,0.0,0.0,0.0,0.0,0.0,0.0,0.0,0.0,0.0,0.0,0.0,-1.1389,-1.1495,-1.1582,-1.2647,-1.3802,-1.5023,-1.5553,-1.616,-1.7237,-1.8197,-1.8886,-1.9128,-1.9792,-2.0312,-2.0409,-2.0569,-2.0845,-2.0845,-2.106,-2.1286,-2.1448,-2.1523,-2.1653,-2.1879,-2.1911,-2.1819,-2.1663,-2.1348,-2.1264,-2.1306,-2.0458,-1.9599,-1.9241,-1.873,-1.8192,-1.787,-1.7396,-1.6968,-1.6615,-1.616,-1.574,-1.5748,-1.6065,-1.6244,-1.6244,-1.6576,-1.6941,-1.7247,-1.7545,-1.811,-1.9109,-1.9764,-2.013,-2.2729,0.0,-2.2385,-2.2266,0.0,-2.19,-2.1523,-2.1071,-2.0834,-2.0608,-2.0361,-2.0005,-1.9854,-1.9844,-1.9596,-1.9488,-1.9499,-1.9499,-1.9499,-1.9488,-1.9647,-1.9785,-1.9785,-2.0229,-2.0376,-2.0376,-2.0524,-2.0957,-2.1349,-2.1199,-2.1243,-2.1608,-2.1145,-2.0968,-2.1042,-2.0538,-1.9424,-1.7563,-1.6368,-1.561,-1.5116,-1.4231,-1.3507,-1.3276,0.0,0.0,0.0,0.0,0.0,0.0,0.0,0.0,0.0,0.0,0.0,-1.1382,-1.1172,-1.1145,-1.1362,-1.1382,-1.1484,-1.1708,-1.1993,-1.2303,-1.2352,-1.3351,-1.4324,-1.5308,-1.5876,-1.6581,-1.7554,-1.8456,-1.9063,-1.9432,-2.0095,-2.0464,-2.0581,-2.0857,-2.1125,-2.1243,-2.1362,-2.1534,-2.176,-2.1793,-2.19,-2.2116,-2.199,-2.1726,-2.1744,-2.1449,-2.0996,-2.0416,-1.9838,-1.9259,-1.8663,-1.8164,-1.7639,-1.7096,-1.6681,-1.6284,-1.5927,-1.5685,-1.5458,-1.5458,-1.5632,-1.5798,-1.5798,-1.5979,-1.6325,-1.6663,-1.7083,-1.7471,-1.8414,-1.9084,-1.9761,-2.2934,-2.2729,-2.2492,-2.2395,-2.2374,-2.2137,-2.19,-2.1653,0.0,0.0,0.0,-2.0382,-2.0274,-2.0264,-2.0059,-1.9973,-1.9973,-1.9973,-1.9973,-1.9973,-1.9973,-1.9973,-1.9973,-2.0428,-2.0569,-2.058,-2.0894,-2.1148,-2.134,-2.134,-2.1322,-2.1223,-2.1246,-2.1075,-2.1028,-2.0748,-2.013,-1.8856,-1.7182,-1.6278,-1.6137,-1.4841,-1.3924,-1.3874,-1.3429,-1.2956,-1.2773,-1.2651,-1.2528,-1.2413,-1.2264,-1.2176,-1.2176,-1.2033,-1.1952,-1.1945,-1.1843,-1.1837,-1.1979,-1.1993,-1.2054,-1.221,-1.2447,-1.2776,-1.3251,-1.3832,-1.4597,-1.5512,-1.613,-1.6773,-1.792,-1.8413,-1.8818,-1.9514,-2.0015,-2.0268,-2.0486,-2.1015,-2.1253,-2.1466,-2.1674,-2.1771,-2.1997,-2.2029,-2.2126,-2.2161,-2.1884,-2.1604,-2.1577,-2.0968,-2.0392,-1.9488,-1.9177,-1.8681,-1.7822,-1.7288,-1.6761,-1.6401,-1.5873,-1.5528,-1.5528,-1.5528,-1.5528,-1.533,-1.5528,-1.5513,-1.5521,-1.5682,-1.5888,-1.6264,-1.6624,-1.7169,-1.7554,-1.8435,-1.912,-2.3031,-2.2977,-2.274,-2.2632,-2.2611,-2.2385,-2.2137,-2.1868,-2.12,-2.0888,-2.0834,-2.0619,-2.0511,-2.0511,-2.0479,-2.0468,-2.0457,-2.0457,-2.0457,-2.0468,-2.0457,-2.0457,-2.0468,-2.0613,-2.0613,-2.0613,-2.0613,-2.079,-2.1124,-2.0823,-2.0943,-2.132,-2.1184,-2.1082,-2.148,-2.1063,-2.0662,-2.0316,-1.8847,-1.7521,-1.6503,-1.5462,-1.4645,-1.4052,-1.3514,-1.3207,-1.2942,-1.2908,-1.2888,-1.2868,-1.2718,-1.2637,-1.263,-1.2488,-1.2406,-1.2406,-1.2386,-1.2447,-1.2583,-1.2603,-1.2671,-1.282,-1.2874,-1.3137,-1.3901,-1.4027,-1.4766,-1.5897,-1.6081,-1.666,-1.7645,-1.8154,-1.8711,-1.9238,-1.9755,-2.0171,-2.0395,-2.0755,-2.1168,-2.1389,-2.1755,-2.2008,-2.2065,-2.2107,-2.2193,-2.2052,-2.176,-2.1445,-2.0617,-2.0047,-1.9864,-1.9195,-1.8514,-1.7814,-1.7288,-1.6753,-1.6401,-1.5881,-1.5352,-1.5168,-1.5175,-1.4822,-1.4653,-1.4476,-1.4822,-1.4999,-1.5183,-1.5528,-1.5594,-1.5876,-1.627,-1.6845,-1.697,-1.7902,-1.8766,-2.3278,-2.3052,-2.2923,-2.2805,-2.2665,-2.2428,-2.2277,-2.2126,-2.1685,-2.1405,-2.1254,-2.091,-2.0748,-2.0737,-2.0619,-2.0554,-2.0554,-2.0554,-2.0554,-2.0554,-2.0554,-2.0554,-2.0554,-2.0554,-2.0554,-2.0554,-2.0554,-2.0776,-2.1053,-2.0906,-2.1101,-2.161,-2.1579,-2.1588,-2.1793,-2.1648,-2.1264,-2.0807,-1.9418,-1.8343,-1.7256,-1.6414,-1.5485,-1.466,-1.4323,-1.3881,-1.3329,-1.3322,-1.3247,-1.3085,-1.301,-1.2935,-1.2854,-1.2786,-1.2752,-1.2752,-1.2752,-1.2779,-1.2847,-1.2854,-1.2888,-1.2956,-1.303,-1.3374,-1.3778,-1.4076,-1.4586,-1.5481,-1.5971,-1.6529,-1.7034,-1.7711,-1.8281,-1.865,-1.9328,-1.9911,-2.011,-2.0483,-2.0909,-2.1114,-2.1325,-2.1408,-2.1807,-2.1838,-2.1687,-2.1638,-2.1383,-2.0637,-1.986,-1.9346,-1.892,-1.8392,-1.7998,-1.7463,-1.6936,-1.6401,-1.5881,-1.5352,-1.4999,-1.4646,-1.4646,-1.4476,-1.4299,-1.4299,-1.4476,-1.468,-1.4743,-1.4942,-1.5191,-1.5499,-1.5723,-1.6129,-1.6734,-1.7721,-1.863,-2.3178,-2.285,-2.2733,-2.2553,-2.232,-2.215,-2.2076,-2.2044,-2.199,-2.1776,-2.1563,-2.1276,-2.106,-2.1039,-2.0834,-2.0727,-2.0727,-2.0727,-2.0727,-2.0727,-2.0727,-2.0727,-2.0727,-2.0727,-2.0727,-2.0737,-2.077,-2.0899,-2.105,-2.1114,-2.133,-2.1696,-2.1889,-2.1997,-2.2051,-2.2051,-2.1663,-2.1019,-2.0187,-1.925,-1.8066,-1.7212,-1.6339,-1.5444,-1.4929,-1.4344,-1.3858,-1.3682,-1.3566,-1.3342,-1.3322,-1.3275,-1.3166,-1.3159,-1.3159,-1.3159,-1.3159,-1.3159,-1.3159,-1.3159,-1.3159,-1.3166,-1.3261,-1.3487,-1.3809,-1.4037,-1.4467,-1.5178,-1.5837,-1.6237,-1.6723,-1.7416,-1.7826,-1.819,-1.8875,-1.9461,-1.9654,-2.0199,-2.0617,-2.0828,-2.0878,-2.112,-2.1262,-2.1342,-2.1229,-2.1134,-2.0548,-1.9999,-1.9419,-1.8733,-1.8237,-1.7695,-1.7596,-1.7226,-1.6471,-1.5941,-1.5395,-1.4836,-1.4646,-1.4476,-1.4299,-1.4299,-1.4326,-1.434,-1.4353,-1.4414,-1.4529,-1.4563,-1.4812,-1.5301,-1.5526,-1.5906,-1.688,-1.7884,-1.8826,-2.2454,-2.2352,-2.1985,-2.1679,-2.1486,-2.1445,-2.1435,-2.1404,-2.1553,-2.1609,-2.1525,-2.1595,-2.1545,-2.1523,-2.1308,-2.12,-2.12,-2.1211,-2.12,-2.119,-2.1211,-2.1211,-2.12,-2.12,-2.1211,-2.1233,-2.1405,-2.1491,-2.1545,-2.1749,-2.1889,-2.1954,-2.1986,-2.2105,-2.2277,-2.2299,-2.1915,-2.1262,-2.1078,-2.0202,-1.8462,-1.7588,-1.6808,-1.6136,-1.527,-1.4671,-1.4529,-1.3995,-1.381,-1.3783,-1.377,-1.377,-1.3749,-1.3749,-1.3749,-1.3743,-1.3743,-1.3763,-1.3749,-1.3756,-1.3736,-1.3756,-1.3743,-1.3756,-1.3756,-1.4259,-1.4652,-1.5285,-1.5365,-1.5948,-1.676,-1.7118,-1.7363,-1.7882,-1.8415,-1.8827,-1.9011,-1.9742,-2.0334,-2.0558,-2.0915,-2.1282,-2.1159,-2.1299,-2.1136,-2.0591,-2.0101,-1.9446,-1.8785,-1.8431,-1.7878,-1.7262,-1.7065,-1.6806,-1.6144,-1.5563,-1.517,-1.4524,-1.4312,-1.4333,-1.4353,-1.4346,-1.4333,-1.4475,-1.4496,-1.455,-1.4658,-1.4719,-1.4774,-1.5087,-1.5512,-1.6088,-1.715,-1.7747,-1.8433,-2.2414,-2.2283,-2.2101,-2.1807,-2.1504,-2.1363,-2.1302,-2.1292,-2.1384,-2.1343,-2.1474,-2.1515,-2.163,-2.1814,-2.1588,-2.148,-2.147,-2.134,-2.1276,-2.1276,-2.1276,-2.1351,-2.147,-2.148,-2.1545,-2.1685,-2.1793,-2.1836,-2.1868,-2.2062,-2.2191,-2.2212,-2.2331,-2.2449,-2.2546,-2.2686,-2.2284,-2.1494,-2.1625,-2.0989,-1.9355,-1.8453,-1.7597,-1.684,-1.6125,-1.5395,-1.4814,-1.4632,-1.4416,-1.3987,-1.398,-1.3939,-1.3844,-1.3838,-1.3838,-1.3838,-1.3838,-1.3838,-1.3838,-1.3838,-1.3838,-1.3838,-1.3838,-1.3838,-1.3838,-1.4016,-1.4295,-1.4872,-1.5348,-1.5884,-1.6285,-1.68,-1.7214,-1.7725,-1.8101,-1.8515,-1.8721,-1.9259,-1.9643,-1.9737,-2.0365,-2.0618,-2.0647,-2.0625,-2.0299,-1.9943,-1.9443,-1.8923,-1.8668,-1.8149,-1.7596,-1.7227,-1.6672,-1.6184,-1.5796,-1.555,-1.516,-1.4757,-1.4563,-1.4563,-1.4543,-1.4557,-1.4584,-1.4638,-1.4645,-1.4706,-1.4848,-1.4882,-1.4923,-1.5224,-1.5466,-1.6047,-1.686,-1.7429,-1.7949,-2.1984,-2.1837,-2.1595,-2.1171,-2.0812,-2.0783,-2.087,-2.086,-2.0985,-2.1128,-2.1108,-2.1474,-2.165,-2.18,-2.168,-2.1717,-2.1696,-2.1545,-2.147,-2.147,-2.147,-2.1556,-2.1706,-2.1717,-2.1803,-2.1954,-2.2051,-2.2116,-2.2169,-2.2331,-2.246,-2.2546,-2.2697,-2.2815,-2.2891,-2.3074,-2.2786,-2.208,-2.1888,-2.1432,-2.0308,-1.9346,-1.832,-1.7435,-1.6904,-1.6186,-1.5476,-1.5298,-1.4893,-1.4434,-1.4434,-1.4204,-1.4095,-1.4089,-1.4068,-1.4027,-1.3987,-1.3966,-1.3966,-1.3966,-1.3966,-1.3966,-1.3966,-1.3966,-1.3966,-1.3966,-1.4139,-1.4485,-1.5167,-1.5676,-1.5786,-1.647,-1.6894,-1.7231,-1.7776,-1.8192,-1.8322,-1.8725,-1.9111,-1.9129,-1.9646,-1.998,-1.9867,-1.9806,-1.9607,-1.9236,-1.8911,-1.8576,-1.8516,-1.7795,-1.7234,-1.7063,-1.6306,-1.5825,-1.559,-1.535,-1.516,-1.4929,-1.4719,-1.4713,-1.474,-1.4733,-1.478,-1.4767,-1.4794,-1.4855,-1.4984,-1.5031,-1.5038,-1.5133,-1.5563,-1.5938,-1.6306,-1.6868,-1.746,-2.0584,-2.0363,-1.9831,-1.9452,-1.9239,-1.9409,-1.9673,-1.9646,-2.0356,-2.0617,-2.0607,-2.1108,-2.1272,-2.1384,-2.1652,-2.1965,-2.1976,-2.1922,-2.1889,-2.19,-2.19,-2.1933,-2.1954,-2.1965,-2.1976,-2.1883,-2.2054,-2.2257,-2.2622,-2.2675,-2.2783,-2.2998,-2.3031,-2.3138,-2.3311,-2.3365,-2.3208,-2.2673,-2.2179,-2.182,-2.1093,-2.0166,-1.9248,-1.8355,-1.7435,-1.6876,-1.6703,-1.5978,-1.5419,-1.5419,-1.486,-1.4685,-1.4679,-1.4672,-1.4597,-1.4475,-1.4346,-1.4278,-1.4278,-1.4278,-1.4278,-1.4278,-1.4278,-1.4278,-1.4278,-1.4278,-1.4278,-1.4278,-1.4801,-1.5096,-1.5329,-1.5979,-1.6388,-1.6538,-1.7279,-1.7639,-1.7839,-1.8531,-1.8769,-1.8804,-1.8954,-1.9319,-1.9505,-1.9367,-1.9271,-1.9031,-1.8905,-1.8541,-1.7795,-1.7437,-1.6876,-1.6314,-1.5924,-1.5882,-1.5725,-1.5327,-1.508,-1.4855,-1.4835,-1.4774,-1.4746,-1.4753,-1.4841,-1.4903,-1.4936,-1.5011,-1.512,-1.5167,-1.5153,-1.5187,-1.5215,-1.5591,-1.6176,-1.6516,-1.7131,-2.0037,-2.0019,-1.9472,-1.9349,-1.9261,-1.9257,-1.9097,-1.9151,-1.9256,-1.9499,-1.9746,-2.025,-2.0607,-2.0945,-2.1312,-2.1661,-2.1694,-2.1537,-2.163,-2.1965,-2.163,-2.1547,-2.1684,-2.1366,-2.1449,-2.1573,-2.1656,-2.1811,-2.2029,-2.2174,-2.2475,-2.2715,-2.2736,-2.2966,-2.3408,-2.3548,-2.3443,-2.2914,-2.2858,-2.2586,-2.1664,-2.1105,-2.0373,-1.963,-1.849,-1.7475,-1.6923,-1.6196,-1.5825,-1.5462,-1.4915,-1.474,-1.474,-1.474,-1.4719,-1.4665,-1.4611,-1.4584,-1.4584,-1.4584,-1.4584,-1.4584,-1.4584,-1.457,-1.4584,-1.4577,-1.4584,-1.4577,-1.4757,-1.4903,-1.5012,-1.5572,-1.6034,-1.6533,-1.6928,-1.7331,-1.7616,-1.8049,-1.845,-1.8476,-1.8975,-1.9175,-1.8945,-1.9014,-1.8854,-1.8168,-1.7997,-1.7624,-1.7055,-1.6681,-1.6314,-1.5938,-1.5556,-1.5355,-1.5307,-1.5293,-1.5086,-1.5059,-1.5031,-1.5025,-1.5011,-1.4991,-1.5052,-1.5045,-1.5079,-1.5092,-1.5174,-1.5201,-1.5208,-1.5215,-1.5235,-1.5513,-1.5891,-1.6488,-1.6957,-1.9302,-1.9276,-1.9164,-1.8928,-1.8903,-1.8906,-1.8742,-1.8792,-1.8731,-1.8956,-1.9156,-1.9471,-1.9793,-2.0095,-2.0434,-2.0875,-2.1241,-2.1258,-2.1525,-2.1694,-2.1525,-2.1439,-2.1402,-2.1251,-2.1191,-2.1393,-2.1484,-2.1595,-2.1737,-2.1888,-2.2179,-2.2609,-2.2788,-2.302,-2.3465,-2.3784,-2.3689,-2.3357,-2.33,-2.3005,-2.2462,-2.1714,-2.1149,-2.0557,-1.9411,-1.8367,-1.7636,-1.6903,-1.6345,-1.5978,-1.5434,-1.5066,-1.4882,-1.4835,-1.4814,-1.4814,-1.4767,-1.474,-1.474,-1.474,-1.4733,-1.474,-1.474,-1.474,-1.474,-1.474,-1.474,-1.474,-1.474,-1.474,-1.4706,-1.509,-1.5556,-1.619,-1.6385,-1.661,-1.7081,-1.7515,-1.7579,-1.7827,-1.8292,-1.8425,-1.8338,-1.8176,-1.7803,-1.725,-1.7242,-1.7055,-1.6494,-1.6119,-1.5751,-1.5751,-1.5375,-1.5181,-1.516,-1.5153,-1.5153,-1.5133,-1.5126,-1.516,-1.5181,-1.5181,-1.5181,-1.5181,-1.5181,-1.5181,-1.5194,-1.5228,-1.5248,-1.5262,-1.5371,-1.5671,-1.6081,-1.6508,-1.6965,-1.8557,-1.8176,-1.8176,-1.816,-1.8127,-1.835,-1.8459,-1.8575,-1.8802,-1.8801,-1.8804,-1.8787,-1.9025,-1.925,-1.9397,-1.9718,-2.0404,-2.0885,-2.1231,-2.1404,-2.1251,-2.1262,-2.1302,-2.1128,-2.1064,-2.1283,-2.167,-2.178,-2.179,-2.184,-2.1951,-2.2262,-2.2666,-2.3112,-2.3352,-2.3881,-2.4097,-2.3913,-2.374,-2.3383,-2.3189,-2.2452,-2.1714,-2.1149,-2.0187,-1.9445,-1.8896,-1.7779,-1.7009,-1.6644,-1.609,-1.5737,-1.5126,-1.5038,-1.497,-1.495,-1.4841,-1.476,-1.476,-1.4774,-1.4787,-1.4787,-1.4767,-1.4787,-1.4801,-1.4787,-1.4787,-1.4794,-1.4787,-1.4774,-1.478,-1.4753,-1.5104,-1.5469,-1.5833,-1.6204,-1.6249,-1.6345,-1.6495,-1.6793,-1.7211,-1.7234,-1.686,-1.6868,-1.6868,-1.6681,-1.6681,-1.6494,-1.6119,-1.5751,-1.5744,-1.5368,-1.5181,-1.5181,-1.5181,-1.5181,-1.5181,-1.5174,-1.5167,-1.5181,-1.5181,-1.5181,-1.5181,-1.5181,-1.5181,-1.5187,-1.5262,-1.5303,-1.5371,-1.5411,-1.5533,-1.5628,-1.605,-1.6278,-1.6731,-1.7616,-1.7234,-1.7234,-1.7242,-1.7234,-1.7181,-1.7474,-1.754,-1.766,-1.8085,-1.8459,-1.8322,-1.8583,-1.8858,-1.8751,-1.8864,-1.9214,-1.9388,-2.0085,-2.0965,-2.0965,-2.087,-2.0803,-2.0305,-2.0055,-1.9894,-2.0468,-2.0752,-2.0771,-2.126,-2.1568,-2.1975,-2.2525,-2.2933,-2.3373,-2.3935,-2.4118,-2.4118,-2.3935,-2.3751,-2.3383,-2.2831,-2.2083,-2.1714,-2.0788,-2.0037,-1.9488,-1.8176,-1.725,-1.6681,-1.6119,-1.5751,-1.5362,-1.514,-1.512,-1.5113,-1.5072,-1.5045,-1.5045,-1.5038,-1.5031,-1.5038,-1.5038,-1.5045,-1.5045,-1.5038,-1.5031,-1.5038,-1.5045,-1.5045,-1.5045,-1.5045,-1.5176,-1.5639,-1.5809,-1.6037,-1.6295,-1.6562,-1.6621,-1.6658,-1.6868,-1.6868,-1.6681,-1.6681,-1.6508,-1.6133,-1.6133,-1.5953,-1.557,-1.541,-1.5368,-1.5181,-1.5181,-1.5201,-1.5215,-1.5208,-1.5181,-1.5181,-1.5181,-1.5181,-1.5181,-1.5181,-1.5181,-1.5187,-1.5187,-1.5235,-1.5309,-1.5404,-1.5486,-1.5581,-1.5689,-1.575,-1.5791,-1.623,-1.6686,-1.7055,-1.6673,-1.6673,-1.6673,-1.6673,-1.6673,-1.6808,-1.7088,-1.708,-1.7356,-1.7746,-1.7813,-1.8074,-1.8535,-1.8423,-1.8557,-1.8725,-1.8734,-1.9256,-2.0295,-2.0044,-1.9962,-2.0149,-1.9715,-1.9437,-1.9217,-1.9768,-1.9858,-2.0051,-2.0538,-2.0973,-2.1344,-2.2083,-2.2637,-2.3199,-2.3557,-2.3935,-2.4118,-2.4118,-2.3935,-2.3567,-2.3199,-2.2677,-2.2192,-2.1272,-2.0563,-1.9868,-1.8756,-1.7781,-1.7177,-1.6452,-1.592,-1.535,-1.5357,-1.533,-1.5276,-1.5262,-1.5242,-1.5194,-1.5167,-1.5181,-1.5181,-1.5181,-1.5181,-1.5181,-1.5181,-1.5181,-1.5181,-1.5174,-1.5181,-1.5174,-1.5181,-1.532,-1.5424,-1.5603,-1.5638,-1.6104,-1.6306,-1.6306,-1.6119,-1.6306,-1.6306,-1.6119,-1.6184,-1.6017,-1.5835,-1.5695,-1.5737,-1.5357,-1.5364,-1.5343,-1.5323,-1.5309,-1.5309,-1.5276,-1.5235,-1.5187,-1.5181,-1.5181,-1.5181,-1.5181,-1.5181,-1.5181,-1.5215,-1.5228,-1.5303,-1.5384,-1.5547,-1.5662,-1.575,-1.5832,-1.59,-1.5947,-1.6179,-1.6616,-1.7055,-1.6681,-1.6681,-1.6494,-1.6486,-1.6494,-1.6486,-1.6673,-1.6666,-1.677,-1.7203,-1.7141,-1.7429,-1.8043,-1.7969,-1.8313,-1.8716,-1.8862,-1.887,-1.8844,-1.8766,-1.8766,-1.9112,-1.9288,-1.9192,-1.9245,-1.9569,-1.9666,-1.9692,-2.0259,-2.0436,-2.0676,-2.1625,-2.2142,-2.2748,-2.3251,-2.3836,-2.4226,-2.4194,-2.4204,-2.4009,-2.363,-2.3344,-2.2783,-2.2053,-2.1178,-2.0348,-1.9637,-1.8822,-1.7741,-1.6877,-1.6166,-1.5622,-1.5635,-1.554,-1.5432,-1.5425,-1.5357,-1.5255,-1.5262,-1.5248,-1.5255,-1.5255,-1.5208,-1.5255,-1.5269,-1.5269,-1.5262,-1.5248,-1.5235,-1.5242,-1.5242,-1.5235,-1.5215,-1.5375,-1.5362,-1.5194,-1.5584,-1.58,-1.5619,-1.5591,-1.5786,-1.5444,-1.5547,-1.5404,-1.5445,-1.552,-1.556,-1.5581,-1.556,-1.5608,-1.556,-1.5466,-1.5445,-1.5425,-1.5398,-1.535,-1.535,-1.5316,-1.5269,-1.5235,-1.5221,-1.5235,-1.5262,-1.533,-1.5398,-1.5499,-1.5669,-1.5798,-1.5872,-1.5961,-1.6049,-1.6076,-1.6275,-1.6275,-1.5938,-1.5556,-1.5556,-1.5556,-1.5556,-1.5556,-1.5744,-1.6119,-1.6126,-1.6471,-1.6785,-1.6672,-1.6796,-1.6919,-1.7167,-1.7286,-1.7491,-1.7837,-1.8093,-1.8193,-1.7794,-1.8151,-1.86,-1.8945,-1.8854,-1.8677,-1.8913,-1.9185,-1.9304,-2.0073,-2.07,-2.0846,-2.1763,-2.2547,-2.3122,-2.3467,-2.4062,-2.4624,-2.4613,-2.4603,-2.4603,-2.4228,-2.3707,-2.3182,-2.2635,-2.1716,-2.0828,-2.0001,-1.9019,-1.752,-1.6758,-1.6208,-1.5655,-1.5655,-1.5635,-1.5594,-1.5574,-1.556,-1.5527,-1.5506,-1.5513,-1.552,-1.5486,-1.552,-1.552,-1.5513,-1.552,-1.552,-1.552,-1.5506,-1.5513,-1.5506,-1.5506,-1.5493,-1.5337,-1.5248,-1.5323,-1.554,-1.5581,-1.5493,-1.5698,-1.5493,-1.5499,-1.5533,-1.5574,-1.5588,-1.5628,-1.5669,-1.5696,-1.5689,-1.571,-1.5655,-1.5588,-1.5588,-1.5574,-1.5554,-1.554,-1.5554,-1.5506,-1.5418,-1.5357,-1.5303,-1.5337,-1.5371,-1.5493,-1.5574,-1.5676,-1.5811,-1.59,-1.5981,-1.6022,-1.6083,-1.6083,-1.6076,-1.6076,-1.5744,-1.5181,-1.5181,-1.5181,-1.5181,-1.5181,-1.5368,-1.5563,-1.5563,-1.5938,-1.6284,-1.6219,-1.6361,-1.6532,-1.6811,-1.6773,-1.6766,-1.7125,-1.738,-1.7266,-1.7088,-1.7273,-1.7675,-1.7957,-1.8022,-1.8094,-1.829,-1.8584,-1.9104,-1.9898,-2.0339,-2.0783,-2.1392,-2.2344,-2.3263,-2.3473,-2.4051,-2.4608,-2.4797,-2.4797,-2.4797,-2.4619,-2.4304,-2.3776,-2.3244,-2.2499,-2.1063,-2.0208,-1.9232,-1.7989,-1.7186,-1.6796,-1.621,-1.5825,-1.5798,-1.5744,-1.573,-1.571,-1.5649,-1.5635,-1.5635,-1.5635,-1.5635,-1.5635,-1.5628,-1.5635,-1.5635,-1.5628,-1.5635,-1.5635,-1.5635,-1.5635,-1.5635,-1.5608,-1.5479,-1.5411,-1.5499,-1.5506,-1.5547,-1.5608,-1.5635,-1.5635,-1.5642,-1.5689,-1.5723,-1.5744,-1.5805,-1.5832,-1.5845,-1.5818,-1.5805,-1.5784,-1.5744,-1.573,-1.5703,-1.5669,-1.5649,-1.5669,-1.5669,-1.5581,-1.5533,-1.5452,-1.5466,-1.5533,-1.5655,-1.575,-1.5832,-1.5906,-1.5981,-1.6042,-1.6076,-1.6083,-1.6083,-1.6083,-1.6083,-1.6119,-1.5181,-1.5181,-1.5181,-1.5181,-1.5181,-1.5181,-1.5181,-1.5181,-1.5563,-1.5744,-1.5744,-1.6097,-1.6494,-1.6442,-1.6658,-1.6658,-1.6808,-1.6644,-1.6658,-1.6658,-1.6666,-1.6711,-1.6913,-1.7169,-1.7647,-1.7686,-1.82,-1.8704,-1.9321,-1.9914,-2.036,-2.0927,-2.1849,-2.3053,-2.3405,-2.3935,-2.4557,-2.4958,-2.4969,-2.4969,-2.4969,-2.4673,-2.4214,-2.3658,-2.2577,-2.1325,-2.0414,-1.9618,-1.8647,-1.8069,-1.7437,-1.685,-1.6467,-1.6015,-1.5906,-1.5872,-1.5832,-1.573,-1.573,-1.5703,-1.5723,-1.5716,-1.5683,-1.5723,-1.5737,-1.5737,-1.5744,-1.5689,-1.5723,-1.5723,-1.5703,-1.5723,-1.573,-1.5696,-1.5689,-1.5683,-1.5669,-1.5662,-1.5683,-1.5689,-1.5683,-1.5716,-1.5784,-1.5872,-1.5879,-1.594,-1.5961,-1.5974,-1.5967,-1.5974,-1.5995,-1.594,-1.5879,-1.5832,-1.5784,-1.5764,-1.5757,-1.5778,-1.575,-1.5737,-1.5683,-1.5662,-1.5703,-1.5805,-1.5859,-1.59,-1.5981,-1.6049,-1.6069,-1.6076,-1.6083,-1.6083,-1.6083,-1.6083,-1.5744,-1.5181,-1.5181,-1.5181,-1.5181,-1.5181,-1.5181,-1.5181,-1.5181,-1.5368,-1.5368,-1.5368,-1.5368,-1.5556,-1.5938,-1.6126,-1.6126,-1.6306,-1.6494,-1.6126,-1.6126,-1.5828,-1.5899,-1.6496,-1.6897,-1.7162,-1.7643,-1.7982,-1.8495,-1.9126,-1.9961,-2.0667,-2.1031,-2.2051,-2.3013,-2.3555,-2.4197,-2.4777,-2.5153,-2.5324,-2.5313,-2.5324,-2.5153,-2.4646,-2.387,-2.2721,-2.1594,-2.0817,-2.0235,-1.9643,-1.8465,-1.7489,-1.707,-1.6474,-1.6056,-1.6035,-1.6022,-1.6008,-1.5988,-1.5961,-1.5981,-1.5954,-1.5947,-1.5988,-1.5988,-1.5967,-1.5974,-1.5981,-1.5988,-1.5954,-1.5947,-1.5974,-1.5961,-1.5947,-1.5954,-1.5961,-1.5961,-1.5879,-1.5859,-1.5934,-1.5961,-1.5981,-1.5974,-1.5974,-1.6022,-1.6035,-1.6049,-1.6076,-1.6083,-1.6083,-1.6083,-1.6083,-1.6049,-1.5974,-1.5961,-1.592,-1.59,-1.5879,-1.5886,-1.59,-1.5886,-1.5866,-1.5825,-1.5859,-1.594,-1.5981,-1.5988,-1.6015,-1.6076,-1.6076,-1.6083,-1.6083,-1.6083,-1.6083,-1.6083,-1.5938,-1.5563,-1.5368,-1.5181,-1.5181,-1.5181,-1.5181,-1.5181,-1.5181,-1.5181,-1.5181,-1.5181,-1.5181,-1.5181,-1.5375,-1.5563,-1.5563,-1.5744,-1.5931,-1.5563,-1.5563,-1.5458,-1.5602,-1.6067,-1.6501,-1.6773,-1.7054,-1.7577,-1.8278,-1.8906,-1.9544,-2.0423,-2.1013,-2.1771,-2.2788,-2.3561,-2.4136,-2.4719,-2.5129,-2.5518,-2.5518,-2.5518,-2.5324,-2.473,-2.3951,-2.2974,-2.2004,-2.1317,-2.0759,-1.9974,-1.898,-1.7938,-1.7283,-1.6672,-1.6474,-1.6083,-1.6083,-1.6083,-1.6076,-1.6083,-1.6069,-1.6083,-1.6083,-1.6083,-1.6083,-1.6083,-1.6083,-1.6083,-1.6076,-1.6076,-1.6083,-1.6076,-1.6083,-1.6083,-1.6083,-1.6083,-1.6062,-1.6008,-1.5981,-1.6062,-1.6062,-1.6062,-1.6076,-1.6083,-1.6076,-1.6056,-1.6056,-1.6083,-1.6083,-1.6083,-1.6083,-1.6083,-1.6083,-1.6062,-1.6062,-1.6049,-1.6035,-1.6015,-1.6008,-1.6015,-1.6008,-1.5988,-1.5967,-1.6001,-1.6022,-1.6042,-1.6049,-1.6076,-1.6083,-1.6083,-1.6083,-1.6083,-1.6083,-1.6083,-1.6083,-1.6306,-1.5938,-1.5368,-1.5181,-1.5181,-1.5181,-1.5181,-1.5181,-1.5181,-1.5181,-1.5181,-1.5181,-1.5181,-1.5181,-1.5181,-1.5181,-1.5181,-1.5181,-1.5368,-1.5368,-1.5228,-1.533,-1.5466,-1.5794,-1.6133,-1.6468,-1.6672,-1.7348,-1.8015,-1.8449,-1.9224,-2.0038,-2.0629,-2.1406,-2.2387,-2.3365,-2.4146,-2.4535,-2.5129,-2.5518,-2.5518,-2.5518,-2.5334,-2.4824,-2.4237,-2.369,-2.2764,-2.1876,-2.0968,-2.0367,-1.9565,-1.8675,-1.7976,-1.7275,-1.6672,-1.6275,-1.6275,-1.6083,-1.6083,-1.6083,-1.6083,-1.6083,-1.6083,-1.6083,-1.6083,-1.6083,-1.6083,-1.6083,-1.6083,-1.6083,-1.6083,-1.6083,-1.6083,-1.6083,-1.6083,-1.6083,-1.6083,-1.6083,-1.6076,-1.6076,-1.6083,-1.6083,-1.6083,-1.6083,-1.6083,-1.6083,-1.6083,-1.6083,-1.6083,-1.6083,-1.6083,-1.6083,-1.6083,-1.6083,-1.6083,-1.6083,-1.6083,-1.6083,-1.6083,-1.6083,-1.6083,-1.6056,-1.6029,-1.6049,-1.6069,-1.6083,-1.6083,-1.6083,-1.6083,-1.6083,-1.6083,-1.6083,-1.6083,-1.6083,-1.6083,-1.6306,-1.5938,-1.5368,-1.5181,-1.5181,-1.5181,-1.5181,-1.5181,-1.5181,-1.5181,-1.5181,-1.5181,-1.5181,-1.5181,-1.5181,-1.5181,-1.5181,-1.5181,-1.5187,-1.5221,-1.5303,-1.5438,-1.5601,-1.5723,-1.5886,-1.6206,-1.6623,-1.7232,-1.7848,-1.8259,-1.8853,-1.984,-2.0629,-2.1219,-2.1995,-2.317,-2.3951,-2.4341,-2.4935,-2.5518,-2.5518,-2.555,-2.5463,-2.5001,-2.4639,-2.4117,-2.3459,-2.2524,-2.1756,-2.116,-2.0545,-1.9719,-1.8823,-1.7621,-1.7113,-1.6686,-1.6282,-1.6083,-1.6083,-1.6083,-1.6083,-1.6083,-1.6083,-1.6083,-1.6083,-1.6083,-1.6083,-1.6083,-1.6083,-1.6083,-1.6083,-1.6083,-1.6083,-1.6083,-1.6083,-1.6083,-1.6083,-1.6083,-1.6083,-1.6083,-1.6083,-1.6083,-1.6083,-1.6083,-1.6083,-1.6083,-1.6083,-1.6083,-1.6083,-1.6083,-1.6083,-1.6083,-1.6083,-1.6083,-1.6083,-1.6083,-1.6083,-1.6083,-1.6083,-1.6083,-1.6083,-1.6083,-1.6083,-1.6083,-1.6083,-1.6083,-1.6083,-1.6083,-1.6083,-1.6083,-1.6083,-1.6083,-1.6083,-1.6083,-1.6103,-1.6681,-1.6306,-1.5744,-1.5368,-1.5181,-1.5181,-1.5181,-1.5181,-1.5181,-1.5181,-1.5181,-1.5181,-1.5181,-1.5181,-1.5181,-1.5181,-1.5181,-1.5181,-1.5228,-1.5303,-1.5384,-1.554,-1.5723,-1.5825,-1.594,-1.6241,-1.6474,-1.6871,-1.7672,-1.7863,-1.8655,-1.9643,-2.0432,-2.1022,-2.1612,-2.2974,-2.3766,-2.4156,-2.4945,-2.5529,-2.555,-2.5626,-2.5634,-2.5596,-2.5074,-2.4727,-2.4207,-2.3346,-2.2563,-2.1962,-2.1156,-2.0535,-1.9849,-1.8675,-1.7673,-1.7006,-1.6529,-1.6083,-1.6083,-1.6083,-1.6083,-1.6083,-1.6083,-1.6083,-1.6083,-1.6083,-1.6083,-1.6083,-1.6083,-1.6083,-1.6083,-1.6083,-1.6083,-1.6083,-1.6083,-1.6083,-1.6083,-1.6083,-1.6083,-1.6083,-1.6083,-1.6083,-1.6083,-1.6083,-1.6083,-1.6083,-1.6083,-1.6083,-1.6083,-1.6083,-1.6083,-1.6083,-1.6083,-1.6083,-1.6083,-1.6083,-1.6083,-1.6083,-1.6083,-1.6083,-1.6083,-1.6083,-1.6083,-1.6083,-1.6083,-1.6083,-1.6083,-1.6083,-1.6083,-1.6083,-1.6083,-1.6083,-1.6083,-1.609,-1.611,-1.7242,-1.6868,-1.6126,-1.5751,-1.5368,-1.5181,-1.5181,-1.5181,-1.5181,-1.5181,-1.5181,-1.5181,-1.5181,-1.5181,-1.5181,-1.5181,-1.5181,-1.5181,-1.5262,-1.5384,-1.5459,-1.5608,-1.5791,-1.59,-1.5967,-1.6062,-1.6083,-1.6679,-1.7474,-1.7672,-1.8267,-1.9256,-2.0235,-2.0826,-2.1219,-2.3042,-2.3816,-2.4433,-2.5061,-2.5658,-2.5712,-2.5841,-2.6056,-2.6272,-2.5903,-2.5322,-2.4618,-2.3925,-2.3184,-2.2569,-2.1757,-2.114,-2.0694,-1.9726,-1.8549,-1.7401,-1.6627,-1.6344,-1.6123,-1.6083,-1.6083,-1.6083,-1.6083,-1.6083,-1.6083,-1.6083,-1.6083,-1.6083,-1.6083,-1.6083,-1.6083,-1.6083,-1.6083,-1.6083,-1.6083,-1.6083,-1.6083,-1.6083,-1.6083,-1.6083,-1.6083,-1.6083,-1.6083,-1.6083,-1.6083,-1.6083,-1.6083,-1.6083,-1.6083,-1.6083,-1.6083,-1.6083,-1.6083,-1.6083,-1.6083,-1.6083,-1.6083,-1.6083,-1.6083,-1.6083,-1.6083,-1.6083,-1.6083,-1.6083,-1.6083,-1.6083,-1.6083,-1.6083,-1.6083,-1.6083,-1.6083,-1.6083,-1.6083,-1.6103,-1.613,-1.7429,-1.7242,-1.6314,-1.5938,-1.5744,-1.5368,-1.5181,-1.5181,-1.5181,-1.5181,-1.5181,-1.5181,-1.5181,-1.5181,-1.5181,-1.5181,-1.5181,-1.5208,-1.5289,-1.5438,-1.556,-1.5703,-1.5866,-1.6001,-1.6029,-1.6083,-1.6083,-1.6679,-1.7474,-1.7672,-1.8267,-1.9256,-2.0235,-2.0834,-2.1075,-2.3149,-2.4254,-2.4492,-2.5429,-2.6132,-2.6142,-2.6175,-2.6315,-2.6275,-2.6147,-2.5602,-2.5318,-2.4578,-2.3981,-2.2958,-2.214,-2.1734,-2.1086,-1.9911,-1.9006,-1.8268,-1.748,-1.6682,-1.6453,-1.6171,-1.609,-1.609,-1.6083,-1.6083,-1.6282,-1.6282,-1.6282,-1.6083,-1.6083,-1.6282,-1.6282,-1.6083,-1.6083,-1.6083,-1.6083,-1.6083,-1.6083,-1.6083,-1.6083,-1.6083,-1.6083,-1.6083,-1.6083,-1.6083,-1.6083,-1.6083,-1.6083,-1.6083,-1.6083,-1.6083,-1.6083,-1.6083,-1.6083,-1.6083,-1.6083,-1.6083,-1.6083,-1.6083,-1.6083,-1.6083,-1.6083,-1.6083,-1.6083,-1.6083,-1.6083,-1.6083,-1.6083,-1.6083,-1.6083,-1.6083,-1.6083,-1.6083,-1.6083,-1.611,-1.6137,-1.7989,-1.7429,-1.6876,-1.6501,-1.5938,-1.5744,-1.5375,-1.5181,-1.5181,-1.5181,-1.5181,-1.5181,-1.5181,-1.5181,-1.5181,-1.5181,-1.5201,-1.5269,-1.5391,-1.554,-1.5689,-1.5832,-1.5967,-1.6049,-1.6076,-1.6083,-1.6282,-1.6679,-1.7275,-1.787,-1.8267,-1.9256,-2.0243,-2.0896,-2.1155,-2.3256,-2.4177,-2.4666,-2.5587,-2.6293,-2.639,-2.6455,-2.6552,-2.6767,-2.6574,-2.6229,-2.5676,-2.5295,-2.4677,-2.3635,-2.2816,-2.1977,-2.1552,-2.0662,-1.9584,-1.9145,-1.8739,-1.7712,-1.6536,-1.6252,-1.6185,-1.6302,-1.6481,-1.6672,-1.6871,-1.6878,-1.6878,-1.7077,-1.707,-1.7077,-1.6878,-1.6672,-1.6672,-1.6474,-1.6481,-1.6282,-1.6083,-1.6083,-1.6083,-1.6083,-1.6083,-1.6083,-1.6083,-1.6083,-1.6083,-1.6083,-1.6083,-1.6083,-1.6083,-1.6083,-1.6083,-1.6083,-1.6083,-1.6083,-1.6083,-1.6083,-1.6083,-1.6083,-1.6083,-1.6083,-1.6083,-1.6083,-1.6083,-1.6083,-1.6083,-1.6083,-1.6083,-1.6083,-1.6083,-1.6083,-1.6083,-1.6083,-1.6083,-1.6103,-1.6178,-1.8744,-1.7811,-1.7429,-1.6876,-1.6314,-1.5931,-1.5751,-1.5368,-1.5181,-1.5181,-1.5181,-1.5181,-1.5181,-1.5181,-1.5187,-1.5208,-1.5248,-1.5357,-1.552,-1.5676,-1.5805,-1.5927,-1.6029,-1.6083,-1.6083,-1.6083,-1.6083,-1.6679,-1.7474,-1.787,-1.8267,-1.9264,-2.0235,-2.0733,-2.1677,-2.3192,-2.4727,-2.5416,-2.6052,-2.6541,-2.6648,-2.6681,-2.6778,-2.6885,-2.6745,-2.6745,-2.6129,-2.5501,-2.5089,-2.4264,-2.3023,-2.2184,-2.1769,-2.1137,-2.0087,-1.9655,-1.9107,-1.8541,-1.7538,-1.7003,-1.671,-1.6834,-1.6985,-1.7428,-1.7614,-1.7769,-1.7732,-1.7547,-1.768,-1.768,-1.7672,-1.7268,-1.707,-1.707,-1.6871,-1.6481,-1.6282,-1.6481,-1.6282,-1.6083,-1.6083,-1.6083,-1.6083,-1.6083,-1.6083,-1.6083,-1.6083,-1.6083,-1.6083,-1.6083,-1.6083,-1.6083,-1.6083,-1.6083,-1.6083,-1.6083,-1.6083,-1.6083,-1.6083,-1.6083,-1.6083,-1.6083,-1.6083,-1.6083,-1.6083,-1.6083,-1.6083,-1.6083,-1.6083,-1.6083,-1.6083,-1.6083,-1.609,-1.6117,-1.6252,-1.9666,-1.8744,-1.7811,-1.7437,-1.725,-1.6306,-1.5938,-1.5744,-1.5368,-1.5181,-1.5181,-1.5181,-1.5181,-1.5181,-1.5194,-1.5255,-1.5391,-1.5404,-1.5581,-1.575,-1.5866,-1.5961,-1.6042,-1.6083,-1.6083,-1.6083,-1.6083,-1.6679,-1.7474,-1.7672,-1.8267,-1.9256,-2.0235,-2.0759,-2.175,-2.3365,-2.5234,-2.6103,-2.6585,-2.6821,-2.6875,-2.6885,-2.6918,-2.6928,-2.695,-2.6745,-2.6118,-2.5707,-2.5089,-2.4677,-2.3428,-2.2392,-2.1977,-2.1362,-2.0529,-1.9887,-1.967,-1.9114,-1.8358,-1.8012,-1.7931,-1.8119,-1.809,-1.8052,-1.8434,-1.8142,-1.7903,-1.8081,-1.8221,-1.7946,-1.7916,-1.768,-1.7747,-1.7555,-1.737,-1.7127,-1.6914,-1.6878,-1.6679,-1.6282,-1.6083,-1.6275,-1.6083,-1.6083,-1.6083,-1.6083,-1.6083,-1.6083,-1.6083,-1.6083,-1.6083,-1.6083,-1.6083,-1.6083,-1.6083,-1.6083,-1.6083,-1.6083,-1.6083,-1.6083,-1.6083,-1.6083,-1.6083,-1.6083,-1.6083,-1.6083,-1.6083,-1.6083,-1.6083,-1.6083,-1.6083,-1.6096,-1.6185,-1.6266,-1.6429,-2.0408,-1.9666,-1.8744,-1.7997,-1.7437,-1.7063,-1.6681,-1.6306,-1.5931,-1.5368,-1.5181,-1.5181,-1.5181,-1.5181,-1.5187,-1.5269,-1.5411,-1.552,-1.5676,-1.5832,-1.5947,-1.6022,-1.6076,-1.6083,-1.6083,-1.6083,-1.6083,-1.6679,-1.7672,-1.7672,-1.8465,-1.9256,-2.0235,-2.0846,-2.2068,-2.377,-2.5502,-2.6444,-2.695,-2.695,-2.695,-2.695,-2.695,-2.695,-2.695,-2.6745,-2.6529,-2.6118,-2.5501,-2.4883,-2.3841,-2.3014,-2.2184,-2.1561,-2.0945,-2.0111,-1.9911,-1.9863,-1.9376,-1.8808,-1.8473,-1.8572,-1.876,-1.8775,-1.9214,-1.9111,-1.908,-1.9049,-1.9001,-1.893,-1.897,-1.8776,-1.8583,-1.8343,-1.8089,-1.7829,-1.7584,-1.7547,-1.7106,-1.6722,-1.6494,-1.6474,-1.6275,-1.6083,-1.6083,-1.6083,-1.6083,-1.6083,-1.6083,-1.6083,-1.6083,-1.6083,-1.6083,-1.6083,-1.6083,-1.6083,-1.6083,-1.6083,-1.6083,-1.6083,-1.6083,-1.6083,-1.6083,-1.6083,-1.6083,-1.6083,-1.6083,-1.6083,-1.6083,-1.6083,-1.6103,-1.613,-1.6246,-1.6388,-1.6564,-2.1149,-2.0594,-1.9674,-1.8735,-1.7811,-1.7437,-1.7242,-1.6868,-1.6306,-1.5931,-1.5368,-1.5368,-1.5368,-1.5181,-1.5187,-1.5309,-1.5466,-1.5594,-1.575,-1.59,-1.6022,-1.6076,-1.6083,-1.6083,-1.6083,-1.6083,-1.6282,-1.6878,-1.7672,-1.787,-1.8663,-1.9446,-2.0252,-2.1028,-2.1903,-2.3934,-2.584,-2.6518,-2.695,-2.695,-2.695,-2.695,-2.695,-2.695,-2.695,-2.695,-2.6745,-2.6324,-2.5707,-2.5089,-2.4264,-2.3428,-2.2392,-2.1769,-2.1154,-2.0737,-2.032,-2.032,-2.0071,-1.9584,-1.9251,-1.9593,-1.9766,-1.9971,-2.0347,-2.0314,-2.0273,-2.0265,-2.0231,-2.0198,-2.0207,-1.9743,-1.9517,-1.9468,-1.9041,-1.8583,-1.8328,-1.8081,-1.7814,-1.7363,-1.712,-1.6672,-1.6474,-1.6275,-1.6083,-1.6083,-1.6083,-1.6083,-1.6083,-1.6083,-1.6083,-1.6083,-1.6083,-1.6083,-1.6083,-1.6083,-1.6083,-1.6083,-1.6083,-1.6083,-1.6083,-1.6083,-1.6083,-1.6083,-1.6083,-1.6083,-1.6083,-1.6083,-1.6083,-1.6083,-1.611,-1.6137,-1.6327,-1.6476,-1.6619,-2.1714,-2.1149,-2.0594,-1.9851,-1.8744,-1.7811,-1.7437,-1.7437,-1.6868,-1.6306,-1.5931,-1.5938,-1.5563,-1.5368,-1.5368,-1.5337,-1.5554,-1.5635,-1.5778,-1.6001,-1.6056,-1.6076,-1.6083,-1.6083,-1.6083,-1.6282,-1.6474,-1.707,-1.7672,-1.8061,-1.8853,-1.984,-2.0637,-2.1353,-2.1359,-2.375,-2.5695,-2.6713,-2.6939,-2.695,-2.695,-2.695,-2.695,-2.695,-2.695,-2.695,-2.6745,-2.654,-2.5923,-2.5295,-2.4883,-2.3851,-2.2806,-2.2184,-2.1778,-2.1154,-2.0737,-2.0529,-2.0312,-2.0312,-2.0479,-2.0853,-2.0795,-2.1035,-2.1682,-2.1604,-2.149,-2.1277,-2.1377,-2.1273,-2.1035,-2.0832,-2.0655,-2.0451,-2.0028,-1.9565,-1.9314,-1.9017,-1.8737,-1.8036,-1.7341,-1.6871,-1.6672,-1.6474,-1.6275,-1.6083,-1.6083,-1.6083,-1.6083,-1.6083,-1.6083,-1.6083,-1.6083,-1.6083,-1.6083,-1.6083,-1.6083,-1.6083,-1.6083,-1.6083,-1.6083,-1.6083,-1.6083,-1.6083,-1.6083,-1.6083,-1.6083,-1.6083,-1.6083,-1.6083,-1.611,-1.6178,-1.6381,-1.6564,-1.67,-2.2452,-2.1714,-2.1149,-2.0594,-1.9851,-1.8735,-1.8371,-1.8184,-1.7624,-1.6868,-1.6494,-1.6494,-1.6126,-1.5751,-1.5591,-1.5723,-1.5588,-1.5649,-1.5798,-1.6049,-1.6076,-1.6083,-1.6083,-1.6083,-1.6083,-1.6282,-1.6672,-1.7268,-1.7665,-1.8259,-1.905,-2.0038,-2.1237,-2.2397,-2.3498,-2.4841,-2.5695,-2.6702,-2.695,-2.695,-2.695,-2.695,-2.695,-2.695,-2.695,-2.695,-2.695,-2.654,-2.6118,-2.5501,-2.5089,-2.4264,-2.3221,-2.2599,-2.2184,-2.1769,-2.1353,-2.1362,-2.1362,-2.1353,-2.1561,-2.1769,-2.1769,-2.1769,-2.1959,-2.1933,-2.1889,-2.2078,-2.2204,-2.1945,-2.1586,-2.1586,-2.1595,-2.1569,-2.1114,-2.0815,-2.0527,-2.019,-1.967,-1.8938,-1.8029,-1.7334,-1.7091,-1.6672,-1.6275,-1.6083,-1.6083,-1.6083,-1.6083,-1.6083,-1.6083,-1.6083,-1.6083,-1.6083,-1.6083,-1.6083,-1.6083,-1.6083,-1.6083,-1.6083,-1.6083,-1.6083,-1.6083,-1.6083,-1.6083,-1.6083,-1.6083,-1.6083,-1.6083,-1.609,-1.6164,-1.6259,-1.6435,-1.6612,-1.6768,-2.3015,-2.2462,-2.1898,-2.1334,-2.0779,-1.9674,-1.9116,-1.8744,-1.8184,-1.7616,-1.7055,-1.6868,-1.6681,-1.6314,-1.596,-1.5863,-1.5739,-1.5628,-1.5737,-1.5995,-1.6062,-1.6076,-1.6083,-1.6083,-1.6275,-1.6474,-1.6871,-1.7466,-1.8061,-1.8655,-1.9643,-2.0817,-2.2004,-2.3168,-2.4257,-2.492,-2.5753,-2.6553,-2.6853,-2.695,-2.695,-2.695,-2.695,-2.695,-2.695,-2.695,-2.695,-2.6745,-2.654,-2.5707,-2.5295,-2.4677,-2.3635,-2.3014,-2.2806,-2.2392,-2.1977,-2.2184,-2.2184,-2.2184,-2.2392,-2.3014,-2.2599,-2.2599,-2.2806,-2.3004,-2.3211,-2.3211,-2.3014,-2.3014,-2.2797,-2.2806,-2.2383,-2.2545,-2.2096,-2.1586,-2.1328,-2.0986,-2.0468,-1.9719,-1.8714,-1.8014,-1.7312,-1.6885,-1.6474,-1.6275,-1.6083,-1.6083,-1.6083,-1.6083,-1.6083,-1.6083,-1.6083,-1.6083,-1.6083,-1.6083,-1.6083,-1.6083,-1.6083,-1.6083,-1.6083,-1.6083,-1.6083,-1.6083,-1.6083,-1.6083,-1.6083,-1.6083,-1.6103,-1.6185,-1.63,-1.6402,-1.651,-1.6653,-1.6815,-2.3383,-2.3373,-2.2821,-2.2268,-2.1714,-2.0417,-1.9488,-1.893,-1.893,-1.8371,-1.7429,-1.7437,-1.7242,-1.6681,-1.6314,-1.6031,-1.618,-1.5746,-1.5911,-1.5866,-1.5988,-1.6035,-1.6275,-1.6275,-1.6474,-1.707,-1.7466,-1.7863,-1.8457,-1.9446,-2.0432,-2.1406,-2.2583,-2.3513,-2.4305,-2.5105,-2.5756,-2.6414,-2.6842,-2.6928,-2.695,-2.695,-2.695,-2.695,-2.695,-2.695,-2.695,-2.6745,-2.654,-2.6118,-2.5501,-2.5089,-2.4254,-2.3428,-2.3014,-2.2599,-2.2392,-2.2599,-2.2806,-2.3014,-2.3428,-2.3841,-2.3428,-2.3635,-2.4048,-2.4264,-2.4264,-2.4471,-2.4471,-2.4471,-2.4471,-2.4048,-2.3428,-2.3004,-2.259,-2.2347,-2.1915,-2.1621,-2.1097,-2.0306,-1.9243,-1.8483,-1.7555,-1.7106,-1.6686,-1.6474,-1.6275,-1.6083,-1.6083,-1.6083,-1.6083,-1.6083,-1.6083,-1.6083,-1.6083,-1.6083,-1.6083,-1.6083,-1.6083,-1.6083,-1.6083,-1.6083,-1.6083,-1.6083,-1.6083,-1.6083,-1.6083,-1.611,-1.6144,-1.6252,-1.6374,-1.6497,-1.6585,-1.6707,-1.6849,-2.3751,-2.3383,-2.3199,-2.2821,-2.2268,-2.1529,-2.0603,-1.9488,-1.9488,-1.9116,-1.8557,-1.8557,-1.7997,-1.7242,-1.7063,-1.6793,-1.651,-1.6245,-1.6229,-1.6182,-1.63,-1.6383,-1.6439,-1.6672,-1.707,-1.7466,-1.7863,-1.8457,-1.8853,-1.984,-2.0826,-2.1612,-2.2974,-2.3826,-2.4515,-2.5272,-2.5997,-2.6519,-2.6788,-2.6907,-2.6939,-2.695,-2.695,-2.695,-2.695,-2.695,-2.695,-2.695,-2.654,-2.6129,-2.5913,-2.5501,-2.4471,-2.4058,-2.3851,-2.3428,-2.3221,-2.3428,-2.3851,-2.4058,-2.4264,-2.4883,-2.4667,-2.4677,-2.5089,-2.5089,-2.5295,-2.5501,-2.5501,-2.5295,-2.5089,-2.4883,-2.4264,-2.3841,-2.3428,-2.3211,-2.2995,-2.2338,-2.1818,-2.0619,-1.9752,-1.8978,-1.8036,-1.7334,-1.7113,-1.6686,-1.6474,-1.6275,-1.6083,-1.6083,-1.6083,-1.6083,-1.6083,-1.6083,-1.6083,-1.6083,-1.6083,-1.6083,-1.6083,-1.6083,-1.6083,-1.6083,-1.6083,-1.6083,-1.6083,-1.6083,-1.6083,-1.6123,-1.6185,-1.6293,-1.6408,-1.6544,-1.6666,-1.6795,-1.6883,-2.3924,-2.3751,-2.3751,-2.3373,-2.2821,-2.2452,-2.1529,-2.0779,-2.0223,-1.9674,-1.9302,-1.9116,-1.8744,-1.7997,-1.7811,-1.7491,-1.7011,-1.6729,-1.67,-1.6681,-1.6608,-1.694,-1.7019,-1.7268,-1.7466,-1.8061,-1.8457,-1.8655,-1.9248,-2.0432,-2.1415,-2.2397,-2.3571,-2.3961,-2.4618,-2.5384,-2.6067,-2.6379,-2.6648,-2.6832,-2.6918,-2.695,-2.695,-2.695,-2.695,-2.695,-2.695,-2.695,-2.6745,-2.6334,-2.6334,-2.5913,-2.5089,-2.4883,-2.4677,-2.4254,-2.4254,-2.4461,-2.4677,-2.4677,-2.5089,-2.5501,-2.5707,-2.5707,-2.5707,-2.5707,-2.5913,-2.5913,-2.5913,-2.5913,-2.5707,-2.5501,-2.5295,-2.4873,-2.4667,-2.4461,-2.3841,-2.3221,-2.2266,-2.1088,-2.0289,-1.9501,-1.8745,-1.8029,-1.7326,-1.6885,-1.6672,-1.6474,-1.6275,-1.6083,-1.6083,-1.6083,-1.6083,-1.6083,-1.6083,-1.6083,-1.6083,-1.6083,-1.6083,-1.6083,-1.6083,-1.6083,-1.6083,-1.6083,-1.6083,-1.6083,-1.6083,-1.6164,-1.6246,-1.6354,-1.649,-1.6646,-1.6775,-1.6876,-1.6944,-2.4118,-2.4118,-2.4118,-2.3751,-2.3373,-2.2821,-2.2637,-2.2452,-2.1149,-2.0223,-1.9851,-1.986,-1.9488,-1.893,-1.8371,-1.7997,-1.7507,-1.7215,-1.6994,-1.718,-1.7113,-1.7267,-1.762,-1.787,-1.8259,-1.8457,-1.8853,-1.9248,-2.0235,-2.1219,-2.2191,-2.318,-2.3766,-2.4351,-2.4772,-2.5288,-2.5949,-2.6272,-2.6487,-2.6659,-2.6885,-2.695,-2.695,-2.695,-2.695,-2.695,-2.695,-2.695,-2.695,-2.6745,-2.654,-2.6118,-2.5913,-2.5501,-2.5295,-2.5089,-2.5089,-2.5089,-2.5295,-2.5295,-2.5707,-2.5923,-2.6118,-2.6334,-2.6334,-2.6334,-2.6324,-2.6529,-2.654,-2.6334,-2.6334,-2.6129,-2.5913,-2.5501,-2.5295,-2.4883,-2.4461,-2.3841,-2.2743,-2.1775,-2.0841,-2.0053,-1.9517,-1.8784,-1.8021,-1.7334,-1.6871,-1.6672,-1.6474,-1.6282,-1.6083,-1.6083,-1.6083,-1.6083,-1.6083,-1.6083,-1.6083,-1.6083,-1.6083,-1.6083,-1.6083,-1.6083,-1.6083,-1.6083,-1.6083,-1.6083,-1.6096,-1.6164,-1.6266,-1.6442,-1.6585,-1.6761,-1.6883,-1.6958,-1.6978,-2.4118,-2.4118,-2.4118,-2.4118,-2.3924,-2.3383,-2.3199,-2.3199,-2.2452,-2.1519,-2.0964,-2.0408,-2.0037,-1.9488,-1.9116,-1.8744,-1.8395,-1.7882,-1.7489,-1.7674,-1.7627,-1.8013,-1.8213,-1.8457,-1.8853,-1.9446,-1.984,-2.0235,-2.1022,-2.1799,-2.2583,-2.317,-2.3961,-2.4546,-2.474,-2.5441,-2.5819,-2.6207,-2.6315,-2.6584,-2.6896,-2.695,-2.695,-2.695,-2.695,-2.695,-2.695,-2.695,-2.695,-2.6745,-2.6745,-2.654,-2.6118,-2.5501,-2.5295,-2.5295,-2.5501,-2.5707,-2.5913,-2.5913,-2.6118,-2.654,-2.6745,-2.6745,-2.6745,-2.6745,-2.6745,-2.6745,-2.695,-2.6745,-2.6745,-2.654,-2.654,-2.6129,-2.5913,-2.5501,-2.5089,-2.4245,-2.34,-2.2491,-2.1577,-2.0841,-2.0289,-1.9525,-1.8745,-1.8014,-1.7304,-1.6871,-1.6672,-1.6474,-1.6083,-1.6083,-1.6083,-1.6083,-1.6083,-1.6083,-1.6083,-1.6083,-1.6083,-1.6083,-1.6083,-1.6083,-1.6083,-1.6083,-1.6083,-1.6083,-1.6083,-1.6096,-1.6232,-1.6449,-1.6612,-1.6754,-1.6883,-1.6971,-1.6978,-2.4118,-2.4118,-2.4118,-2.4118,-2.4118,-2.3751,-2.374,-2.3567,-2.3189,-2.2637,-2.2083,-2.1334,-2.0779,-2.0046,-1.9666,-1.9302,-1.9116,-1.8744,-1.8789,-1.8814,-1.856,-1.915,-1.9306,-1.9437,-1.984,-2.0235,-2.0629,-2.121,-2.2004,-2.2593,-2.317,-2.3756,-2.4546,-2.474,-2.4935,-2.5356,-2.5755,-2.6207,-2.6229,-2.6498,-2.6896,-2.695,-2.695,-2.695,-2.695,-2.695,-2.695,-2.695,-2.695,-2.695,-2.695,-2.6745,-2.654,-2.6334,-2.6118,-2.6118,-2.6118,-2.6118,-2.6324,-2.6529,-2.6529,-2.6745,-2.695,-2.695,-2.695,-2.6745,-2.6745,-2.695,-2.695,-2.6745,-2.6745,-2.6745,-2.6745,-2.654,-2.6334,-2.6129,-2.5501,-2.4667,-2.3832,-2.3184,-2.2275,-2.1586,-2.102,-2.0223,-1.9444,-1.8467,-1.7762,-1.7077,-1.6878,-1.6474,-1.6275,-1.6083,-1.6083,-1.6083,-1.6083,-1.6083,-1.6083,-1.6083,-1.6083,-1.609,-1.609,-1.6083,-1.6083,-1.6117,-1.6117,-1.6083,-1.6083,-1.6144,-1.6259,-1.6469,-1.6605,-1.672,-1.6849,-1.6951,-1.6937,-2.4118,-2.4118,-2.4118,-2.4118,-2.4118,-2.4118,-2.4118,-2.3935,-2.3751,-2.3383,-2.3199,-2.2462,-2.1529,-2.0779,-2.0408,-2.0223,-1.9851,-1.948,-1.9723,-1.9958,-2.0054,-2.0113,-2.0302,-2.0629,-2.0826,-2.121,-2.1603,-2.1995,-2.2779,-2.317,-2.3951,-2.4546,-2.4935,-2.4935,-2.5324,-2.5572,-2.5755,-2.611,-2.6304,-2.6519,-2.6756,-2.695,-2.695,-2.695,-2.695,-2.695,-2.695,-2.695,-2.695,-2.695,-2.695,-2.695,-2.6745,-2.6745,-2.6745,-2.6745,-2.654,-2.6745,-2.6745,-2.6745,-2.6745,-2.695,-2.695,-2.695,-2.695,-2.695,-2.695,-2.695,-2.695,-2.695,-2.695,-2.695,-2.695,-2.695,-2.6745,-2.6745,-2.5913,-2.5295,-2.4677,-2.3841,-2.3174,-2.2293,-2.1748,-2.0943,-2.0157,-1.9171,-1.8229,-1.7739,-1.7077,-1.6679,-1.6474,-1.6275,-1.6083,-1.6083,-1.6083,-1.6083,-1.6083,-1.6083,-1.6083,-1.609,-1.611,-1.6151,-1.6178,-1.6198,-1.6185,-1.6198,-1.6225,-1.6279,-1.6408,-1.653,-1.6564,-1.6659,-1.6775,-1.6863,-1.687,-2.4118,-2.4118,-2.4118,-2.4118,-2.4118,-2.4118,-2.4118,-2.4118,-2.3935,-2.374,-2.3373,-2.3199,-2.2637,-2.1529,-2.1149,-2.0779,-2.0408,-2.0046,-1.9912,-2.0193,-2.0437,-2.05,-2.0916,-2.1219,-2.1415,-2.1995,-2.2583,-2.317,-2.3561,-2.3951,-2.4535,-2.473,-2.5129,-2.5324,-2.5518,-2.5593,-2.5733,-2.6078,-2.6293,-2.6465,-2.681,-2.695,-2.695,-2.695,-2.695,-2.695,-2.695,-2.695,-2.695,-2.695,-2.695,-2.695,-2.695,-2.695,-2.695,-2.695,-2.695,-2.695,-2.695,-2.695,-2.695,-2.695,-2.695,-2.695,-2.695,-2.695,-2.695,-2.695,-2.695,-2.695,-2.695,-2.695,-2.695,-2.695,-2.6745,-2.654,-2.6118,-2.5707,-2.5295,-2.4667,-2.3832,-2.3184,-2.2536,-2.1722,-2.0935,-1.9938,-1.8946,-1.8436,-1.7717,-1.7098,-1.6481,-1.6282,-1.6282,-1.6083,-1.6083,-1.6083,-1.6083,-1.6083,-1.6103,-1.6151,-1.6198,-1.6259,-1.6286,-1.632,-1.6374,-1.6415,-1.6435,-1.6395,-1.6517,-1.6605,-1.6551,-1.6592,-1.6714,-1.6768,-1.6768]}]]